[[{"header":{"parameterUnit":"m.s-1","parameterCategory":1,"la1":30.6,"la2":28.766,"lo1":-90.7593,"lo2":-88.6598,"dy":0.0162,"dx":0.0183,"nx":116,"ny":114,"refTime":"2023-08-21T06:00:00:Z","depth":0,"parameterNumber":2,"parameterNumberName":"U-component_of_WINDS"},"data":[0.0,0.0,0.0,0.0,0.0,0.0,0.0,0.0,0.0,0.0,0.0,0.0,0.0,0.0,0.0,0.0,0.0,0.0,0.0,0.0,0.0,0.0,0.0,0.0,0.0,0.0,0.0,0.0,0.0,0.0,0.0,0.0,0.0,0.0,0.0,0.0,0.0,0.0,0.0,0.0,0.0,0.0,0.0,0.0,0.0,0.0,0.0,0.0,0.0,0.0,0.0,0.0,0.0,0.0,0.0,0.0,0.0,0.0,0.0,0.0,0.0,0.0,0.0,0.0,0.0,0.0,0.0,0.0,0.0,0.0,0.0,0.0,0.0,0.0,0.0,0.0,0.0,0.0,0.0,0.0,0.0,0.0,0.0,0.0,0.0,0.0,0.0,0.0,0.0,0.0,0.0,0.0,0.0,0.0,0.0,0.0,0.0,0.0,0.0,0.0,0.0,0.0,0.0,0.0,0.0,0.0,0.0,0.0,0.0,0.0,0.0,0.0,0.0,0.0,0.0,0.0,0.0,0.0,0.0,0.0,0.0,0.0,0.0,0.0,0.0,0.0,0.0,0.0,0.0,0.0,0.0,0.0,0.0,0.0,0.0,0.0,0.0,0.0,0.0,0.0,0.0,0.0,0.0,0.0,0.0,0.0,0.0,0.0,0.0,0.0,0.0,0.0,0.0,0.0,0.0,0.0,0.0,0.0,0.0,0.0,0.0,0.0,0.0,0.0,0.0,0.0,0.0,0.0,0.0,0.0,0.0,0.0,0.0,0.0,0.0,0.0,0.0,0.0,0.0,0.0,0.0,0.0,0.0,0.0,0.0,0.0,0.0,0.0,0.0,0.0,0.0,0.0,0.0,0.0,0.0,0.0,0.0,0.0,0.0,0.0,0.0,0.0,0.0,0.0,0.0,0.0,0.0,0.0,0.0,0.0,0.0,0.0,0.0,0.0,0.0,0.0,0.0,0.0,0.0,0.0,0.0,0.0,0.0,0.0,0.0,0.0,0.0,0.0,0.0,0.0,0.0,0.0,0.0,0.0,0.0,0.0,0.0,0.0,0.0,0.0,0.0,0.0,0.0,0.0,0.0,0.0,0.0,0.0,0.0,0.0,0.0,0.0,0.0,0.0,0.0,0.0,0.0,0.0,0.0,0.0,0.0,0.0,0.0,0.0,0.0,0.0,0.0,0.0,0.0,0.0,0.0,0.0,0.0,0.0,0.0,0.0,0.0,0.0,0.0,0.0,0.0,0.0,0.0,0.0,0.0,0.0,0.0,0.0,0.0,0.0,0.0,0.0,0.0,0.0,0.0,0.0,0.0,0.0,0.0,0.0,0.0,0.0,0.0,0.0,0.0,0.0,0.0,0.0,0.0,0.0,0.0,0.0,0.0,0.0,0.0,0.0,0.0,0.0,0.0,0.0,0.0,0.0,0.0,0.0,0.0,0.0,0.0,0.0,0.0,0.0,0.0,0.0,0.0,0.0,0.0,0.0,0.0,0.0,0.0,0.0,0.0,0.0,0.0,0.0,0.0,0.0,0.0,0.0,0.0,0.0,0.0,0.0,0.0,0.0,0.0,0.0,0.0,0.0,0.0,0.0,0.0,0.0,0.0,0.0,0.0,0.0,0.0,0.0,0.0,0.0,0.0,0.0,0.0,0.0,0.0,0.0,0.0,0.0,0.0,0.0,0.0,0.0,0.0,0.0,0.0,0.0,0.0,0.0,0.0,0.0,0.0,0.0,0.0,0.0,0.0,0.0,0.0,0.0,0.0,0.0,0.0,0.0,0.0,0.0,0.0,0.0,0.0,0.0,0.0,0.0,0.0,0.0,0.0,0.0,0.0,0.0,0.0,0.0,0.0,0.0,0.0,0.0,0.0,0.0,0.0,0.0,0.0,0.0,0.0,0.0,0.0,0.0,0.0,0.0,0.0,0.0,0.0,0.0,0.0,0.0,0.0,0.0,0.0,0.0,0.0,0.0,0.0,0.0,0.0,0.0,0.0,0.0,0.0,0.0,0.0,0.0,0.0,0.0,0.0,0.0,0.0,0.0,0.0,0.0,0.0,0.0,0.0,0.0,0.0,0.0,0.0,0.0,0.0,0.0,0.0,0.0,0.0,0.0,0.0,0.0,0.0,0.0,0.0,0.0,0.0,0.0,0.0,0.0,0.0,0.0,0.0,0.0,0.0,0.0,0.0,0.0,0.0,0.0,0.0,0.0,0.0,0.0,0.0,0.0,0.0,0.0,0.0,0.0,0.0,0.0,0.0,0.0,0.0,0.0,0.0,0.0,0.0,0.0,0.0,0.0,0.0,0.0,0.0,0.0,0.0,0.0,0.0,0.0,0.0,0.0,0.0,0.0,0.0,0.0,0.0,0.0,0.0,0.0,0.0,0.0,0.0,0.0,0.0,0.0,0.0,0.0,0.0,0.0,0.0,0.0,0.0,0.0,0.0,0.0,0.0,0.0,0.0,0.0,0.0,0.0,0.0,0.0,0.0,0.0,0.0,0.0,0.0,0.0,0.0,0.0,0.0,0.0,0.0,0.0,0.0,0.0,0.0,0.0,0.0,0.0,0.0,0.0,0.0,0.0,0.0,0.0,0.0,0.0,0.0,0.0,0.0,0.0,0.0,0.0,0.0,0.0,0.0,0.0,0.0,0.0,0.0,0.0,0.0,0.0,0.0,0.0,0.0,0.0,0.0,0.0,0.0,0.0,0.0,0.0,0.0,0.0,0.0,0.0,0.0,0.0,0.0,0.0,0.0,0.0,0.0,0.0,0.0,0.0,0.0,0.0,0.0,0.0,0.0,0.0,0.0,0.0,0.0,0.0,0.0,0.0,0.0,0.0,0.0,0.0,0.0,0.0,0.0,0.0,0.0,0.0,0.0,0.0,0.0,0.0,0.0,0.0,0.0,0.0,0.0,0.0,0.0,0.0,0.0,0.0,0.0,0.0,0.0,0.0,0.0,0.0,0.0,0.0,0.0,0.0,0.0,0.0,0.0,0.0,0.0,0.0,0.0,0.0,0.0,0.0,0.0,0.0,0.0,0.0,0.0,0.0,0.0,0.0,0.0,0.0,0.0,0.0,0.0,0.0,0.0,0.0,0.0,0.0,0.0,0.0,0.0,0.0,0.0,0.0,0.0,0.0,0.0,0.0,0.0,0.0,0.0,0.0,0.0,0.0,0.0,0.0,0.0,0.0,0.0,0.0,0.0,0.0,0.0,0.0,0.0,0.0,0.0,0.0,0.0,0.0,0.0,0.0,0.0,0.0,0.0,0.0,0.0,0.0,0.0,0.0,0.0,0.0,0.0,0.0,0.0,0.0,0.0,0.0,0.0,0.0,0.0,0.0,0.0,0.0,0.0,0.0,0.0,0.0,0.0,0.0,0.0,0.0,0.0,0.0,0.0,0.0,0.0,0.0,0.0,0.0,0.0,0.0,0.0,0.0,0.0,0.0,0.0,0.0,0.0,0.0,0.0,0.0,0.0,0.0,0.0,0.0,0.0,0.0,0.0,0.0,0.0,0.0,0.0,0.0,0.0,0.0,0.0,0.0,0.0,0.0,0.0,0.0,0.0,0.0,0.0,0.0,0.0,0.0,0.0,0.0,0.0,0.0,0.0,0.0,0.0,0.0,0.0,0.0,0.0,0.0,0.0,0.0,0.0,0.0,0.0,0.0,0.0,0.0,0.0,0.0,0.0,0.0,0.0,0.0,0.0,0.0,0.0,0.0,0.0,0.0,0.0,0.0,0.0,0.0,0.0,0.0,0.0,0.0,0.0,0.0,0.0,0.0,0.0,0.0,0.0,0.0,0.0,0.0,0.0,0.0,0.0,0.0,0.0,0.0,0.0,0.0,0.0,0.0,0.0,0.0,0.0,0.0,0.0,0.0,0.0,0.0,0.0,0.0,0.0,0.0,0.0,0.0,0.0,0.0,0.0,0.0,0.0,0.0,0.0,0.0,0.0,0.0,0.0,0.0,0.0,0.0,0.0,0.0,0.0,0.0,0.0,0.0,0.0,0.0,0.0,0.0,0.0,0.0,0.0,0.0,0.0,0.0,0.0,0.0,0.0,0.0,0.0,0.0,0.0,0.0,0.0,0.0,0.0,0.0,0.0,0.0,0.0,0.0,0.0,0.0,0.0,0.0,0.0,0.0,0.0,0.0,0.0,0.0,0.0,0.0,0.0,0.0,0.0,0.0,0.0,0.0,0.0,0.0,0.0,0.0,0.0,0.0,0.0,0.0,0.0,0.0,0.0,0.0,0.0,0.0,0.0,0.0,0.0,0.0,0.0,0.0,0.0,0.0,0.0,0.0,0.0,0.0,0.0,0.0,0.0,0.0,0.0,0.0,0.0,0.0,0.0,0.0,0.0,0.0,0.0,0.0,0.0,0.0,0.0,0.0,0.0,0.0,0.0,0.0,0.0,0.0,0.0,0.0,0.0,0.0,0.0,0.0,0.0,0.0,0.0,0.0,0.0,0.0,0.0,0.0,0.0,0.0,0.0,0.0,0.0,0.0,0.0,0.0,0.0,0.0,0.0,0.0,0.0,0.0,0.0,0.0,0.0,0.0,0.0,0.0,0.0,0.0,0.0,0.0,0.0,0.0,0.0,0.0,0.0,0.0,0.0,0.0,0.0,0.0,0.0,0.0,0.0,0.0,0.0,0.0,0.0,0.0,0.0,0.0,0.0,0.0,0.0,0.0,0.0,0.0,0.0,0.0,0.0,0.0,0.0,0.0,0.0,0.0,0.0,0.0,0.0,0.0,0.0,0.0,0.0,0.0,0.0,0.0,0.0,0.0,0.0,0.0,0.0,0.0,0.0,0.0,0.0,0.0,0.0,0.0,0.0,0.0,0.0,0.0,0.0,0.0,0.0,0.0,0.0,0.0,0.0,0.0,0.0,0.0,0.0,0.0,0.0,0.0,0.0,0.0,0.0,0.0,0.0,0.0,0.0,0.0,0.0,0.0,0.0,0.0,0.0,0.0,0.0,0.0,0.0,0.0,0.0,0.0,0.0,0.0,0.0,0.0,0.0,0.0,0.0,0.0,0.0,0.0,0.0,0.0,0.0,0.0,0.0,0.0,0.0,0.0,0.0,0.0,0.0,0.0,0.0,0.0,0.0,0.0,0.0,0.0,0.0,0.0,0.0,0.0,0.0,0.0,0.0,0.0,0.0,0.0,0.0,0.0,0.0,0.0,0.0,0.0,0.0,0.0,0.0,0.0,0.0,0.0,0.0,0.0,0.0,0.0,0.0,0.0,0.0,0.0,0.0,0.0,0.0,0.0,0.0,0.0,0.0,0.0,0.0,0.0,0.0,0.0,0.0,0.0,0.0,0.0,0.0,0.0,0.0,0.0,0.0,0.0,0.0,0.0,0.0,0.0,0.0,0.0,0.0,0.0,0.0,0.0,0.0,0.0,0.0,0.0,0.0,0.0,0.0,0.0,0.0,0.0,0.0,0.0,0.0,0.0,0.0,0.0,0.0,0.0,0.0,0.0,0.0,0.0,0.0,0.0,0.0,0.0,0.0,0.0,0.0,0.0,0.0,0.0,0.0,0.0,0.0,0.0,0.0,0.0,0.0,0.0,0.0,0.0,0.0,0.0,0.0,0.0,0.0,0.0,0.0,0.0,0.0,0.0,0.0,0.0,0.0,0.0,0.0,0.0,0.0,0.0,0.0,0.0,0.0,0.0,0.0,0.0,0.0,0.0,0.0,0.0,0.0,0.0,0.0,0.0,0.0,0.0,0.0,0.0,0.0,0.0,0.0,0.0,0.0,0.0,0.0,0.0,0.0,0.0,0.0,0.0,0.0,0.0,0.0,0.0,0.0,0.0,0.0,0.0,0.0,0.0,0.0,0.0,0.0,0.0,0.0,0.0,0.0,0.0,0.0,0.0,0.0,0.0,0.0,0.0,0.0,0.0,0.0,0.0,0.0,0.0,0.0,0.0,0.0,0.0,0.0,0.0,0.0,0.0,0.0,0.0,0.0,0.0,0.0,0.0,0.0,0.0,0.0,0.0,0.0,0.0,0.0,0.0,0.0,0.0,0.0,0.0,0.0,0.0,0.0,0.0,0.0,0.0,0.0,0.0,0.0,0.0,0.0,0.0,-3.3802,0.0,0.0,0.0,0.0,0.0,0.0,0.0,0.0,0.0,0.0,0.0,0.0,0.0,0.0,0.0,0.0,0.0,0.0,0.0,0.0,0.0,0.0,0.0,0.0,0.0,0.0,0.0,0.0,0.0,0.0,0.0,0.0,0.0,0.0,0.0,0.0,0.0,0.0,0.0,0.0,0.0,0.0,0.0,0.0,0.0,0.0,0.0,0.0,0.0,0.0,0.0,0.0,0.0,0.0,0.0,0.0,0.0,0.0,0.0,0.0,0.0,0.0,0.0,0.0,0.0,0.0,0.0,0.0,0.0,0.0,0.0,0.0,0.0,0.0,0.0,0.0,0.0,0.0,0.0,0.0,0.0,0.0,0.0,0.0,0.0,0.0,0.0,0.0,0.0,0.0,0.0,0.0,0.0,0.0,0.0,0.0,0.0,0.0,0.0,0.0,0.0,0.0,0.0,0.0,0.0,0.0,0.0,0.0,0.0,0.0,0.0,0.0,0.0,0.0,0.0,0.0,-3.4397,0.0,0.0,0.0,0.0,0.0,0.0,0.0,0.0,0.0,0.0,0.0,0.0,0.0,0.0,0.0,0.0,0.0,0.0,0.0,0.0,0.0,0.0,0.0,0.0,-3.5782,-3.5773,-3.5778,-3.5773,0.0,0.0,0.0,0.0,0.0,0.0,0.0,0.0,0.0,0.0,0.0,0.0,0.0,0.0,0.0,0.0,0.0,0.0,0.0,0.0,0.0,0.0,0.0,0.0,0.0,0.0,0.0,0.0,0.0,0.0,0.0,0.0,0.0,0.0,0.0,0.0,0.0,0.0,0.0,0.0,0.0,0.0,0.0,0.0,0.0,0.0,0.0,0.0,0.0,0.0,0.0,0.0,0.0,0.0,0.0,0.0,0.0,0.0,0.0,0.0,0.0,0.0,0.0,0.0,0.0,0.0,0.0,0.0,0.0,0.0,0.0,0.0,0.0,0.0,0.0,0.0,0.0,0.0,0.0,0.0,-3.8413,-3.9107,-3.9815,-3.9815,-3.9721,-3.9439,-3.6555,-3.513,-3.4839,-3.4638,0.0,0.0,0.0,0.0,0.0,0.0,0.0,0.0,0.0,0.0,0.0,0.0,0.0,0.0,0.0,0.0,0.0,0.0,0.0,0.0,0.0,-3.5722,-3.5718,-3.5711,-3.5713,-3.5669,0.0,0.0,0.0,0.0,0.0,0.0,0.0,0.0,0.0,0.0,0.0,-3.6833,-3.6872,-3.7754,-3.8168,-3.809,-3.6571,0.0,0.0,0.0,0.0,0.0,0.0,0.0,0.0,0.0,0.0,0.0,0.0,0.0,0.0,0.0,0.0,0.0,0.0,0.0,0.0,0.0,0.0,0.0,0.0,0.0,0.0,0.0,0.0,0.0,0.0,0.0,0.0,0.0,0.0,0.0,0.0,0.0,0.0,0.0,0.0,0.0,0.0,0.0,-3.3759,-3.5426,0.0,0.0,0.0,0.0,0.0,0.0,0.0,0.0,0.0,0.0,0.0,0.0,0.0,-3.7133,-3.7812,-3.8688,-3.9533,-4.0309,-4.0422,-4.0534,-4.0647,-4.0647,-4.0265,-3.957,-3.9107,0.0,-3.6611,-3.5829,0.0,0.0,0.0,0.0,0.0,0.0,0.0,0.0,0.0,0.0,0.0,0.0,0.0,0.0,0.0,0.0,0.0,0.0,0.0,0.0,0.0,-3.6105,-3.6369,-3.6361,-3.6758,-3.6774,-3.6267,0.0,0.0,0.0,0.0,0.0,0.0,0.0,0.0,0.0,-3.6778,-3.7288,-3.7854,-3.8293,-3.8753,-3.9201,-3.8422,-3.7759,-3.7175,-3.6785,0.0,0.0,0.0,0.0,0.0,0.0,0.0,0.0,0.0,0.0,0.0,0.0,0.0,0.0,0.0,0.0,0.0,0.0,0.0,0.0,0.0,0.0,0.0,0.0,0.0,0.0,0.0,0.0,0.0,0.0,0.0,0.0,0.0,0.0,0.0,0.0,0.0,0.0,0.0,-3.3293,-3.3915,-3.56,-3.5022,-3.4493,0.0,0.0,0.0,0.0,0.0,0.0,0.0,0.0,0.0,-3.7242,-3.8507,-3.9352,-3.9708,-4.1022,-4.2074,-4.2881,-4.3332,-4.382,-4.4289,-4.4289,-4.382,-4.2994,-4.2543,-4.1385,-3.9621,-3.7312,-3.5837,-3.4982,0.0,0.0,0.0,0.0,-3.4513,-3.4934,0.0,0.0,0.0,0.0,0.0,0.0,0.0,0.0,0.0,0.0,0.0,0.0,-3.5984,-3.6538,-3.7,-3.7212,-3.7527,-3.7456,-3.6845,-3.6404,0.0,0.0,0.0,0.0,0.0,0.0,0.0,-3.7043,-3.7491,-3.8104,-3.8831,-3.9279,-3.9825,-4.0445,-4.0659,-3.9805,-3.8168,-3.772,-3.7155,-3.6532,0.0,0.0,0.0,0.0,0.0,0.0,0.0,0.0,0.0,0.0,0.0,0.0,0.0,0.0,0.0,0.0,0.0,0.0,0.0,0.0,0.0,0.0,0.0,0.0,0.0,0.0,0.0,0.0,0.0,0.0,0.0,0.0,0.0,0.0,0.0,0.0,0.0,-3.3332,-3.407,-3.5313,-3.5096,-3.4725,0.0,0.0,0.0,0.0,0.0,0.0,-3.7259,-3.7915,-3.8682,-3.9539,-4.0985,-4.1849,-4.2055,-4.3501,-4.4646,-4.5439,-4.6054,-4.6674,-4.7312,-4.7312,-4.6843,-4.5998,-4.5172,-4.3975,-4.2385,-3.9157,-3.7212,-3.6162,-3.5423,-3.5014,-3.4829,-3.4829,-3.525,-3.5807,0.0,0.0,0.0,0.0,0.0,0.0,0.0,0.0,0.0,0.0,0.0,-3.5979,-3.6759,-3.6884,-3.7232,-3.8057,-3.7419,-3.6914,-3.6806,-3.6022,-3.5462,-3.5308,-3.535,-3.5388,0.0,0.0,0.0,-3.7191,-3.8844,-3.9685,-3.9766,-4.1361,-4.212,-4.2218,-4.3036,-4.2471,-4.0796,-3.9143,-3.8402,-3.8227,-3.6571,0.0,0.0,0.0,0.0,0.0,0.0,0.0,0.0,0.0,0.0,0.0,0.0,0.0,0.0,0.0,0.0,0.0,0.0,0.0,0.0,0.0,0.0,0.0,0.0,0.0,0.0,0.0,0.0,0.0,0.0,0.0,0.0,0.0,0.0,0.0,0.0,0.0,0.0,-3.456,-3.5254,0.0,0.0,0.0,0.0,-3.6026,-3.7633,-3.919,-4.0497,-4.0793,-4.1566,-4.3007,-4.3876,-4.467,-4.5453,-4.6373,-4.7218,-4.8007,-4.8044,-4.8101,-4.8138,-4.8138,-4.7706,-4.6899,-4.6017,-4.5172,-4.4182,-4.1514,-3.9447,-3.7972,-3.7793,-3.7257,-3.6569,-3.6569,-3.6593,-3.6643,0.0,0.0,0.0,0.0,0.0,0.0,0.0,0.0,0.0,-3.5713,-3.5708,-3.6013,-3.6812,-3.7406,-3.8083,-3.8953,-3.8659,-3.8202,-3.7616,-3.6185,-3.5096,-3.4496,-3.4491,-3.5084,0.0,0.0,-3.766,-3.887,-4.0058,-4.0893,-4.1438,-4.2588,-4.3445,-4.3994,-4.4306,-4.4091,-4.3429,-4.1695,-4.0,-3.8441,-3.7818,-3.6376,0.0,0.0,0.0,0.0,0.0,0.0,0.0,0.0,0.0,0.0,0.0,0.0,0.0,0.0,0.0,0.0,0.0,0.0,0.0,0.0,0.0,0.0,0.0,0.0,0.0,0.0,0.0,0.0,0.0,0.0,0.0,0.0,0.0,0.0,0.0,0.0,0.0,-3.6863,-3.7701,0.0,-3.7475,-3.8358,-3.8818,-3.8504,-3.9959,-4.1317,-4.235,-4.298,-4.377,-4.4796,-4.6167,-4.7012,-4.7312,-4.8176,-4.8758,-4.9039,-4.9039,-4.9039,-4.9039,-4.9039,-4.8288,-4.6993,-4.6674,-4.5758,-4.4426,-4.346,-4.1426,-3.8868,-3.8218,-3.7445,-3.6699,-3.6699,-3.7021,-3.7466,0.0,0.0,0.0,0.0,0.0,0.0,0.0,0.0,-3.5747,-3.572,-3.5697,-3.623,-3.7624,-3.8025,-3.8779,-4.0216,-3.947,-3.8562,-3.7701,-3.5983,-3.4609,-3.3724,-3.4,-3.5046,0.0,-3.7654,-3.8731,-4.0234,-4.138,-4.2218,-4.2763,-4.362,-4.4345,-4.4933,-4.5517,-4.5615,-4.5283,-4.4423,-4.2396,-3.9708,-3.885,-3.7642,-3.6142,0.0,0.0,0.0,0.0,0.0,0.0,0.0,0.0,0.0,0.0,0.0,0.0,0.0,0.0,0.0,0.0,0.0,0.0,0.0,0.0,0.0,0.0,0.0,0.0,0.0,0.0,0.0,0.0,0.0,0.0,0.0,0.0,0.0,0.0,0.0,-3.7413,-3.8562,-3.9917,-4.0532,-3.9961,-4.0794,-4.1385,-4.1385,-4.2534,-4.3745,-4.489,-4.5453,-4.6129,-4.6955,-4.8063,-4.8626,-4.8626,-4.9208,-4.9509,-4.9509,-4.9509,-4.9509,-4.949,-4.9208,-4.8457,-4.7368,-4.6805,-4.5941,-4.4857,-4.4266,-4.2529,-4.0179,-3.9506,-3.855,-3.7503,-3.7503,-3.7838,-3.8302,0.0,0.0,0.0,0.0,0.0,0.0,0.0,-3.5704,-3.5708,-3.5695,-3.5704,-3.6657,-3.9172,-3.8702,-3.9198,-4.1699,-3.963,-3.7787,-3.6922,-3.5259,-3.3963,-3.3146,-3.4005,-3.5337,-3.7147,-3.8932,-4.0273,-4.1185,-4.2822,-4.364,-4.3659,-4.4559,-4.4972,-4.5069,-4.6764,-4.7072,-4.6336,-4.717,-4.5572,-4.2237,-3.9688,-3.9084,-3.9279,0.0,0.0,0.0,0.0,0.0,0.0,0.0,0.0,0.0,0.0,0.0,0.0,0.0,0.0,0.0,0.0,0.0,0.0,0.0,0.0,0.0,0.0,0.0,0.0,0.0,0.0,0.0,0.0,0.0,0.0,0.0,0.0,0.0,-3.4476,-3.7526,-3.9702,-3.9525,-4.1761,-4.2838,-4.1617,-4.2922,-4.408,-4.458,-4.5378,-4.6523,-4.8138,-4.8232,-4.8626,-4.9471,-4.9509,-4.9509,-4.9509,-4.9471,-4.9471,-4.9509,-4.9452,-4.9434,-4.9434,-4.8551,-4.8157,-4.8063,-4.6411,-4.5697,-4.5585,-4.3989,-4.2766,-4.1879,-4.1722,-4.0617,-3.9101,-3.9101,-3.9101,-3.9101,0.0,0.0,0.0,0.0,0.0,0.0,0.0,-3.5711,-3.5706,-3.5709,-3.5704,-3.6419,-3.8353,-3.8328,-3.874,-4.0081,-3.8392,-3.6903,-3.6071,-3.3828,-3.2706,-3.3151,0.0,-3.5969,-3.8917,-4.014,-4.1458,-4.2919,-4.4014,-4.454,-4.4579,-4.6079,-4.6784,-4.6823,-4.7949,-4.83,-4.8105,-4.8339,-4.7521,-4.5845,-4.3231,-4.0484,-3.7798,0.0,0.0,0.0,0.0,0.0,0.0,0.0,0.0,0.0,0.0,0.0,0.0,0.0,0.0,0.0,0.0,0.0,0.0,0.0,0.0,0.0,0.0,0.0,0.0,0.0,0.0,0.0,0.0,0.0,0.0,0.0,0.0,-3.8229,-3.8229,-3.9956,-4.1918,-4.3787,-4.5116,-4.5926,-4.599,-4.6843,-4.7384,-4.733,-4.8029,-4.8664,-4.9114,-4.9133,-4.9246,-4.949,-4.9509,-4.9509,-4.9509,-4.887,-4.887,-4.949,-4.8269,-4.7988,-4.8532,-4.7706,-4.7331,-4.7274,-4.6167,-4.5697,-4.5622,-4.459,-4.3272,-4.1836,-4.1161,-4.0202,-3.917,-3.9115,-3.9101,-3.9101,0.0,0.0,0.0,0.0,0.0,0.0,0.0,-3.5704,-3.5704,-3.5704,-3.5704,-3.6342,-3.8019,-3.7864,-3.816,-3.9385,-3.7599,-3.6033,-3.5206,-3.3079,-3.2419,-3.3692,0.0,-3.7099,-4.0224,-4.151,-4.2802,-4.415,-4.5027,-4.5634,-4.6004,-4.7033,-4.7696,-4.8086,-4.8923,-4.9118,-4.8826,-4.9157,-4.8612,-4.7365,-4.5845,-4.3526,-4.0721,-3.8578,-3.696,-3.5811,-3.5324,-3.5148,-3.5215,-3.5736,0.0,0.0,0.0,0.0,0.0,0.0,0.0,0.0,0.0,0.0,0.0,0.0,0.0,0.0,0.0,0.0,0.0,0.0,0.0,0.0,0.0,0.0,0.0,0.0,-3.9079,-4.1441,-4.264,-4.3499,-4.4568,-4.6005,-4.7212,-4.7991,-4.82,-4.8898,-4.9239,-4.8966,-4.934,-4.9567,-4.949,-4.9509,-4.9509,-4.9509,-4.9509,-4.9509,-4.9509,-4.8626,-4.8438,-4.8945,-4.7631,-4.7237,-4.7669,-4.6843,-4.6467,-4.643,-4.5923,-4.551,-4.5172,-4.4688,-4.3699,0.0,0.0,0.0,0.0,0.0,-3.9101,-3.9101,0.0,0.0,0.0,0.0,0.0,0.0,0.0,-3.5704,-3.5704,-3.5704,-3.5704,-3.6303,-3.7883,-3.7367,-3.7522,-3.9075,-3.6967,-3.5187,-3.4327,-3.2869,-3.2901,-3.4866,-3.6521,-3.865,-4.1322,-4.2939,-4.4169,-4.505,-4.5926,-4.6745,-4.7501,-4.7696,-4.8183,-4.8982,-4.9898,-4.9898,-4.9274,-4.9995,-4.9372,-4.791,-4.7715,-4.6956,-4.5416,-4.0818,-3.9783,-4.0403,-3.7403,-3.6276,-3.6209,-3.6304,0.0,0.0,0.0,0.0,0.0,0.0,0.0,0.0,0.0,0.0,0.0,0.0,0.0,0.0,0.0,0.0,0.0,0.0,0.0,0.0,0.0,0.0,0.0,0.0,-4.1777,-4.416,-4.6844,-4.7395,-4.7403,-4.7155,-4.8404,-4.9241,-4.9129,-4.9803,-5.0182,-5.0033,-4.9895,-4.9784,-4.9656,0.0,0.0,0.0,0.0,-4.9452,-4.9358,-4.8495,-4.8063,-4.8044,-4.7162,-4.6768,-4.6824,-4.596,-4.5604,-4.5697,-4.5697,-4.5284,-4.4632,-4.4632,-4.4144,-4.338,-4.2918,-4.1292,-3.9183,-3.9129,-3.9101,-3.9101,0.0,0.0,0.0,0.0,0.0,0.0,0.0,-3.5704,-3.5704,-3.5704,-3.5704,-3.6071,-3.7058,-3.7,-3.7038,-3.7367,-3.5723,-3.4298,-3.3498,-3.3134,-3.4342,-3.7513,-3.8692,-4.0481,-4.3056,-4.4111,-4.5089,-4.5946,-4.6823,-4.7326,-4.7521,-4.8884,-4.9605,-4.9839,-5.1398,-5.2002,-5.1885,-5.2041,-5.1495,-5.0443,-4.9099,-4.6761,-4.3991,-4.2997,-4.1071,-3.8921,-3.8941,-3.8514,-3.8021,-3.8734,-3.8994,-3.8808,-3.7475,0.0,0.0,0.0,0.0,0.0,0.0,0.0,0.0,0.0,0.0,0.0,0.0,0.0,0.0,0.0,0.0,0.0,0.0,0.0,0.0,-4.2024,-4.4066,-4.5892,-4.7727,-4.9156,-4.9937,-4.9778,-4.9498,-4.9771,-5.0947,-5.1104,-5.1355,-5.1841,-5.1124,-5.0614,-5.0482,-4.9847,-4.9509,-4.9509,-4.9509,-4.9152,-4.8457,-4.765,-4.7237,-4.7218,0.0,0.0,-4.5923,-4.5101,-4.5097,-4.5697,-4.5697,-4.5604,-4.5472,-4.5472,-4.4956,-4.398,-4.188,-4.0262,-3.9115,-3.9101,-3.9101,-3.9101,0.0,0.0,0.0,0.0,0.0,0.0,0.0,-3.5704,-3.5704,-3.5704,-3.5704,-3.5839,-3.6265,-3.5916,-3.5646,-3.5646,-3.4485,-3.3587,-3.3225,-3.4431,-3.6316,-3.8944,-4.0744,-4.2491,-4.4208,-4.5105,-4.5771,-4.6199,-4.7072,-4.7715,-4.8183,-4.941,-5.0463,-5.1339,-5.2216,-5.284,-5.3229,-5.2801,-5.2099,-5.1145,-4.9469,-4.749,-4.5406,-4.453,-4.2841,-4.0898,-4.0508,-3.9513,-3.855,-3.9437,-3.9471,-3.9159,-3.9185,-3.7731,-3.574,0.0,0.0,0.0,0.0,0.0,0.0,0.0,0.0,0.0,0.0,0.0,0.0,0.0,0.0,-3.8085,0.0,0.0,-4.2252,-4.4703,-4.642,-4.7785,-4.8711,-4.9798,-5.0353,-4.994,-4.9901,-5.0185,-5.0887,-5.0892,-5.0958,-5.122,-5.0723,-5.0335,-5.021,-4.9743,-4.9509,-4.9509,-4.9509,-4.9077,-4.8194,-4.7406,-4.6786,-4.6336,-4.5082,-4.4707,-4.5097,-4.467,-4.4707,-4.5097,-4.5097,-4.4871,-4.4458,-4.4026,-4.3328,-4.2468,-4.1603,-4.0896,-4.0305,-3.9454,-3.9129,-3.9101,0.0,0.0,0.0,0.0,0.0,0.0,0.0,0.0,-3.5704,-3.5704,-3.5704,-3.5704,-3.5704,-3.5071,-3.4529,-3.4181,-3.3528,-3.3369,0.0,-3.6094,-3.835,-4.0609,-4.2734,-4.4345,-4.5381,-4.6082,-4.6452,-4.6452,-4.7482,-4.8261,-4.8826,-4.9976,-5.1242,-5.2606,-5.2957,-5.3502,-5.4102,-5.3405,-5.2606,-5.1632,-4.9781,-4.8472,-4.746,-4.5717,-4.4409,-4.3276,-4.1604,-3.9889,-3.8527,-3.929,-3.9199,-3.9022,-4.0417,-3.9336,-3.7304,-3.6093,-3.4023,0.0,0.0,0.0,0.0,0.0,0.0,0.0,0.0,0.0,-3.7534,-3.8566,-3.999,-4.1408,-4.262,-4.404,-4.5551,-4.7151,-4.8395,-4.9303,-4.9652,-4.9959,-4.9909,-4.9332,-4.9976,-5.0498,-5.0543,-5.055,-5.0548,-5.0583,-5.0328,-5.0131,-4.9977,-4.9702,-4.9536,-4.9536,-4.9355,-4.8833,-4.7969,-4.7162,-4.6317,-4.5453,-4.4801,-4.4501,-4.4501,-4.4501,-4.4501,-4.4501,-4.4501,-4.4233,-4.3688,-4.2675,-4.1828,-4.1239,-4.1563,-4.1693,-4.1549,-4.0179,-3.9528,-3.9342,0.0,0.0,0.0,0.0,0.0,0.0,0.0,0.0,0.0,-3.5704,-3.5704,-3.5704,-3.5704,-3.5607,-3.493,-3.3378,-3.3214,-3.4184,-3.6506,-3.7658,-4.0064,-4.4147,-4.4598,-4.5517,-4.717,-4.7306,-4.7345,-4.7345,-4.8943,-4.9391,-4.8845,-5.1203,-5.2411,-5.2664,-5.4219,-5.4959,-5.5056,-5.494,-5.4414,-5.3385,-5.0872,-4.9348,-4.8359,-4.6625,-4.4939,-4.3276,-4.1593,-3.9913,-3.8507,-3.8618,-3.9139,-3.9783,-3.9974,-3.9306,-3.7974,-3.5553,0.0,-3.2246,-3.2928,-3.3749,0.0,-3.5368,-3.5719,-3.7027,0.0,0.0,-4.2137,-4.3723,-4.4812,-4.5478,-4.5486,-4.6257,-4.7417,-4.8966,-4.935,-4.9662,-5.0287,-4.9932,-4.9461,-4.9166,-4.984,-5.0631,-5.1391,-5.1436,-5.1693,-5.2277,-5.1636,-5.1152,-5.095,-5.0147,-4.9682,-4.9682,-4.8814,-4.795,-4.7143,-4.6279,-4.5435,-4.4632,-4.4538,-4.4501,-4.4501,-4.4501,-4.4501,-4.4501,-4.4501,-4.4853,-4.5303,-4.3782,-4.3106,-4.2868,-4.146,-4.1274,-4.1754,-4.1511,-4.0919,-4.0253,0.0,0.0,0.0,0.0,0.0,0.0,0.0,0.0,0.0,0.0,-3.5704,-3.5704,-3.5704,-3.5245,-3.4234,-3.2507,-3.3311,0.0,-3.6238,-3.8552,-4.1354,-4.4754,-4.5868,-4.6995,-4.8222,-4.8261,-4.8261,-4.8261,-4.943,-4.9839,-4.9527,-5.1106,-5.2372,-5.3385,-5.4121,-5.5002,-5.5918,-5.5431,-5.4706,-5.3677,-5.1099,-4.9507,-4.8402,-4.5711,-4.3606,-4.1897,-4.0713,-3.8871,0.0,0.0,-3.7305,-3.781,-3.8822,-3.8195,-3.6769,-3.5166,-3.4187,0.0,-3.4686,0.0,0.0,0.0,-3.9019,-4.1049,-4.3216,-4.4192,-4.501,-4.6212,-4.7474,-4.8319,-4.8244,-4.8813,-4.9502,0.0,-5.0125,-5.0153,-5.0558,-4.9836,-4.9074,-4.8525,-4.8687,-4.9194,-5.0054,-5.0149,-5.045,-5.1211,-5.0869,-5.0615,-5.0531,-5.0074,-4.9547,-4.8956,-4.8541,-4.7644,-4.6261,-4.5885,-4.5303,-4.4501,-4.4501,-4.4501,-4.4501,-4.4501,-4.4252,-4.3801,-4.3801,-4.3707,-4.345,-4.2318,-4.1849,-4.1773,-4.1079,-4.122,-4.1781,-4.1264,-4.1073,-4.1033,0.0,0.0,0.0,0.0,0.0,0.0,0.0,0.0,0.0,0.0,-3.5704,-3.5704,-3.5704,-3.4916,-3.3891,-3.2628,-3.3475,0.0,0.0,-3.8469,-4.1252,-4.4409,-4.5951,-4.7396,-4.8768,-4.9021,-4.9021,-4.8806,-4.9859,-5.0112,-4.9683,-5.0794,-5.2099,-5.3541,-5.3541,-5.4379,-5.5743,-5.5119,-5.4199,-5.2999,-5.0926,-4.9103,-4.7317,-4.4438,-4.1924,-3.9852,-3.9041,-3.723,-3.5184,-3.5019,-3.5096,-3.5545,-3.7047,-3.6655,-3.5562,-3.5171,-3.5051,-3.5202,-3.5821,0.0,0.0,-4.0036,-4.2767,-4.5168,-4.5402,-4.6632,-4.7822,-4.8211,-4.9165,-4.9847,-4.959,-4.986,-5.0194,-5.0381,-5.0269,-5.0181,-5.024,-4.9218,-4.8156,-4.7357,-4.6757,-4.6844,-4.7963,-4.8468,-4.9079,-4.9901,-4.9875,-4.991,-5.0139,-4.9803,-4.9267,-4.8534,-4.7998,-4.7071,-4.5768,-4.5486,-4.5078,-4.4501,-4.4501,-4.4501,-4.4501,-4.4501,-4.4177,-4.3632,-4.3632,-4.3163,-4.2286,-4.1473,-4.1004,-4.0778,-4.0553,-4.1059,-4.1817,-4.1183,-4.1241,-4.1541,0.0,0.0,0.0,0.0,0.0,0.0,0.0,0.0,0.0,0.0,0.0,0.0,0.0,0.0,-3.4374,-3.4336,0.0,0.0,0.0,-3.7126,-3.9135,-4.3455,-4.4433,-4.6103,-4.8748,-4.9566,-4.9586,-4.8806,-5.0443,-5.0424,-4.8865,-5.0521,-5.1787,-5.2645,-5.2645,-5.3132,-5.3989,-5.3946,-5.2957,-5.1304,-5.0458,-4.8028,-4.4738,-4.3071,-4.0303,-3.7217,-3.6404,-3.498,-3.3359,-3.2578,-3.2832,-3.3633,-3.4531,-3.4785,0.0,-3.5721,-3.5952,-3.5965,0.0,0.0,-4.1597,-4.4172,-4.6749,-4.8876,-4.9714,-5.0594,-5.1004,-5.0182,-5.0006,-4.9718,-4.8814,-4.8549,-4.8684,-4.9343,-4.9484,-4.9442,-4.9175,-4.7836,-4.6503,-4.55,-4.395,-4.3596,0.0,-4.6901,-4.82,-4.9071,-4.9137,-4.948,-5.0252,-4.937,-4.882,-4.8789,-4.6953,-4.5957,-4.59,-4.4997,-4.4519,-4.4501,-4.4501,-4.4501,-4.4501,-4.4501,-4.4482,-4.4463,-4.4463,-4.4008,-4.3182,-4.2323,-4.1498,-4.0722,-3.9946,-4.0552,-4.1892,-4.1873,-4.1791,-4.1688,0.0,0.0,0.0,0.0,0.0,0.0,0.0,0.0,0.0,0.0,0.0,0.0,0.0,0.0,0.0,0.0,0.0,0.0,0.0,-3.64,-3.8212,-4.091,-4.2934,-4.4974,-4.7033,-4.791,-4.8495,-4.8806,-4.9352,-4.9352,-4.8806,-4.9372,-5.0073,-5.0872,-5.0872,-5.169,-5.2995,-5.243,-5.1845,-5.1079,-4.8539,-4.6481,-4.4492,-4.0527,-3.793,-3.6149,0.0,-3.3105,-3.2461,-3.1621,-3.1523,-3.1797,-3.209,-3.2187,-3.2675,-3.5252,-3.5992,-3.6749,-4.0181,0.0,-4.5168,-4.7742,-4.9891,-5.1629,-5.2487,-5.2468,-5.1837,-5.0344,-4.8608,-4.6887,-4.5368,-4.5007,-4.5422,-4.6854,-4.7921,-4.8748,-4.929,-4.8759,-4.7359,-4.4743,-4.4914,0.0,0.0,0.0,0.0,-4.8124,-4.8774,-4.8965,-4.8659,-4.8873,-4.8452,-4.7253,-4.6493,-4.5785,-4.5108,-4.4696,-4.4501,-4.4501,-4.4501,-4.4501,-4.4501,-4.4501,-4.4501,-4.4501,-4.4501,-4.435,-4.4045,-4.32,-4.2374,-4.1516,-4.0703,-4.0709,-4.1228,-4.1718,-4.1838,-4.1833,0.0,0.0,0.0,0.0,0.0,0.0,0.0,0.0,0.0,0.0,0.0,0.0,0.0,0.0,0.0,0.0,0.0,0.0,0.0,0.0,-3.6085,-3.8187,-4.017,-4.2077,-4.3849,-4.4736,-4.5305,-4.5558,-4.6173,-4.6332,-4.6059,-4.6332,-4.6917,-4.7696,-4.7384,-4.8034,-4.9354,-4.8789,-4.8209,-4.7444,-4.4928,-4.2866,-4.0896,-3.6932,-3.492,0.0,-3.1621,-3.1211,-3.1641,-3.1094,-3.0898,-3.0957,-3.1269,-3.2207,-3.3555,-3.5448,-3.7085,-3.921,-4.3462,-4.611,-4.8349,-5.1238,-5.3034,-5.4088,-5.401,-5.3073,-5.1466,-4.8764,-4.6287,-4.3986,-4.1995,-4.1737,-4.2428,-4.4242,-4.58,-4.7177,-4.8343,-4.8087,-4.6942,-4.4723,-4.4895,-4.4437,0.0,0.0,0.0,-4.6806,-4.7685,-4.8067,-4.7807,-4.8048,-4.7632,-4.6466,-4.6026,-4.5476,-4.4789,-4.4632,-4.4556,-4.4501,-4.4501,-4.4501,-4.4501,-4.4501,-4.4501,-4.4501,-4.4501,-4.4332,-4.4026,-4.3501,-4.2787,-4.1929,-4.1116,-4.0985,-4.1291,-4.1758,-4.1879,-4.1941,0.0,0.0,0.0,0.0,0.0,0.0,0.0,0.0,0.0,0.0,0.0,0.0,0.0,0.0,0.0,0.0,0.0,0.0,0.0,0.0,0.0,-3.5456,-3.6411,-3.77,-3.9457,-4.035,-4.0423,-3.9625,-4.1289,-4.1711,-4.0971,-4.175,-4.2549,-4.3309,-4.2471,-4.2593,-4.3407,-4.3368,-4.2426,-4.0885,-3.9919,-3.7577,-3.4431,-3.2695,-3.1562,-3.0684,-2.9023,-2.9492,-3.0898,-3.0898,0.0,0.0,-3.2129,-3.4687,-3.7246,-3.6581,-3.937,-4.3252,-4.5902,-4.8491,-5.1236,-5.4537,-5.5942,-5.6098,-5.4381,-5.2585,-5.0067,-4.5808,-4.3296,-4.1136,0.0,0.0,-3.9841,-4.1727,-4.3408,-4.5017,-4.6561,-4.6127,-4.5579,0.0,0.0,0.0,0.0,0.0,0.0,-4.5239,0.0,-4.6844,-4.7635,-4.694,-4.6481,-4.6443,-4.557,-4.5045,-4.4907,-4.4757,-4.4632,-4.4501,-4.4501,-4.4501,-4.4501,-4.4501,-4.4501,-4.4501,-4.4501,-4.4083,-4.3351,-4.3313,-4.2806,-4.1986,-4.1135,-4.1272,-4.1948,-4.1986,-4.1965,-4.201,0.0,0.0,0.0,0.0,0.0,0.0,0.0,0.0,0.0,0.0,0.0,0.0,0.0,0.0,0.0,0.0,0.0,0.0,0.0,0.0,0.0,0.0,0.0,0.0,0.0,0.0,0.0,-3.8731,-3.9174,-3.9289,-3.9094,-3.9348,-3.9591,-3.9786,-3.9571,-3.9942,-4.073,-4.0079,-3.9541,-3.8982,-3.6853,-3.5097,-3.3554,-3.1854,-3.1073,-3.084,0.0,0.0,0.0,0.0,0.0,0.0,0.0,-3.6523,-3.873,-4.1053,-4.3881,-4.6981,-5.0196,-5.2962,-5.5162,-5.6059,-5.5942,-5.5337,-5.4244,-5.1648,-4.842,-4.4713,-4.1019,-3.7839,0.0,0.0,0.0,-4.0649,-4.3563,0.0,-4.7585,-4.8567,0.0,-4.6434,0.0,-4.6825,-4.5125,-4.5507,0.0,0.0,-4.6042,-4.6347,-4.5965,-4.6309,-4.6233,-4.5621,-4.5284,-4.5091,-4.5057,-4.4827,-4.4632,-4.4501,-4.4501,-4.4501,-4.4501,-4.4501,-4.4501,-4.4501,-4.4501,-4.4369,-4.4158,-4.3557,-4.3163,-4.2825,-4.136,-4.0929,-4.1191,-4.1779,-4.1965,-4.2098,0.0,0.0,0.0,0.0,0.0,0.0,0.0,0.0,0.0,0.0,0.0,0.0,0.0,0.0,0.0,0.0,0.0,0.0,0.0,0.0,0.0,0.0,0.0,0.0,0.0,0.0,0.0,0.0,0.0,0.0,-3.5596,-3.5983,-3.6197,-3.622,-3.622,-3.6506,-3.6932,-3.6069,-3.5499,0.0,0.0,-3.1933,-3.1053,-3.0116,-3.0,0.0,0.0,0.0,0.0,0.0,0.0,-3.7344,-3.8457,-4.0527,-4.3006,-4.5267,0.0,-5.0902,-5.3219,-5.5458,-5.7133,-5.7133,-5.5923,-5.4303,-5.2663,-4.9618,-4.5923,-4.17,-3.8583,0.0,0.0,0.0,0.0,0.0,0.0,0.0,-4.7167,-4.825,-4.8479,0.0,-4.8162,0.0,-4.6538,-4.6462,-4.6309,0.0,-4.5927,-4.5774,-4.5326,-4.5736,-4.5774,-4.5307,-4.5243,-4.5159,-4.5103,-4.4833,-4.4659,-4.4578,-4.4528,-4.4501,-4.4501,-4.4501,-4.4501,-4.4501,0.0,-4.4501,-4.4463,-4.4008,-4.3839,-4.3707,-4.2393,-4.1905,-4.1942,-4.2412,-4.2554,-4.2715,0.0,0.0,0.0,0.0,0.0,0.0,0.0,0.0,0.0,0.0,0.0,0.0,0.0,0.0,0.0,0.0,0.0,0.0,0.0,0.0,0.0,0.0,0.0,0.0,0.0,0.0,0.0,0.0,0.0,0.0,0.0,0.0,0.0,0.0,0.0,0.0,0.0,-3.2244,-3.1465,-3.0659,-2.99,-2.9081,-2.8319,0.0,0.0,0.0,0.0,0.0,0.0,0.0,-3.8281,-3.9726,-4.2283,-4.5407,-4.8316,-4.9359,-5.1893,-5.4568,-5.5535,-5.6957,-5.805,-5.7738,-5.5728,-5.3112,-5.0397,-4.6942,-4.2982,-3.8277,0.0,-3.4926,-3.2828,-3.3675,-3.5515,-3.7962,0.0,-4.2361,-4.6042,-4.6848,-4.7518,-4.881,-4.8479,-4.8036,-4.7807,-4.7131,-4.6615,-4.6519,-4.5755,-4.5307,-4.5307,-4.5307,-4.5307,-4.5307,-4.5307,-4.5243,-4.5103,-4.4858,-4.4738,-4.4699,-4.4578,-4.4528,-4.4501,-4.4501,-4.4501,-4.4501,-4.4501,-4.4501,-4.4482,-4.4369,-4.4388,-4.4407,-4.3501,-4.32,-4.3294,-4.3294,-4.3294,-4.3407,0.0,0.0,0.0,0.0,0.0,0.0,0.0,0.0,0.0,0.0,-3.5606,-3.5606,0.0,0.0,0.0,0.0,0.0,0.0,0.0,0.0,0.0,0.0,0.0,0.0,0.0,0.0,0.0,0.0,0.0,0.0,0.0,0.0,0.0,0.0,0.0,0.0,0.0,-3.1091,-3.0566,-2.9803,-2.9668,-2.9082,-2.8379,0.0,0.0,0.0,0.0,0.0,0.0,0.0,-4.035,-4.3261,-4.5877,-4.8552,-5.1188,-5.35,-5.5116,-5.6479,-5.8014,-5.9183,-5.9436,-5.7328,-5.4849,-5.2078,-4.8777,-4.4229,0.0,0.0,0.0,-3.3919,-3.4198,-3.5067,0.0,-3.8887,0.0,0.0,0.0,0.0,-4.8749,0.0,0.0,0.0,0.0,0.0,0.0,0.0,0.0,-4.5307,-4.5307,-4.5307,-4.5307,-4.5307,-4.5307,-4.5243,-4.5103,-4.5049,-4.4919,-4.4712,-4.4685,-4.4605,-4.4501,-4.4501,-4.4501,-4.4501,-4.4501,0.0,-4.4444,-4.3782,-4.3895,-4.435,-4.2811,-4.2675,-4.3294,-4.3294,-4.3294,-4.3407,0.0,0.0,0.0,0.0,0.0,0.0,0.0,-3.554,-3.5547,-3.5541,-3.5578,-3.5608,-3.5601,-3.5608,-3.5614,0.0,0.0,0.0,0.0,0.0,0.0,0.0,0.0,0.0,0.0,0.0,0.0,0.0,0.0,0.0,0.0,0.0,0.0,0.0,0.0,0.0,0.0,0.0,0.0,0.0,0.0,0.0,0.0,0.0,0.0,0.0,0.0,0.0,0.0,0.0,-3.9237,-4.2497,-4.689,-4.9702,-5.183,-5.3987,-5.5562,-5.6962,-5.8636,-5.9749,-5.9885,-5.7758,-5.4264,-5.0457,-4.702,0.0,0.0,0.0,-3.531,-3.4743,-3.4705,0.0,0.0,0.0,0.0,0.0,0.0,0.0,0.0,0.0,0.0,0.0,0.0,0.0,0.0,0.0,0.0,-4.5307,-4.5307,-4.5307,-4.5307,-4.5307,-4.5307,-4.5275,-4.5203,-4.5136,-4.5045,-4.4907,-4.4776,-4.4672,-4.4605,-4.4524,-4.4501,-4.4501,-4.4501,-4.4501,-4.4463,-4.4083,-4.4158,-4.4426,-4.36,-4.3619,-4.4083,-4.4083,-4.4172,-4.435,0.0,0.0,0.0,0.0,0.0,0.0,0.0,-3.5522,-3.5528,-3.5515,-3.556,-3.5584,-3.5583,-3.559,-3.559,0.0,0.0,0.0,0.0,0.0,0.0,0.0,0.0,0.0,0.0,0.0,0.0,0.0,0.0,0.0,0.0,0.0,0.0,0.0,0.0,0.0,0.0,0.0,0.0,0.0,0.0,0.0,0.0,0.0,0.0,0.0,0.0,0.0,0.0,0.0,-3.7089,-3.9704,-4.5013,-4.8606,-5.1161,-5.2716,-5.466,-5.6684,-5.8363,-5.9456,-5.9612,-5.7504,-5.3366,-4.8874,-4.5264,-4.1127,0.0,0.0,-3.5369,-3.5563,-3.5076,0.0,0.0,0.0,0.0,0.0,0.0,0.0,0.0,0.0,0.0,0.0,0.0,0.0,0.0,0.0,0.0,0.0,-4.5307,-4.5307,-4.5307,-4.5307,-4.5307,-4.5307,-4.5307,-4.5192,-4.5125,-4.5103,-4.4883,-4.4757,-4.4751,-4.4605,-4.4537,-4.4537,-4.4515,-4.4524,-4.456,-4.451,-4.4565,-4.4653,-4.4587,-4.4694,-4.4891,-4.4891,-4.5019,-4.5201,0.0,0.0,0.0,0.0,0.0,0.0,0.0,-3.559,-3.5591,-3.5585,-3.5591,-3.5585,-3.5522,-3.556,-3.559,0.0,0.0,0.0,0.0,0.0,0.0,0.0,0.0,0.0,0.0,0.0,0.0,0.0,0.0,0.0,0.0,0.0,0.0,0.0,0.0,0.0,0.0,0.0,0.0,0.0,0.0,0.0,0.0,0.0,0.0,0.0,0.0,0.0,0.0,0.0,0.0,-3.5683,-3.8611,-4.3958,-4.9301,-5.0195,0.0,0.0,-5.7465,-5.8558,-5.8441,-5.5162,-5.1609,-4.7822,-4.3606,0.0,0.0,-3.5934,-3.531,-3.5037,-3.5758,-3.5953,-3.6272,0.0,0.0,-3.9043,0.0,0.0,0.0,0.0,0.0,0.0,0.0,0.0,0.0,0.0,0.0,0.0,-4.5307,-4.5307,-4.5307,-4.5307,-4.5307,-4.5307,-4.5307,-4.5297,-4.5213,-4.5103,-4.508,-4.4991,-4.487,-4.4732,-4.4685,-4.4672,-4.4551,-4.4595,0.0,-4.4573,-4.4764,-4.5115,-4.4868,-4.4938,-4.515,-4.515,-4.518,-4.5201,0.0,0.0,0.0,0.0,0.0,0.0,-3.4764,-3.5268,-3.5598,-3.5598,-3.5596,-3.5596,-3.556,-3.5121,-3.5023,-3.5558,0.0,0.0,0.0,0.0,0.0,0.0,0.0,0.0,0.0,0.0,-3.2013,-3.2235,-3.1205,0.0,0.0,0.0,0.0,0.0,0.0,0.0,0.0,0.0,0.0,0.0,0.0,0.0,0.0,0.0,0.0,0.0,0.0,0.0,0.0,0.0,0.0,0.0,-3.3789,-3.7262,0.0,0.0,-4.875,-5.1498,-5.5261,-5.6938,-5.7016,-5.4596,-5.0614,-4.6438,-4.3142,0.0,-3.5994,-3.5999,-3.5723,-3.5582,-3.5934,-3.5992,-3.6079,-3.6345,0.0,0.0,0.0,0.0,0.0,0.0,0.0,0.0,0.0,0.0,0.0,0.0,0.0,0.0,-4.5307,-4.5307,-4.5307,-4.5307,-4.5307,-4.5307,-4.5307,-4.5307,-4.5275,-4.5213,-4.5136,-4.5061,-4.5033,-4.4917,-4.4875,-4.4875,-4.4898,-4.4969,0.0,-4.4957,-4.5038,-4.5191,-4.5085,-4.5182,-4.5381,-4.5381,-4.5454,-4.5569,0.0,0.0,0.0,0.0,0.0,-3.3756,-3.4274,-3.4875,-3.5352,-3.559,-3.5621,-3.561,-3.5604,-3.5063,-3.496,-3.559,-3.5416,0.0,0.0,0.0,0.0,0.0,0.0,0.0,0.0,0.0,-3.2016,-3.295,-3.1736,-3.1586,0.0,0.0,0.0,0.0,0.0,0.0,0.0,0.0,0.0,0.0,0.0,0.0,0.0,0.0,0.0,0.0,0.0,0.0,0.0,0.0,0.0,0.0,0.0,0.0,0.0,0.0,-4.446,-4.7675,-5.1576,-5.3817,-5.4635,-5.2897,-4.8976,-4.4919,0.0,0.0,-3.6,-3.6003,-3.6,-3.5995,-3.5992,-3.5992,-3.5985,-3.5938,0.0,-3.6384,0.0,0.0,0.0,0.0,0.0,0.0,0.0,0.0,0.0,0.0,0.0,0.0,-4.5307,-4.5307,-4.5307,-4.5307,-4.5307,-4.5307,-4.5307,-4.5307,-4.5307,-4.5297,-4.5203,-4.5159,-4.5159,-4.5113,-4.5085,-4.5096,-4.5171,-4.5244,0.0,-4.5232,-4.5264,-4.5371,-4.5304,-4.5409,-4.5594,-4.5594,-4.5673,-4.5807,0.0,0.0,0.0,0.0,0.0,0.0,-3.4222,-3.4503,-3.4802,-3.5594,-3.5702,-3.5674,-3.5616,-3.565,-3.5685,-3.5702,-3.486,0.0,0.0,0.0,0.0,0.0,0.0,0.0,0.0,0.0,-3.1249,-3.2109,-3.2166,-3.2598,-3.3379,-3.2559,-3.2187,0.0,0.0,0.0,0.0,0.0,0.0,0.0,0.0,0.0,0.0,0.0,0.0,0.0,0.0,0.0,0.0,0.0,0.0,0.0,0.0,0.0,0.0,0.0,-4.0343,-4.5236,-4.6134,-4.8862,-5.1043,-4.9286,-4.6266,-4.3265,0.0,0.0,-3.6009,-3.6005,-3.6004,-3.6002,-3.5994,-3.5992,-3.5992,-3.5992,-3.5942,0.0,0.0,0.0,0.0,0.0,0.0,0.0,0.0,0.0,0.0,0.0,0.0,0.0,-4.5307,-4.5307,-4.5307,-4.5307,-4.5307,-4.5307,-4.5307,-4.5307,-4.5307,-4.5307,-4.5297,-4.5297,-4.5307,-4.5301,-4.5302,-4.5283,-4.5226,-4.5342,0.0,-4.5313,-4.5427,-4.5766,-4.5558,-4.5618,-4.58,-4.58,-4.5807,-4.5807,0.0,0.0,0.0,0.0,0.0,0.0,0.0,-3.4147,-3.4817,-3.5658,-3.5243,-3.4879,-3.4851,-3.3845,-3.3414,-3.4011,-3.4295,0.0,0.0,0.0,0.0,0.0,0.0,0.0,0.0,0.0,-3.2118,-3.2986,-3.2461,-3.293,-3.4258,-3.2851,-3.2207,-3.2168,-3.1289,0.0,0.0,0.0,0.0,0.0,0.0,0.0,0.0,0.0,0.0,0.0,0.0,0.0,0.0,0.0,0.0,0.0,0.0,0.0,0.0,0.0,0.0,0.0,-4.204,-4.3541,-4.4223,-4.3676,-4.1862,-3.9912,-3.8764,-3.6733,-3.5288,-3.5873,-3.5537,-3.5298,-3.5896,-3.5504,-3.531,-3.5895,-3.5477,0.0,0.0,0.0,0.0,0.0,0.0,0.0,0.0,0.0,0.0,0.0,0.0,0.0,-4.5307,-4.5307,-4.5307,-4.5307,-4.5307,-4.5307,-4.5307,-4.5307,-4.5307,-4.5307,-4.54,-4.5448,-4.5438,-4.558,-4.5634,-4.5634,-4.5676,-4.5733,-4.5805,-4.57,-4.5723,-4.578,-4.573,-4.5745,-4.5807,-4.5807,-4.5807,-4.5807,0.0,0.0,0.0,0.0,0.0,0.0,0.0,-3.358,-3.4275,-3.4824,-3.4686,-3.4523,-3.4503,-3.3583,-3.3321,-3.4196,-3.4467,0.0,0.0,0.0,0.0,0.0,0.0,0.0,-3.2939,-3.2413,-3.2555,-3.3398,-3.3223,-3.3848,-3.5156,-3.3789,-3.3144,-3.3086,-3.1914,-3.1387,0.0,0.0,0.0,0.0,0.0,0.0,-3.0898,0.0,0.0,0.0,0.0,0.0,0.0,0.0,0.0,0.0,0.0,0.0,0.0,0.0,-3.2402,0.0,0.0,-3.9406,-4.0166,-4.0166,-3.8879,0.0,0.0,-3.5467,-3.4451,-3.5327,-3.5071,-3.4969,-3.5837,-3.5291,-3.4998,-3.5856,-3.5271,0.0,0.0,0.0,0.0,0.0,0.0,0.0,0.0,0.0,0.0,0.0,0.0,0.0,-4.5307,-4.5307,-4.5307,-4.5307,-4.5307,-4.5307,-4.5307,-4.535,-4.538,-4.538,-4.5513,-4.5584,-4.5584,-4.5749,-4.5847,-4.5847,-4.5918,-4.5937,0.0,-4.5906,-4.5886,-4.5847,-4.5814,-4.5807,-4.5807,-4.5807,-4.5807,-4.5807,0.0,0.0,0.0,0.0,0.0,0.0,0.0,-3.2832,-3.3338,-3.338,-3.4001,-3.4401,-3.434,-3.4394,-3.4764,-3.5566,0.0,0.0,0.0,0.0,0.0,0.0,0.0,0.0,-3.2266,-3.2285,-3.2656,-3.3398,-3.4277,-3.5156,-3.5976,-3.5117,-3.4707,-3.4629,-3.2949,-3.2168,-3.2051,-3.123,-3.0898,-3.0898,-3.0898,-3.0898,0.0,0.0,0.0,0.0,0.0,0.0,0.0,0.0,0.0,0.0,0.0,0.0,0.0,0.0,0.0,0.0,0.0,0.0,0.0,0.0,0.0,0.0,0.0,-3.4472,0.0,-3.4508,-3.4643,-3.4894,-3.5839,-3.5291,-3.4998,-3.5856,-3.533,0.0,0.0,0.0,0.0,0.0,0.0,0.0,0.0,0.0,0.0,0.0,0.0,0.0,-4.5307,-4.5307,-4.5307,-4.5298,-4.5298,-4.5317,-4.5307,-4.5429,-4.5504,-4.5504,-4.5651,-4.5715,-4.5723,-4.584,-4.5912,0.0,-4.5974,-4.5997,-4.5991,-4.5932,-4.5906,-4.59,-4.5821,-4.5807,-4.5807,-4.5807,-4.5807,-4.5807,0.0,0.0,0.0,0.0,0.0,0.0,0.0,0.0,0.0,0.0,-3.3026,-3.2751,-3.2749,-3.2751,-3.285,0.0,0.0,0.0,0.0,0.0,0.0,0.0,0.0,0.0,-3.3105,-3.3125,-3.3203,-3.3398,-3.4277,-3.5156,-3.5976,-3.5117,-3.4707,-3.4629,-3.2949,-3.1836,-3.1191,-3.0996,-3.0898,-3.0898,-3.0898,-3.0897,0.0,0.0,0.0,0.0,-3.0909,-3.0857,0.0,0.0,0.0,0.0,0.0,0.0,0.0,0.0,-3.0776,-3.0945,-3.1553,0.0,-3.2714,-3.2714,-3.289,-3.3086,0.0,0.0,0.0,0.0,0.0,-3.4171,-3.5722,-3.5291,-3.4998,-3.5856,-3.5836,0.0,0.0,0.0,0.0,0.0,0.0,0.0,0.0,0.0,0.0,0.0,0.0,-4.5307,-4.5307,-4.5307,-4.5339,-4.5448,-4.5448,-4.539,-4.5307,-4.5429,-4.5504,-4.5504,-4.5746,-4.584,-4.5866,-4.5949,-4.5989,-4.5969,-4.5986,-4.6,-4.5997,-4.598,-4.5943,-4.5893,-4.588,-4.5886,-4.586,-4.5814,-4.5807,-4.5807,0.0,0.0,0.0,0.0,0.0,0.0,0.0,0.0,0.0,0.0,0.0,0.0,0.0,0.0,0.0,0.0,0.0,0.0,0.0,0.0,0.0,0.0,0.0,-3.2754,-3.3965,-3.3594,-3.3594,-3.4004,-3.4863,-3.5547,-3.5996,-3.5527,-3.5293,-3.5215,-3.3516,-3.2051,-3.0898,-3.0898,-3.0898,-3.0898,-3.0898,0.0,0.0,0.0,0.0,0.0,-3.0856,-3.0801,0.0,-3.0757,-3.0724,-3.0712,0.0,0.0,0.0,0.0,-3.0726,-3.0742,-3.0742,-3.0829,-3.0898,-3.0898,-3.125,-3.1601,0.0,0.0,0.0,0.0,0.0,0.0,-3.5683,-3.5291,0.0,-3.5856,-3.566,0.0,0.0,0.0,0.0,0.0,0.0,0.0,0.0,0.0,0.0,0.0,0.0,-4.5197,-4.4863,-4.4806,-4.4662,-4.4402,-4.4402,-4.4741,-4.5485,-4.5627,-4.5673,-4.5692,-4.5854,-4.5949,-4.5949,-4.598,-4.6002,-4.6002,-4.6002,-4.5991,-4.5994,-4.6003,-4.5986,-4.5949,-4.5918,-4.5893,-4.5893,-4.586,-4.584,-4.5807,0.0,0.0,0.0,0.0,0.0,0.0,0.0,0.0,0.0,0.0,0.0,0.0,0.0,0.0,0.0,0.0,0.0,0.0,0.0,0.0,0.0,0.0,-3.3281,-3.3105,-3.4668,-3.3984,-3.3965,-3.4707,-3.5566,-3.5996,-3.5996,-3.5996,-3.5937,-3.5723,-3.4121,-3.2539,-3.1094,-3.0957,-3.0898,-3.0898,-3.0897,0.0,0.0,0.0,0.0,0.0,0.0,0.0,0.0,-3.0704,-3.0661,-3.0626,-3.0669,0.0,0.0,0.0,0.0,0.0,-3.0699,-3.0777,-3.0879,-3.0878,-3.0898,-3.0898,0.0,0.0,0.0,0.0,0.0,0.0,0.0,0.0,0.0,0.0,0.0,0.0,0.0,0.0,0.0,0.0,0.0,0.0,0.0,0.0,0.0,0.0,0.0,-4.4794,-4.416,-4.4068,-4.3775,-4.3153,-4.3134,-4.3851,-4.5351,-4.5595,-4.5764,-4.59,-4.5978,-4.6002,-4.6002,-4.5866,-4.5827,-4.5827,0.0,0.0,-4.5822,-4.5956,-4.6003,-4.5978,-4.5949,-4.5918,-4.5912,-4.5906,-4.5867,-4.5814,0.0,0.0,0.0,0.0,0.0,0.0,0.0,0.0,0.0,0.0,0.0,0.0,0.0,0.0,0.0,0.0,0.0,0.0,0.0,0.0,0.0,-3.5762,-3.4141,-3.3672,-3.4687,-3.457,-3.457,-3.4707,-3.5566,-3.5996,-3.5996,-3.5996,-3.5605,-3.4863,-3.3848,-3.2871,-3.1953,-3.1211,-3.0898,-3.0897,-3.0896,0.0,0.0,0.0,0.0,0.0,0.0,0.0,0.0,-3.073,-3.0698,-3.068,-3.0634,0.0,0.0,0.0,0.0,0.0,-3.0639,-3.0704,-3.0812,-3.0827,-3.0856,-3.0898,0.0,0.0,0.0,0.0,0.0,0.0,0.0,0.0,0.0,0.0,0.0,0.0,0.0,0.0,0.0,0.0,0.0,0.0,0.0,0.0,0.0,0.0,0.0,-4.3492,-4.3373,-4.3366,-4.3322,-4.3279,-4.3279,-4.3445,-4.3821,-4.4477,-4.5176,-4.59,-4.5978,-4.6002,-4.5982,-4.5297,-4.4986,-4.4986,0.0,-4.4986,-4.5045,-4.5725,-4.5991,-4.5991,-4.5983,-4.5986,-4.598,-4.5911,-4.588,-4.5886,0.0,0.0,0.0,0.0,0.0,0.0,0.0,0.0,0.0,0.0,0.0,0.0,0.0,0.0,0.0,0.0,0.0,0.0,0.0,0.0,-3.5098,-3.5957,-3.5234,-3.498,-3.5391,-3.4941,-3.4922,-3.5391,-3.5801,-3.5996,-3.5996,-3.5954,-3.5505,-3.4668,-3.3758,-3.292,-3.2148,-3.1181,-3.0808,-3.0856,0.0,0.0,0.0,0.0,0.0,0.0,0.0,0.0,0.0,0.0,-3.0723,-3.0698,-3.0658,0.0,0.0,0.0,0.0,0.0,-3.0618,-3.0664,-3.0863,-3.1333,-3.1498,-3.1678,-3.2145,0.0,0.0,0.0,0.0,0.0,0.0,0.0,0.0,0.0,0.0,0.0,0.0,0.0,0.0,0.0,0.0,0.0,0.0,0.0,0.0,0.0,0.0,0.0,-4.2687,-4.2632,-4.244,-4.2072,-4.2053,-4.2313,-4.2852,-4.3192,-4.3773,-4.4597,-4.4632,-4.4656,-4.4637,-4.4268,-4.4093,-4.4093,0.0,-4.4093,-4.4151,-4.5006,-4.5356,-4.5394,-4.5831,-4.5989,-4.5991,-4.5923,-4.5922,-4.5942,0.0,0.0,0.0,0.0,0.0,0.0,0.0,0.0,0.0,0.0,0.0,0.0,0.0,0.0,0.0,0.0,0.0,0.0,0.0,0.0,-3.5293,-3.5976,-3.5996,-3.5996,-3.5996,-3.5351,-3.5332,-3.5996,-3.5996,-3.5996,-3.5975,-3.5918,-3.5545,-3.4916,-3.3994,-3.3161,-3.2397,-3.142,-3.0927,-3.0799,0.0,0.0,0.0,0.0,0.0,0.0,0.0,0.0,0.0,0.0,0.0,0.0,0.0,0.0,0.0,-3.0634,-3.0622,-3.0614,-3.0606,-3.0648,-3.0896,-3.1781,0.0,-3.2339,-3.3197,0.0,0.0,0.0,0.0,0.0,0.0,0.0,0.0,0.0,0.0,0.0,0.0,0.0,0.0,0.0,0.0,0.0,0.0,0.0,0.0,0.0,0.0,0.0,-4.1968,-4.17,-4.14,-4.101,-4.0796,-4.111,-4.2016,-4.2007,-4.2516,-4.3514,-4.351,-4.3506,-4.3486,-4.3282,-4.3199,-4.3199,-4.3199,-4.3199,-4.3277,-4.4365,-4.4792,-4.487,-4.5691,-4.6002,-4.6021,-4.5975,-4.5974,-4.6014,0.0,0.0,0.0,0.0,0.0,0.0,0.0,0.0,0.0,0.0,0.0,0.0,0.0,0.0,0.0,0.0,0.0,0.0,0.0,0.0,-3.5937,-3.5995,-3.5995,-3.5995,-3.5995,-3.5936,-3.5936,-3.5995,-3.5995,-3.5976,-3.5917,-3.5841,-3.578,-3.5685,-3.4798,-3.3963,-3.3154,-3.2284,-3.1486,-3.0794,-3.0792,0.0,0.0,0.0,0.0,0.0,0.0,0.0,0.0,0.0,0.0,0.0,0.0,0.0,-3.0694,-3.0697,-3.0687,-3.068,-3.0614,-3.0595,-3.0833,-3.1774,0.0,0.0,-3.3193,-3.4659,0.0,0.0,0.0,0.0,0.0,0.0,0.0,0.0,0.0,0.0,0.0,0.0,0.0,0.0,0.0,0.0,0.0,0.0,0.0,0.0,0.0,0.0,-4.1186,-4.0404,-4.0276,-4.0974,-4.0211,-4.0246,-4.1189,-4.1123,-4.1926,-4.3598,-4.3533,-4.3493,-4.3473,-4.2655,-4.2291,-4.2291,-4.2291,-4.2291,-4.2427,-4.4112,-4.4792,-4.487,-4.5691,-4.6041,-4.6087,-4.6088,-4.6089,-4.6082,0.0,0.0,0.0,0.0,0.0,0.0,0.0,0.0,0.0,0.0,0.0,0.0,0.0,0.0,0.0,0.0,0.0,0.0,0.0,-3.5331,-3.5994,-3.5993,-3.5993,-3.5992,-3.6009,-3.5992,-3.5993,-3.5993,-3.5957,-3.5927,-3.5898,-3.5791,-3.5781,-3.5812,-3.4855,-3.4335,-3.4113,-3.3109,-3.2246,-3.1542,-3.154,-3.1554,0.0,0.0,0.0,0.0,0.0,0.0,0.0,0.0,-3.0774,-3.0767,-3.0767,-3.0737,-3.07,-3.0707,-3.0711,-3.0683,-3.0618,-3.0665,-3.0936,-3.1783,0.0,0.0,0.0,0.0,0.0,0.0,0.0,0.0,0.0,0.0,0.0,0.0,0.0,0.0,0.0,0.0,0.0,0.0,0.0,0.0,0.0,0.0,0.0,0.0,0.0,0.0,-3.9556,-3.9224,-3.9181,-3.9505,-3.9193,-3.9197,-3.9536,-3.9529,-3.9837,-4.0498,-4.1484,-4.1944,-4.1921,-4.1591,-4.1457,-4.1457,-4.1407,-4.1393,-4.1529,-4.3277,-4.3996,-4.4137,-4.5525,-4.6102,-4.6158,-4.6153,-4.6161,-4.6165,0.0,0.0,0.0,0.0,0.0,0.0,0.0,0.0,0.0,0.0,0.0,0.0,0.0,0.0,0.0,0.0,0.0,0.0,-3.4255,-3.5367,-3.5991,-3.6009,-3.6009,-3.6007,-3.6001,-3.6004,-3.6007,-3.6009,-3.5934,-3.5908,-3.5895,-3.579,-3.5783,-3.5847,-3.5157,-3.4777,-3.4584,-3.3841,-3.2951,-3.2023,-3.2292,-3.225,0.0,0.0,0.0,0.0,0.0,0.0,0.0,0.0,-3.0801,-3.0801,-3.0801,-3.0769,-3.0734,-3.0734,-3.0713,-3.0685,-3.0633,-3.0692,-3.0913,0.0,0.0,0.0,0.0,0.0,0.0,0.0,0.0,0.0,0.0,0.0,0.0,0.0,0.0,0.0,0.0,0.0,0.0,0.0,0.0,0.0,0.0,0.0,0.0,0.0,0.0,-3.8591,-3.8591,-3.8337,-3.8318,-3.8591,-3.8337,-3.8318,-3.8591,-3.8591,-3.8591,-3.8611,-3.9713,-4.0374,-4.0616,-4.06,-4.0735,-4.0992,-4.0943,-4.1095,-4.1442,-4.2896,-4.3847,-4.4464,-4.5667,-4.6167,-4.6198,-4.6198,-4.6209,-4.6228,0.0,0.0,0.0,0.0,0.0,0.0,0.0,0.0,0.0,0.0,0.0,0.0,0.0,0.0,0.0,0.0,0.0,0.0,-3.3393,-3.5034,-3.6009,-3.5985,-3.6004,-3.6001,-3.5992,-3.5992,-3.5996,-3.6004,-3.5929,-3.5906,-3.5908,-3.5834,-3.5795,-3.5795,-3.5795,-3.5313,-3.4501,-3.4501,-3.3529,-3.2084,-3.296,-3.2825,-3.2111,0.0,0.0,0.0,0.0,0.0,0.0,0.0,-3.0801,-3.0801,-3.0801,-3.0801,-3.0801,-3.0801,-3.0742,-3.0703,-3.0703,-3.0695,0.0,0.0,0.0,0.0,0.0,0.0,0.0,0.0,0.0,0.0,0.0,0.0,0.0,0.0,0.0,0.0,0.0,0.0,0.0,0.0,0.0,0.0,0.0,0.0,0.0,0.0,-3.8572,-3.8572,-3.8572,-3.775,-3.7672,-3.8552,-3.7731,-3.7692,-3.8572,-3.8572,-3.8572,-3.8572,-3.8572,-3.8992,-3.9787,-3.9722,-4.0156,-4.0976,-4.0976,-4.1473,-4.2347,-4.3163,-4.4562,-4.6204,-4.6204,-4.6202,-4.6191,-4.6191,-4.6245,-4.63,0.0,0.0,0.0,0.0,0.0,0.0,0.0,0.0,0.0,0.0,0.0,0.0,0.0,0.0,0.0,0.0,0.0,0.0,-3.2568,-3.4693,-3.5725,-3.5119,-3.5664,-3.5995,-3.5992,-3.6006,-3.5992,-3.5993,-3.5929,-3.5898,-3.5902,-3.5822,-3.5834,-3.5861,-3.5811,-3.5675,-3.547,-3.5434,-3.4443,-3.2979,-3.3858,-3.3706,-3.2959,0.0,0.0,0.0,0.0,0.0,0.0,0.0,0.0,0.0,-3.0801,-3.0769,-3.0737,-3.0796,-3.0742,-3.0703,-3.0703,0.0,0.0,0.0,0.0,0.0,0.0,0.0,0.0,0.0,0.0,0.0,0.0,0.0,0.0,0.0,0.0,0.0,0.0,0.0,0.0,0.0,0.0,0.0,0.0,0.0,0.0,0.0,-3.7126,-3.6774,-3.6774,-3.6539,-3.65,-3.6755,-3.6519,-3.65,-3.6774,-3.6774,-3.6774,-3.6774,-3.6774,-3.7533,-3.8953,-3.889,-3.9009,-3.9274,-3.9833,-4.0228,-4.064,-4.2713,-4.4612,-4.6209,-4.6191,-4.6229,-4.6276,-4.6276,-4.629,-4.63,0.0,0.0,0.0,0.0,0.0,0.0,0.0,0.0,0.0,0.0,0.0,0.0,0.0,0.0,0.0,0.0,0.0,0.0,0.0,-3.4414,-3.5408,-3.5213,-3.5719,-3.5996,-3.6004,-3.5992,-3.5995,-3.5996,-3.5924,-3.5896,-3.5902,-3.5853,-3.5859,-3.5901,-3.5859,-3.5853,-3.5906,-3.5866,-3.5061,-3.3896,-3.4772,-3.4597,-3.3782,0.0,0.0,0.0,0.0,0.0,0.0,0.0,0.0,0.0,-3.0801,-3.0769,-3.0742,-3.0796,-3.0769,-3.0739,-3.0739,0.0,0.0,0.0,0.0,0.0,0.0,0.0,0.0,0.0,0.0,0.0,0.0,0.0,0.0,0.0,0.0,0.0,0.0,0.0,0.0,0.0,0.0,0.0,0.0,0.0,0.0,-3.6774,-3.6305,-3.5992,-3.5992,-3.5992,-3.5992,-3.5992,-3.5992,-3.5992,-3.5992,-3.5992,-3.5992,-3.5992,-3.5992,-3.6558,-3.7575,-3.7874,-3.8194,-3.8558,-3.9387,-3.9941,-4.0427,-4.2695,-4.445,-4.5713,-4.6061,-4.6033,-4.5787,-4.5787,-4.5789,-4.5773,0.0,0.0,0.0,0.0,0.0,0.0,0.0,0.0,0.0,0.0,0.0,0.0,0.0,0.0,0.0,0.0,0.0,0.0,0.0,0.0,-3.5097,-3.5741,-3.5919,-3.6006,-3.5996,-3.5996,-3.5996,-3.5987,-3.5932,-3.5908,-3.5894,-3.5892,-3.5908,-3.5908,-3.5908,-3.585,-3.5791,-3.5869,-3.5343,-3.4567,-3.5519,-3.5382,-3.4528,-3.3787,0.0,0.0,0.0,0.0,0.0,0.0,0.0,0.0,-3.0801,-3.0801,-3.0801,-3.0801,-3.0801,-3.0801,0.0,0.0,0.0,0.0,0.0,0.0,0.0,0.0,0.0,0.0,0.0,0.0,0.0,0.0,0.0,0.0,0.0,0.0,0.0,0.0,0.0,0.0,0.0,0.0,0.0,0.0,-3.5973,-3.5895,-3.5875,-3.5875,-3.5875,-3.5875,-3.5914,-3.5992,-3.5992,-3.5992,-3.5992,-3.5992,-3.5992,-3.5992,-3.5992,-3.5992,-3.6031,-3.6813,-3.7625,-3.8434,-3.9212,-4.0156,-4.1211,-4.2802,-4.3985,-4.4863,-4.566,-4.557,-4.4994,-4.4994,-4.5059,-4.5127,0.0,0.0,0.0,0.0,0.0,0.0,0.0,0.0,0.0,0.0,0.0,0.0,0.0,0.0,0.0,0.0,0.0,0.0,0.0,0.0,-3.518,-3.4001,-3.5273,-3.5973,-3.5918,-3.5918,-3.5926,-3.5916,-3.5914,-3.5898,-3.5892,-3.5904,-3.5908,-3.5908,-3.5908,-3.5519,-3.4915,-3.5616,-3.5032,-3.3787,-3.5285,-3.5382,-3.4586,-3.4411,-3.3943,0.0,0.0,0.0,0.0,0.0,0.0,0.0,-3.0801,-3.0801,-3.0801,-3.0801,-3.0801,-3.0801,0.0,0.0,0.0,0.0,0.0,0.0,0.0,0.0,0.0,0.0,0.0,0.0,0.0,0.0,0.0,0.0,0.0,0.0,0.0,0.0,0.0,0.0,0.0,0.0,0.0,0.0,-3.5719,-3.5037,-3.4979,-3.4979,-3.4979,-3.4979,-3.5291,-3.5973,-3.5992,-3.5992,-3.5992,-3.5992,-3.5992,-3.5992,-3.5992,-3.5992,-3.6012,-3.6187,-3.671,-3.748,-3.7689,-3.9021,-4.1126,-4.1501,-4.2571,-4.3965,-4.4111,-4.4465,-4.4924,-4.4924,-4.5382,-4.6015,0.0,0.0,0.0,0.0,0.0,0.0,0.0,0.0,0.0,0.0,0.0,0.0,0.0,0.0,0.0,0.0,0.0,0.0,0.0,0.0,-3.5152,-3.4668,-3.5524,-3.5965,-3.5903,-3.5901,-3.5908,-3.5908,-3.589,-3.5899,-3.5899,-3.5899,-3.5908,-3.5908,-3.5908,-3.5421,-3.4625,-3.5071,-3.4547,-3.3475,-3.4352,-3.443,-3.3982,-3.3553,-3.3144,-3.2657,-3.1797,0.0,0.0,0.0,0.0,0.0,0.0,0.0,-3.0801,-3.0801,-3.0801,-3.0801,0.0,0.0,0.0,0.0,0.0,0.0,0.0,0.0,0.0,0.0,0.0,0.0,0.0,0.0,0.0,0.0,0.0,0.0,0.0,0.0,0.0,0.0,0.0,0.0,0.0,0.0,-3.4572,-3.4105,-3.4459,-3.4695,-3.4695,-3.4695,-3.5105,-3.5963,-3.5182,-3.5163,-3.5983,-3.5592,-3.5592,-3.6002,-3.6002,-3.5988,-3.5955,-3.5989,-3.6444,-3.72,-3.7205,-3.8456,-4.0506,-4.0936,-4.1869,-4.3028,-4.3,-4.3278,-4.3702,-4.3702,-4.4002,-4.4541,0.0,0.0,0.0,0.0,0.0,0.0,0.0,0.0,0.0,0.0,0.0,0.0,0.0,0.0,0.0,0.0,0.0,0.0,0.0,0.0,0.0,-3.5949,-3.5986,-3.5957,-3.5896,-3.5894,-3.5901,-3.5908,-3.5908,-3.5908,-3.5908,-3.5908,-3.5908,-3.5908,-3.5908,-3.5343,-3.4411,-3.4547,-3.406,-3.3183,-3.3339,-3.3397,-3.33,-3.2423,-3.2092,-3.1995,-3.1113,-3.0801,-3.0801,-3.0801,0.0,0.0,0.0,0.0,-3.0801,-3.0801,-3.0801,-3.0801,0.0,0.0,0.0,0.0,0.0,0.0,0.0,0.0,0.0,0.0,0.0,0.0,0.0,0.0,0.0,0.0,0.0,0.0,0.0,0.0,0.0,0.0,0.0,0.0,0.0,0.0,-3.3348,-3.3193,-3.384,-3.4253,-3.4253,-3.4253,-3.4721,-3.5737,-3.4389,-3.4389,-3.5972,-3.5288,-3.5289,-3.5974,-3.5976,-3.5937,-3.5885,-3.5934,-3.6422,-3.7193,-3.7193,-3.8194,-3.9852,-4.058,-4.1361,-4.2081,-4.2081,-4.213,-4.2181,-4.2181,-4.227,-4.2637,0.0,0.0,0.0,0.0,0.0,0.0,0.0,0.0,0.0,0.0,0.0,0.0,0.0,0.0,0.0,0.0,0.0,0.0,-3.2108,0.0,0.0,-3.5889,-3.5903,-3.5904,-3.5897,-3.5897,-3.5894,-3.5908,-3.5908,-3.5908,0.0,0.0,-3.5908,-3.5908,-3.5908,-3.5034,-3.3612,-3.4294,-3.3709,-3.2345,-3.3105,-3.3397,-3.33,-3.2423,-3.2092,-3.1995,-3.1113,-3.0801,-3.0801,-3.0801,-3.0801,0.0,0.0,0.0,-3.0801,-3.0801,-3.0801,0.0,0.0,0.0,0.0,0.0,0.0,0.0,0.0,0.0,0.0,0.0,0.0,0.0,0.0,0.0,0.0,0.0,0.0,0.0,0.0,0.0,0.0,0.0,0.0,0.0,0.0,0.0,-3.3095,-3.2337,-3.2377,-3.2455,-3.2455,-3.2455,-3.3197,-3.4819,-3.4643,-3.4995,-3.5991,-3.5874,-3.5859,-3.5915,-3.5858,-3.583,-3.5811,-3.5816,-3.6336,-3.7206,-3.7191,-3.8196,-3.9814,-3.9922,-4.0484,-4.1263,-4.1263,-4.1266,-4.1269,-4.1269,-4.1746,-4.2521,0.0,0.0,0.0,0.0,0.0,0.0,0.0,0.0,0.0,0.0,0.0,0.0,0.0,0.0,0.0,-3.08,-3.1598,-3.2304,-3.2805,-3.4,-3.4839,-3.5156,-3.5646,-3.5908,-3.5908,-3.5908,-3.5908,-3.5908,-3.5908,0.0,0.0,-3.6395,-3.6376,-3.5947,-3.6921,-3.6123,-3.4099,-3.445,-3.3631,-3.2092,-3.1992,-3.1934,-3.1895,-3.1525,-3.1369,-3.133,-3.0938,-3.0801,-3.0801,-3.0801,-3.0801,-3.0801,-3.0801,0.0,0.0,0.0,0.0,0.0,0.0,0.0,0.0,0.0,0.0,0.0,0.0,0.0,0.0,0.0,0.0,0.0,0.0,0.0,0.0,0.0,0.0,0.0,0.0,0.0,0.0,0.0,0.0,0.0,0.0,0.0,-3.1832,-3.1462,-3.1873,-3.2167,-3.2167,-3.2167,-3.2714,-3.3925,-3.3065,-3.3202,-3.453,-3.4062,-3.4036,-3.4441,-3.4874,-3.5067,-3.5083,-3.5589,-3.6287,-3.7141,-3.7134,-3.8153,-3.9805,-3.9805,-4.0312,-4.099,-4.0019,-3.9941,-4.037,-4.037,-4.0565,-4.1081,0.0,0.0,0.0,0.0,0.0,0.0,0.0,0.0,0.0,0.0,0.0,0.0,0.0,0.0,0.0,0.0,-3.1386,-3.2238,-3.3324,-3.4413,-3.5006,-3.4937,-3.5543,-3.5894,-3.5894,-3.5892,-3.5892,-3.5894,0.0,0.0,-3.5928,-3.6785,-3.6844,0.0,-3.7584,-3.6844,-3.4586,-3.4372,-3.3456,-3.2014,-3.1152,-3.0801,-3.0801,-3.0801,-3.0801,-3.0801,-3.0801,-3.0801,-3.0801,-3.0801,-3.0801,-3.0801,-3.0801,-3.0801,0.0,0.0,0.0,0.0,0.0,0.0,0.0,0.0,0.0,0.0,0.0,0.0,0.0,0.0,0.0,0.0,0.0,0.0,0.0,0.0,0.0,0.0,0.0,0.0,0.0,0.0,0.0,0.0,0.0,0.0,-3.0897,-3.0897,-3.1504,-3.1875,-3.1875,-3.1855,-3.2225,-3.3046,-3.1833,-3.189,-3.3355,-3.2709,-3.2678,-3.329,-3.4095,-3.4478,-3.4508,-3.5377,-3.614,-3.6767,-3.6993,-3.7991,-3.9461,-3.9676,-4.0166,-4.0659,-3.9571,-3.9415,-3.9802,-3.9763,-3.968,-3.9893,0.0,0.0,0.0,0.0,0.0,0.0,0.0,0.0,0.0,0.0,0.0,0.0,-3.0792,-3.0795,-3.0798,-3.0801,-3.0837,-3.1581,-3.3299,-3.4985,-3.5897,-3.5833,-3.5883,0.0,-3.5907,-3.5897,-3.5897,-3.5907,0.0,0.0,-3.5928,-3.6785,-3.7175,-3.7136,-3.7233,-3.6279,-3.4547,0.0,0.0,0.0,0.0,-3.0801,-3.0801,-3.0801,-3.0801,-3.0801,-3.0801,-3.0801,-3.0801,-3.0801,-3.0801,-3.0801,-3.0801,0.0,0.0,0.0,0.0,0.0,0.0,0.0,0.0,0.0,0.0,0.0,0.0,0.0,0.0,0.0,0.0,0.0,0.0,0.0,0.0,0.0,0.0,0.0,0.0,0.0,0.0,0.0,0.0,0.0,0.0,0.0,-3.0897,-3.0898,-3.0937,-3.0976,-3.0976,-3.0911,-3.1271,-3.2131,-3.2028,-3.2381,-3.3299,-3.32,-3.3156,-3.3211,-3.4013,-3.4404,-3.4424,-3.5308,-3.5727,-3.5815,-3.6714,-3.7619,-3.8532,-3.9349,-3.9779,-3.9941,-4.0679,-4.0487,-3.9776,-3.966,-3.9606,-3.9723,0.0,0.0,0.0,0.0,0.0,0.0,0.0,0.0,0.0,0.0,0.0,0.0,0.0,-3.2127,-3.2246,-3.168,-3.2159,-3.2723,-3.3368,-3.5028,-3.5747,-3.5156,-3.5665,-3.596,-3.596,-3.5955,-3.5931,0.0,0.0,-3.5897,-3.5928,-3.6785,-3.6902,-3.6415,-3.7545,-3.7389,-3.6181,-3.4761,0.0,0.0,0.0,0.0,0.0,0.0,0.0,0.0,0.0,0.0,0.0,0.0,0.0,0.0,0.0,0.0,0.0,0.0,0.0,0.0,0.0,0.0,0.0,0.0,0.0,0.0,0.0,0.0,0.0,0.0,0.0,0.0,0.0,0.0,0.0,0.0,0.0,0.0,0.0,0.0,0.0,0.0,0.0,0.0,0.0,0.0,-3.0774,-3.0771,-3.0771,-3.0771,-3.0771,-3.0758,-3.0888,-3.1182,-3.1187,-3.1281,-3.1556,-3.1547,-3.1523,-3.1547,-3.2919,-3.3576,-3.3615,-3.5046,-3.5695,-3.5716,-3.6066,-3.6726,-3.763,-3.847,-3.909,-3.9568,-3.9893,-3.9791,-3.9464,-3.9439,-3.9386,-3.9457,0.0,0.0,0.0,0.0,0.0,0.0,0.0,0.0,0.0,-3.1247,0.0,0.0,0.0,0.0,-3.3161,-3.2595,-3.3324,-3.3835,-3.3848,-3.5194,-3.5738,-3.5166,-3.5695,-3.599,-3.599,-3.6007,-3.5984,-3.5921,-3.5936,0.0,0.0,-3.6482,-3.6459,-3.5947,-3.6805,-3.7038,0.0,0.0,0.0,-3.3242,0.0,0.0,-3.0801,0.0,0.0,0.0,0.0,0.0,0.0,0.0,0.0,0.0,0.0,0.0,0.0,0.0,0.0,0.0,0.0,0.0,0.0,0.0,0.0,0.0,0.0,0.0,0.0,0.0,0.0,0.0,0.0,0.0,0.0,0.0,0.0,0.0,0.0,0.0,0.0,0.0,0.0,0.0,0.0,0.0,-3.0709,-3.0709,-3.0709,0.0,-3.0709,-3.0672,-3.0673,-3.0671,-3.0668,-3.0646,-3.0595,-3.0595,-3.0602,-3.0617,-3.2295,-3.3107,-3.3165,-3.4911,-3.5704,-3.5704,-3.5656,-3.5991,-3.6634,-3.7453,-3.8246,-3.8953,-3.9237,-3.9477,-3.9701,-3.9646,-3.96,-3.9645,0.0,0.0,0.0,0.0,0.0,0.0,0.0,0.0,-3.2106,-3.2135,0.0,0.0,0.0,0.0,0.0,-3.3474,-3.4237,-3.4703,-3.4734,-3.5521,-3.6004,-3.6007,-3.5995,-3.6001,-3.6001,-3.5992,-3.599,-3.5999,-3.599,-3.5979,-3.5909,-3.5909,-3.5883,-3.5811,-3.4973,-3.5051,-3.5713,0.0,-3.3358,-3.3203,0.0,-3.0801,-3.0801,0.0,0.0,0.0,-3.0801,-3.0801,0.0,-3.0801,0.0,0.0,0.0,0.0,0.0,0.0,0.0,0.0,0.0,0.0,0.0,0.0,0.0,0.0,0.0,0.0,0.0,0.0,0.0,0.0,0.0,0.0,0.0,0.0,0.0,0.0,0.0,0.0,0.0,0.0,0.0,0.0,0.0,0.0,-3.0704,-3.0684,-3.0684,-3.0684,-3.0684,-3.063,-3.0591,-3.0598,-3.0598,-3.0598,-3.0598,-3.0598,-3.0598,-3.0617,-3.2275,-3.3088,-3.3165,-3.4867,-3.5665,-3.5698,-3.5547,-3.5502,-3.555,-3.6431,-3.7243,-3.8035,-3.8871,-3.972,-4.0444,-4.0321,-4.03,-4.0274,0.0,0.0,0.0,0.0,0.0,0.0,-3.1672,-3.1947,-3.2337,0.0,0.0,0.0,-3.4316,-3.4334,-3.4588,-3.5231,-3.492,-3.4977,-3.5599,-3.5874,-3.5991,-3.6006,-3.6007,-3.6009,-3.6009,-3.6006,-3.6004,-3.5999,-3.5997,-3.5968,-3.5909,-3.5909,-3.5551,0.0,-3.4703,-3.4411,-3.4021,-3.291,0.0,-3.2365,-3.1249,-3.0801,0.0,0.0,0.0,0.0,0.0,-3.0801,-3.0801,0.0,-3.0801,-3.0801,0.0,0.0,0.0,0.0,0.0,0.0,-3.0592,0.0,0.0,0.0,0.0,0.0,0.0,0.0,0.0,0.0,0.0,0.0,0.0,0.0,0.0,0.0,0.0,0.0,0.0,0.0,0.0,0.0,0.0,0.0,0.0,0.0,-3.061,0.0,-3.055,-3.0565,-3.0552,-3.0544,-3.0535,-3.0525,-3.0525,-3.0525,-3.0525,-3.054,-3.0525,-3.0545,-3.1647,-3.2488,-3.3121,-3.4143,-3.4962,-3.5547,-3.5416,-3.5304,-3.5289,-3.6257,-3.6734,-3.6996,-3.8412,-3.9104,-3.9337,-3.989,-4.0109,-4.0148,0.0,0.0,0.0,0.0,0.0,-3.2064,-3.2561,-3.2949,-3.3378,0.0,0.0,0.0,-3.5193,-3.5232,-3.5447,-3.5953,-3.5543,-3.5465,-3.5973,-3.5992,-3.5992,-3.5992,-3.5992,-3.5992,-3.5992,-3.6009,-3.6004,-3.5999,-3.5995,-3.5966,-3.5909,-3.5909,-3.5259,-3.4099,0.0,0.0,0.0,0.0,0.0,0.0,-3.1152,0.0,0.0,-3.0938,-3.1035,0.0,0.0,0.0,-3.086,-3.1213,-3.1349,0.0,0.0,0.0,0.0,0.0,0.0,0.0,0.0,0.0,0.0,0.0,0.0,0.0,-2.9501,-2.9334,-2.9259,0.0,0.0,0.0,0.0,0.0,0.0,0.0,0.0,0.0,0.0,0.0,0.0,0.0,0.0,0.0,0.0,-3.0598,-3.0564,-3.0515,-3.0496,-3.0505,-3.0504,-3.0504,-3.0504,-3.0504,-3.0504,-3.0504,-3.0504,-3.0495,-3.05,-3.05,-3.1298,-3.1942,-3.2476,-3.3511,-3.4268,-3.4755,-3.5012,-3.5094,-3.5072,-3.5656,-3.6058,-3.6444,-3.7757,-3.8469,-3.8864,-3.965,-3.9975,-4.0015,0.0,0.0,0.0,-3.1974,-3.2812,-3.3435,-3.3533,-3.4198,-3.4725,0.0,-3.4842,-3.5135,-3.5914,-3.5992,-3.5992,-3.5992,-3.5992,-3.5992,-3.5992,-3.5992,-3.5992,-3.5992,-3.5992,-3.5992,-3.5991,-3.598,-3.5995,-3.5997,-3.5979,-3.5926,-3.588,-3.5783,-3.49,-3.3368,0.0,0.0,0.0,0.0,0.0,-3.2034,-3.1252,-3.1349,0.0,0.0,-3.1369,-3.1858,-3.1074,-3.0801,-3.0938,-3.1819,-3.2034,0.0,0.0,0.0,0.0,0.0,-3.0653,0.0,0.0,0.0,0.0,0.0,0.0,0.0,-2.9332,-2.9128,-2.8888,-2.8096,0.0,0.0,0.0,0.0,0.0,0.0,0.0,0.0,0.0,0.0,0.0,0.0,0.0,0.0,-3.0598,-3.0593,-3.0559,-3.0496,-3.0486,-3.0495,-3.0493,-3.0493,-3.0493,-3.0493,-3.0493,-3.0493,-3.0493,-3.0463,-3.0463,-3.0477,-3.1066,-3.1384,-3.1518,-3.2912,-3.36,-3.3733,-3.4518,-3.486,-3.4879,-3.487,-3.5343,-3.6149,-3.7059,-3.7874,-3.8671,-3.9559,-3.99,-3.99,0.0,0.0,-3.192,-3.2071,-3.2812,-3.363,-3.4334,-3.4588,-3.4959,-3.5641,-3.5758,-3.5817,-3.5973,-3.5992,-3.5992,-3.5992,-3.5992,-3.5992,-3.5992,-3.5992,-3.5992,-3.5992,-3.5992,-3.6009,-3.6002,-3.589,-3.5883,-3.6007,-3.5771,-3.5733,-3.5797,-3.5093,-3.4224,-3.3215,-3.2614,0.0,0.0,0.0,0.0,-3.2092,-3.1917,0.0,-3.1113,-3.1641,-3.1525,-3.1035,-3.086,-3.0801,-3.0938,-3.1819,-3.1622,-3.1152,0.0,0.0,0.0,-3.0701,0.0,0.0,0.0,0.0,0.0,0.0,0.0,0.0,-2.8368,-2.8008,-2.7778,0.0,0.0,0.0,0.0,0.0,0.0,0.0,0.0,0.0,0.0,0.0,0.0,0.0,0.0,0.0,-3.0598,-3.0559,-3.0515,-3.049,-3.0442,-3.0427,-3.0421,-3.0421,-3.0421,-3.0421,-3.0421,-3.0421,-3.0421,-3.0317,-3.026,-3.026,-3.0273,-3.0624,-3.1291,-3.2165,-3.2967,-3.3658,-3.4363,-3.4649,-3.4668,-3.4658,-3.4855,-3.5306,-3.6803,-3.7495,-3.7837,-3.9332,-3.99,-3.99,0.0,0.0,-3.29,-3.3322,-3.3768,-3.4334,-3.5213,-3.5349,-3.5504,-3.5934,-3.5992,-3.5992,-3.5992,-3.5992,-3.5992,-3.5992,-3.5992,-3.5992,-3.5992,-3.5992,-3.5992,-3.5992,-3.5976,-3.5942,-3.5958,-3.5827,-3.5772,-3.5859,-3.5674,-3.5403,-3.5042,-3.4664,-3.3782,-3.2495,-3.2227,0.0,0.0,0.0,-3.1055,-3.1447,-3.1447,0.0,-3.2655,-3.2248,-3.2092,-3.2031,-3.1602,-3.1447,-3.1583,-3.2443,-3.2462,0.0,0.0,-3.2087,-3.1329,0.0,-3.0844,-3.0439,0.0,0.0,0.0,-3.0292,0.0,0.0,0.0,-2.835,-2.812,0.0,0.0,0.0,0.0,0.0,0.0,0.0,0.0,0.0,0.0,0.0,0.0,0.0,0.0,0.0,-3.0559,-3.0525,-3.05,-3.0444,-3.0414,-3.0404,-3.0404,-3.0404,-3.0355,-3.0254,-3.0248,-3.0221,-3.0147,-3.0078,-3.0049,-3.0049,-2.9883,-3.0017,-3.0433,-3.1553,-3.2299,-3.2779,-3.3974,-3.4495,-3.4506,-3.4561,-3.4658,-3.4864,-3.6119,-3.6642,-3.6902,-3.8585,-3.9242,-3.934,-3.191,0.0,0.0,-3.4337,-3.4588,-3.4998,-3.5875,-3.5992,-3.5992,-3.5992,-3.6123,-3.6215,-3.6215,-3.621,-3.6263,-3.6436,-3.6153,-3.6041,-3.6196,-3.6061,-3.5983,-3.5983,-3.5902,-3.5849,-3.5866,-3.5735,-3.5664,-3.5679,-3.5416,-3.4938,-3.4257,-3.4056,-3.3266,-3.2024,-3.2043,0.0,0.0,0.0,0.0,-3.1504,0.0,-3.2411,-3.4002,-3.2969,-3.2813,-3.3066,-3.2345,-3.2209,-3.2482,-3.3339,-3.3529,-3.3401,-3.3508,-3.2806,0.0,0.0,0.0,0.0,0.0,0.0,0.0,0.0,0.0,-2.9997,0.0,0.0,0.0,0.0,0.0,0.0,0.0,0.0,0.0,0.0,0.0,0.0,0.0,0.0,0.0,0.0,0.0,0.0,-3.051,-3.0486,-3.043,-3.0358,-3.0348,-3.0336,-3.0311,-3.0292,-3.0221,-3.0073,-3.0066,-3.0007,-2.9902,-2.9861,-2.9845,-2.9845,-2.9644,-2.957,-2.9617,-3.1126,-3.1794,-3.1886,-3.3627,-3.4351,-3.4363,-3.4484,-3.4495,-3.4547,-3.5443,-3.584,-3.6101,-3.7619,-3.8211,-3.8316,-3.1188,-3.2319,0.0,0.0,-3.4198,-3.4998,-3.5875,-3.5992,-3.5992,-3.5992,-3.6564,-3.6983,0.0,0.0,0.0,0.0,0.0,0.0,-3.6924,0.0,-3.5919,-3.5919,-3.5794,-3.5721,-3.5724,-3.5599,-3.556,-3.5616,-3.4647,-3.416,-3.4097,-3.2678,-3.2319,-3.2832,-3.2209,0.0,0.0,0.0,-3.3375,0.0,-3.3239,-3.2717,0.0,-3.3826,-3.3456,-3.2228,-3.2131,-3.2599,-3.3378,0.0,-3.3941,-3.3446,0.0,-3.3192,-3.1724,-3.1709,0.0,0.0,0.0,0.0,0.0,0.0,-2.9956,0.0,-2.8913,0.0,-2.8495,-2.7694,0.0,0.0,0.0,0.0,0.0,0.0,0.0,0.0,0.0,0.0,0.0,0.0,0.0,-3.0579,-3.0514,-3.0444,-3.0327,-3.015,-3.0136,-3.008,-2.9958,-2.9958,-2.9942,-2.9926,-2.9926,-2.9918,-2.9902,-2.9715,-2.9616,-2.9635,-2.9501,-2.9419,-2.9475,-3.1061,-3.1794,-3.1886,-3.3515,-3.4221,-3.4221,-3.4245,-3.4136,-3.4097,-3.531,-3.5698,-3.5681,-3.6639,-3.6857,-3.6679,-3.1676,-3.2983,0.0,0.0,-3.4844,-3.552,-3.5931,-3.5992,-3.5992,-3.5992,-3.6272,0.0,0.0,0.0,0.0,0.0,0.0,-3.6804,0.0,0.0,-3.5872,-3.579,-3.5687,-3.5631,-3.564,-3.5508,-3.5431,-3.5438,-3.497,-3.4508,-3.4036,-3.3391,-3.3006,-3.2827,-3.2622,0.0,-3.3113,0.0,-3.3417,0.0,0.0,0.0,0.0,-3.4179,-3.3988,-3.3382,-3.3382,-3.3285,-3.3358,0.0,-3.4581,0.0,0.0,0.0,0.0,0.0,0.0,0.0,0.0,0.0,0.0,0.0,0.0,0.0,-2.948,0.0,-2.9309,0.0,0.0,0.0,0.0,0.0,0.0,0.0,-2.7032,0.0,0.0,0.0,0.0,0.0,0.0,0.0,-3.0099,-3.0122,-3.0066,-2.9985,-2.9977,-2.9954,-2.9902,-2.9902,-2.9853,-2.9734,-3.0177,-3.0386,-3.032,-3.0689,-3.0881,-3.0881,-3.0815,-3.079,-3.0827,-3.1979,-3.25,-3.2555,-3.3696,-3.4136,-3.4023,-3.4023,-3.3908,-3.3789,-3.431,-3.4504,-3.4559,-3.5436,-3.5732,-3.5742,-3.201,0.0,0.0,0.0,0.0,-3.5585,-3.5877,0.0,0.0,0.0,0.0,0.0,-3.7851,-3.7908,0.0,0.0,-3.8095,-3.7459,0.0,0.0,-3.6017,0.0,0.0,0.0,0.0,-3.5218,-3.5127,-3.5308,-3.4814,-3.44,-3.3995,-3.3841,-3.3529,-3.308,0.0,-3.3419,-3.3659,0.0,0.0,-3.3868,-3.4492,-3.4725,-3.4656,-3.4403,-3.4455,-3.4629,-3.4397,-3.4044,-3.3873,-3.5085,-3.5121,0.0,-3.4507,0.0,0.0,0.0,0.0,0.0,-3.0306,0.0,0.0,0.0,0.0,0.0,0.0,0.0,0.0,0.0,0.0,0.0,0.0,0.0,0.0,0.0,0.0,-2.7611,0.0,0.0,0.0,0.0,0.0,0.0,0.0,-2.9899,-2.9878,-2.9828,-2.982,-2.9803,-2.9751,-2.9751,-2.9699,-2.9551,-3.0103,-3.0482,-3.0604,-3.118,-3.1589,-3.1794,-3.1794,-3.1794,-3.1831,-3.263,-3.2966,-3.2956,-3.3771,-3.3998,-3.382,-3.382,-3.3698,-3.3488,-3.3488,-3.348,-3.3555,-3.4241,-3.4531,-3.4637,-3.1757,-3.2677,0.0,0.0,0.0,0.0,0.0,0.0,0.0,0.0,0.0,0.0,0.0,0.0,0.0,0.0,0.0,-3.8077,-3.8071,0.0,-3.6452,0.0,0.0,-3.5474,0.0,0.0,-3.451,-3.5308,-3.3605,-3.3203,-3.3975,-3.3273,-3.334,-3.4058,-3.4064,-3.4603,-3.5519,-3.5387,-3.5335,-3.5335,-3.5354,-3.5283,-3.5112,0.0,-3.4828,-3.5452,-3.4591,0.0,0.0,-3.5485,-3.5444,0.0,0.0,0.0,0.0,0.0,0.0,0.0,0.0,0.0,0.0,-2.9897,0.0,0.0,0.0,0.0,-2.9897,0.0,0.0,0.0,0.0,0.0,0.0,0.0,0.0,0.0,0.0,0.0,0.0,0.0,0.0,0.0,0.0,-2.9899,-2.982,-2.9626,-2.9617,-2.9551,-2.9419,-2.9427,-2.9417,-2.9417,-2.9425,-2.9816,-3.0586,-3.0623,-3.1032,-3.1794,-3.1794,-3.1794,-3.1831,-3.263,-3.2895,-3.2753,-3.3558,-3.3807,-3.3619,-3.3619,-3.3459,-3.322,-3.322,-3.3101,-3.2945,-3.318,-3.3152,-3.2983,0.0,0.0,0.0,0.0,0.0,0.0,0.0,-3.5678,0.0,0.0,0.0,0.0,0.0,-3.9514,-3.9793,0.0,0.0,-3.8999,-3.8901,-3.8138,0.0,0.0,0.0,-3.6005,0.0,0.0,0.0,-3.5308,-3.4711,-3.455,-3.4789,-3.4531,-3.458,-3.4829,0.0,-3.5025,0.0,0.0,0.0,0.0,0.0,-3.5326,-3.5179,0.0,-3.5088,-3.5296,-3.5001,-3.5036,0.0,-3.5184,-3.5208,-3.5147,-3.4481,-3.4124,-3.3838,-3.3116,-3.2159,-3.132,0.0,0.0,-3.0749,-3.0749,0.0,0.0,0.0,0.0,0.0,0.0,0.0,0.0,0.0,0.0,0.0,0.0,0.0,0.0,0.0,0.0,0.0,0.0,0.0,0.0,0.0,0.0,0.0,-2.9471,-2.9471,-2.946,-2.9407,-2.9396,-2.9396,-2.9396,-2.9917,-3.0326,-3.0604,-3.1663,-3.2263,-3.241,-3.3061,-3.3247,-3.2999,-3.3399,-3.3495,-3.3314,-3.3588,-3.3573,-3.3342,-3.3342,-3.319,-3.2993,-3.2993,-3.2945,-3.2916,-3.2995,-3.2945,-3.2971,-3.2193,0.0,0.0,0.0,0.0,0.0,0.0,0.0,0.0,0.0,-3.8127,0.0,-4.0276,0.0,-4.0447,0.0,-4.0182,-3.9708,-3.9311,-3.8791,0.0,-3.6723,-3.6661,0.0,0.0,0.0,0.0,0.0,0.0,-3.4952,-3.5209,-3.5209,-3.5209,-3.5209,0.0,-3.5209,-3.5218,0.0,-3.5333,0.0,0.0,-3.5289,0.0,0.0,-3.517,-3.52,0.0,-3.5129,-3.5009,-3.4669,-3.4808,-3.4939,-3.3978,-3.3982,-3.4179,-3.3502,-3.279,-3.2205,-3.2101,-3.1857,0.0,-3.1621,-3.1376,0.0,-3.1185,0.0,-2.9866,0.0,0.0,0.0,0.0,0.0,0.0,0.0,0.0,0.0,0.0,-2.9283,0.0,0.0,0.0,0.0,0.0,0.0,-2.9396,-2.9396,-2.9396,-2.9336,0.0,-2.9304,-2.9304,-2.9171,-2.9765,-3.0191,-3.039,-3.169,-3.236,-3.2433,-3.3335,-3.3639,-3.3394,-3.3518,-3.3462,-3.328,-3.328,-3.3126,-3.2878,-3.2878,-3.2816,-3.2688,-3.2688,-3.2866,-3.3113,-3.2959,-3.29,-3.3025,0.0,0.0,0.0,0.0,-3.368,0.0,0.0,0.0,-3.7326,0.0,-4.0088,-4.0982,-4.1921,-4.1916,-4.1513,-4.0765,-4.0559,-4.0189,-3.9411,-3.9258,0.0,0.0,-3.6619,-3.6201,-3.5331,0.0,0.0,0.0,0.0,-3.4445,-3.5209,-3.5209,-3.5209,-3.5209,-3.5209,0.0,-3.5209,-3.5201,-3.5201,-3.5193,-3.5198,-3.52,-3.5191,-3.5129,-3.5138,-3.5191,-3.5129,-3.5057,-3.4887,-3.4109,-3.4319,-3.4775,-3.3998,-3.4282,-3.4908,-3.4908,-3.432,-3.3695,-3.3695,-3.308,-3.2454,-3.2454,-3.1777,0.0,0.0,0.0,-2.9857,0.0,0.0,0.0,0.0,0.0,0.0,0.0,0.0,0.0,0.0,0.0,0.0,0.0,0.0,0.0,0.0,-2.9396,-2.9396,-2.9386,-2.9396,0.0,0.0,-2.9086,-2.9093,-2.87,-2.8978,-2.9423,-2.9953,-3.0698,-3.1347,-3.1887,-3.2646,-3.2975,-3.2978,-3.2993,-3.2872,-3.2685,-3.2685,-3.2537,-3.2301,-3.2301,-3.2301,-3.2301,-3.2283,-3.2757,-3.3406,-3.3095,-3.2973,-3.3062,-3.2958,-3.3307,-3.3833,0.0,-3.4487,-3.4487,0.0,0.0,0.0,0.0,-3.9112,-3.9974,-4.0819,-4.0887,-4.0788,-4.0576,-4.0519,0.0,0.0,0.0,0.0,-3.7529,-3.6929,-3.6201,-3.5331,-3.5086,-3.5067,-3.5312,0.0,0.0,-3.5209,-3.5209,-3.5209,-3.5209,0.0,0.0,-3.5201,-3.5196,-3.5181,-3.5127,-3.5172,-3.5164,-3.5129,0.0,-3.5048,-3.5057,-3.5029,-3.4992,-3.4889,-3.468,-3.4747,-3.4851,-3.4661,-3.4737,-3.4908,-3.4908,-3.432,-3.3695,-3.3695,-3.3469,-3.3214,-3.3214,-3.2966,-3.2687,0.0,0.0,0.0,0.0,0.0,0.0,0.0,0.0,0.0,0.0,0.0,0.0,0.0,0.0,0.0,-2.8597,0.0,0.0,-2.91,-2.924,-2.9262,-2.9112,-2.924,0.0,0.0,0.0,-2.8718,-2.8415,-2.8496,-2.8858,-2.9562,-3.0387,-3.1071,-3.1609,-3.2558,-3.2807,-3.2486,-3.27,-3.2635,-3.2386,-3.2386,-3.2369,-3.2301,-3.2301,-3.2301,-3.2283,-3.2073,-3.2291,-3.2794,-3.379,-3.3917,-3.3613,-3.3004,0.0,0.0,-3.4968,0.0,0.0,-3.6,-3.6404,0.0,-3.8392,-3.9304,0.0,-4.0458,-4.0843,-4.0912,-4.0535,-4.05,0.0,-3.9953,0.0,0.0,-3.733,-3.6813,-3.6146,-3.528,-3.5266,0.0,-3.5261,0.0,0.0,-3.519,-3.4456,-3.4304,0.0,0.0,-3.4113,0.0,-3.4473,-3.4821,-3.5138,-3.5129,-3.5084,0.0,-3.4992,-3.4955,-3.4955,-3.4955,-3.4936,-3.4851,-3.4491,-3.4605,-3.4832,-3.4491,-3.4624,-3.4908,-3.4908,-3.4557,-3.4178,-3.4178,-3.4081,-3.3961,-3.3869,-3.3481,-3.3079,-3.2911,-3.1846,-3.0988,0.0,-3.0398,-2.9655,0.0,0.0,0.0,0.0,0.0,0.0,0.0,0.0,0.0,0.0,-2.8347,0.0,-2.8502,-2.8779,-2.8874,-2.87,-2.8803,0.0,0.0,0.0,-2.835,-2.8047,-2.8496,-2.8858,-2.9144,-3.0282,-3.0977,-3.1161,-3.2049,-3.2351,-3.2091,-3.2231,-3.2214,-3.2073,-3.2073,-3.2002,-3.1859,-3.1859,-3.1786,-3.1674,-3.1865,-3.2295,-3.288,-3.3659,-3.3831,-3.3691,-3.3171,0.0,0.0,0.0,0.0,0.0,0.0,-3.7038,0.0,-3.9111,0.0,-4.0496,-4.0496,-4.1181,-4.1277,-4.0412,0.0,-3.9964,-3.9073,-3.8865,-3.8114,-3.6651,-3.6411,-3.5984,-3.5229,-3.5209,-3.5209,0.0,0.0,0.0,-3.4966,-3.3377,0.0,0.0,0.0,0.0,0.0,-3.3502,-3.4295,-3.5057,-3.4936,-3.4898,-3.4889,-3.4879,-3.487,-3.4851,-3.4898,-3.4908,-3.4794,-3.4093,-3.432,-3.4775,-3.4074,-3.4339,-3.4879,-3.4851,-3.4791,-3.4739,-3.4697,-3.4508,-3.4312,-3.4244,-3.3524,-3.2828,-3.2777,-3.2056,-3.1422,-3.1493,-3.0708,-2.997,-2.985,0.0,0.0,0.0,0.0,0.0,0.0,0.0,0.0,0.0,0.0,0.0,-2.7811,-2.8206,-2.8402,-2.8259,0.0,0.0,0.0,0.0,-2.7982,-2.7657,-2.865,-2.9092,-2.8887,-3.0342,-3.0976,-3.0852,-3.1489,-3.18,-3.18,-3.18,-3.1781,-3.1727,-3.1727,-3.1542,-3.122,-3.122,-3.1044,-3.081,-3.1738,-3.2442,-3.2997,-3.316,-3.3256,-3.3313,0.0,0.0,0.0,0.0,0.0,-3.7353,-3.8642,-3.8834,-3.895,-3.9265,-3.9996,-4.0496,-4.0496,-4.065,-4.0385,-3.9507,-3.9423,0.0,0.0,0.0,0.0,-3.6536,-3.5821,-3.5362,-3.5209,-3.5209,-3.5209,0.0,0.0,0.0,0.0,0.0,0.0,0.0,0.0,0.0,-3.3041,-3.3183,0.0,-3.4367,-3.4353,-3.433,-3.4356,-3.4583,-3.4647,-3.4668,-3.485,-3.4908,-3.4889,-3.4737,-3.4775,-3.487,-3.4737,-3.4794,-3.4851,-3.4561,-3.4486,-3.4409,-3.4135,-3.3512,-3.3098,-3.3674,-3.3133,-3.2602,-3.3034,-3.2506,-3.2087,-3.2529,-3.0962,-2.9749,-3.0472,0.0,0.0,0.0,0.0,0.0,0.0,0.0,0.0,0.0,0.0,-2.7642,0.0,-2.7911,0.0,0.0,0.0,0.0,0.0,0.0,-2.7657,0.0,-2.8133,-2.8827,0.0,0.0,-3.1061,-3.161,-3.1731,-3.18,-3.18,-3.18,-3.1653,-3.1389,-3.1389,-3.1198,-3.0885,-3.0885,-3.0703,-3.0509,-3.1874,-3.1966,-3.1528,-3.3282,-3.3208,-3.2312,0.0,0.0,0.0,0.0,0.0,0.0,0.0,-3.9423,-3.9643,-3.9346,-3.965,-3.9881,-3.9881,-3.9881,-3.9692,-3.925,-3.8796,-3.8142,-3.7234,-3.6788,-3.6301,-3.5701,-3.5274,-3.4982,-3.4841,-3.4841,-3.4841,-3.4841,0.0,0.0,0.0,0.0,0.0,0.0,0.0,-3.178,0.0,0.0,0.0,-3.4208,-3.4208,-3.4203,-3.4209,-3.434,-3.4386,-3.4416,-3.4491,-3.4534,-3.4567,-3.4821,-3.4908,-3.4908,-3.4908,-3.484,-3.473,-3.4639,-3.4401,-3.4031,-3.3512,-3.3256,-3.3067,-3.2903,-3.2837,-3.2853,-3.3011,-3.2768,-3.2483,-3.2309,-3.1046,-2.9862,-2.9514,-2.8842,0.0,0.0,0.0,0.0,0.0,0.0,0.0,0.0,0.0,0.0,0.0,0.0,0.0,0.0,0.0,0.0,0.0,0.0,-2.7436,0.0,0.0,0.0,-2.9506,0.0,-3.1438,-3.18,-3.18,-3.1709,-3.1542,-3.1542,-3.1353,-3.1044,-3.1044,-3.0865,-3.0555,-3.0619,-3.0461,-3.029,-3.1347,-3.1493,-3.1118,-3.1806,-3.1854,-3.171,0.0,-3.794,0.0,0.0,-3.8421,0.0,-3.8886,-3.9565,-3.991,-3.9501,-3.9362,-3.9296,-3.9254,-3.9089,-3.8908,-3.8669,-3.8027,-3.7223,-3.6307,-3.6188,-3.575,-3.485,-3.4803,-3.4723,-3.4489,-3.4508,-3.4508,0.0,0.0,0.0,0.0,0.0,0.0,0.0,0.0,0.0,0.0,0.0,-3.329,-3.4025,-3.403,-3.4036,-3.4036,-3.4099,-3.4111,-3.4124,-3.4185,-3.4166,-3.4208,-3.458,-3.4704,-3.4685,-3.4515,-3.4467,-3.4428,-3.4292,-3.39,-3.3406,-3.2801,-3.2788,-3.2748,-3.1957,-3.2316,-3.2832,-3.2679,-3.2775,-3.2668,-3.1867,-3.0939,-2.9836,-2.8463,-2.8186,0.0,0.0,0.0,0.0,0.0,0.0,0.0,0.0,0.0,0.0,-2.7039,0.0,0.0,0.0,0.0,0.0,-2.7299,0.0,0.0,0.0,0.0,-2.9351,-2.9247,0.0,-3.1596,-3.1596,-3.1596,-3.1447,-3.1181,-3.1142,-3.0945,-3.0642,-3.0563,-3.0438,-3.0272,-3.0362,-3.0378,-3.0377,-3.1063,-3.1252,-3.1151,-3.0867,-3.0946,-3.1383,0.0,0.0,0.0,0.0,0.0,0.0,-3.9407,-3.9607,-3.9727,-3.9908,-3.9555,-3.9254,-3.9136,-3.8469,-3.7713,-3.6913,-3.6763,-3.6252,-3.5135,-3.505,-3.4897,-3.4551,-3.454,-3.4529,-3.4508,-3.4508,-3.4508,0.0,0.0,-3.2548,0.0,0.0,0.0,0.0,0.0,0.0,0.0,-3.2269,-3.275,-3.3462,-3.3462,-3.3481,-3.3509,-3.3739,-3.3847,-3.3868,-3.4111,-3.4123,-3.4037,-3.4068,-3.408,-3.3981,-3.3299,-3.3487,-3.3776,-3.2737,-3.2397,-3.2292,-3.1897,-3.1312,-3.0767,-3.0666,-3.1237,-3.1844,-3.1829,-3.2382,-3.2668,-3.1867,-3.0529,-2.9244,-2.8356,-2.8099,-2.7996,0.0,0.0,0.0,0.0,0.0,0.0,0.0,0.0,0.0,0.0,-2.6573,0.0,0.0,-2.6607,0.0,0.0,0.0,0.0,-2.659,-2.8182,-2.8854,-2.8427,-3.0051,-3.0905,-3.0905,-3.0905,-3.0885,-3.0845,-3.0662,-3.0393,-3.0054,-2.9805,-2.9865,-3.0117,-3.0133,-3.048,-3.1079,-3.1804,-3.1694,-3.1252,-3.2524,-3.2193,-3.1324,0.0,0.0,0.0,0.0,0.0,0.0,0.0,-3.8927,-3.8651,-3.8725,-3.8742,-3.8604,-3.8191,-3.7279,-3.6605,-3.6384,-3.5761,-3.5191,-3.4693,-3.4663,-3.4559,-3.4325,-3.4314,-3.4244,-3.4087,-3.4087,-3.4062,0.0,0.0,0.0,0.0,0.0,0.0,0.0,0.0,-3.1978,-3.2262,-3.2737,-3.3103,-3.3393,-3.3393,-3.3382,-3.3298,-3.2922,-3.3027,-3.3343,-3.2994,-3.3135,-3.3458,-3.3458,-3.3675,-3.3888,-3.3586,-3.3576,-3.3501,-3.2687,-3.2219,-3.1841,-3.1351,-3.0879,-3.0618,-3.11,-3.11,-3.1225,-3.2204,-3.1936,-3.1367,-3.1046,-2.9703,-2.8458,-2.8138,-2.794,-2.7792,-2.7721,0.0,0.0,0.0,0.0,0.0,0.0,0.0,0.0,0.0,0.0,0.0,0.0,0.0,0.0,0.0,0.0,0.0,-2.6682,0.0,-2.8475,-2.8721,-2.9828,-3.0365,-3.0365,-3.0365,-3.026,-3.0086,-3.0,-2.9777,-2.9448,-2.9341,-2.9547,-2.9955,-3.0347,-3.081,-3.1343,-3.2042,-3.1727,-3.0922,-3.1516,-3.1185,-3.0504,-3.8652,0.0,-3.7969,0.0,-3.7962,-3.7668,-3.8192,-3.7816,-3.7392,-3.7081,-3.7249,-3.7288,-3.7031,-3.6108,-3.5565,-3.5693,-3.5004,-3.4518,-3.4409,-3.4409,-3.4302,-3.4061,-3.4049,0.0,-3.3753,-3.3739,-3.3712,-3.3671,-3.3109,0.0,0.0,0.0,0.0,0.0,-3.2363,-3.2603,-3.2596,-3.3158,-3.3396,-3.3367,-3.3367,-3.3192,-3.2865,-3.2288,-3.2367,-3.2685,-3.1909,-3.211,-3.2711,-3.2711,-3.281,-3.2943,-3.3195,-3.3135,-3.2839,-3.2183,-3.1562,-3.1004,-3.0564,-3.032,-3.0261,-3.0582,-3.0582,-3.0796,-3.1938,-3.1283,-3.035,-3.0089,-2.89,-2.7896,-2.7806,-2.7642,-2.7461,-2.7293,0.0,0.0,0.0,-2.6261,0.0,0.0,-2.5868,-2.5705,-2.5652,-2.5631,0.0,0.0,0.0,0.0,0.0,0.0,0.0,0.0,0.0,0.0,-2.8608,-2.9405,-2.9805,-2.9805,-2.9805,-2.9673,-2.9461,-2.9601,-2.9483,-2.9194,-2.9398,-2.9697,-3.0104,-3.0567,-3.0968,-3.1338,-3.181,-3.1494,-3.0778,-3.0778,-3.058,-3.0293,-3.6814,-3.6721,-3.6625,-3.6389,-3.6336,-3.6317,-3.6336,-3.6336,-3.6009,-3.5151,-3.5041,-3.5248,-3.5751,-3.5098,-3.4591,-3.4537,-3.4508,-3.4409,-3.4221,-3.4209,-3.4061,0.0,0.0,-3.3671,-3.3605,-3.3605,-3.3605,-3.3605,0.0,0.0,-3.2306,0.0,-3.2614,-3.3375,-3.3375,-3.3393,-3.3393,-3.3393,-3.3367,-3.331,-3.331,-3.2793,-3.2013,-3.1995,-3.2013,-3.1905,-3.1096,-3.1254,-3.1826,-3.1826,-3.1246,-3.0701,-3.156,-3.178,-3.1561,-3.0761,-2.9993,-2.944,-2.9423,-2.9423,-2.9212,-2.8445,-2.9373,-3.0511,-3.0514,-3.0409,-3.0044,-2.9112,-2.8275,-2.7609,-2.7365,-2.7195,-2.7021,-2.6741,0.0,0.0,0.0,-2.6067,0.0,-2.5375,-2.5594,-2.5486,-2.4695,-2.5095,0.0,0.0,0.0,0.0,0.0,0.0,0.0,-2.6089,-2.7027,0.0,-2.7703,-2.8636,-2.9098,-2.9098,-2.9098,-2.9098,-2.913,-2.9577,-2.9661,-2.9443,-3.0104,-3.0502,-3.0702,-3.0702,-3.0824,-3.1014,-3.1029,-3.1029,-3.0984,-3.0984,-3.0984,-3.0984,-3.6509,-3.6454,-3.6404,-3.6313,-3.6303,-3.6303,-3.6303,-3.5807,-3.5316,-3.5041,-3.4509,-3.4228,-3.4354,-3.4178,-3.4099,0.0,-3.4049,-3.3902,0.0,-3.3793,-3.3739,-3.3647,-3.3629,-3.3615,-3.3605,-3.3605,-3.3577,-3.3534,0.0,0.0,0.0,-3.3027,-3.3003,-3.2988,-3.2925,-3.2782,-3.2518,-3.2452,-3.2587,-3.2818,-3.2818,-3.2449,-3.187,-3.187,-3.1843,-3.1691,-3.0871,-3.1088,-3.1645,-3.1109,-3.0722,-3.0547,-3.0826,-3.0901,-3.0725,-2.9976,-2.9583,-2.9405,-2.9405,-2.9012,-2.8766,-2.9569,-2.9279,-2.9065,-3.0115,-2.9691,-2.8827,-2.7979,-2.74,-2.6988,-2.6906,-2.6741,-2.659,-2.6504,-2.6174,0.0,-2.5811,0.0,-2.5301,-2.5103,-2.5477,-2.5431,-2.4677,-2.521,0.0,0.0,0.0,0.0,0.0,0.0,0.0,0.0,-2.701,0.0,-2.8177,-2.8465,-2.8636,-2.8636,-2.9078,-2.9543,-2.9993,-3.0124,-2.9986,-2.9622,-2.9834,-3.0045,-3.0226,-3.0226,-3.0525,-3.0999,-3.0999,-3.0792,-3.0523,-3.0523,-3.019,-2.9699,-3.5418,-3.5376,-3.5349,-3.5349,-3.5349,-3.5349,-3.5349,-3.4908,-3.4532,-3.4518,-3.4078,-3.3739,-3.3671,-3.3698,0.0,-3.3895,-3.3766,-3.3629,-3.3605,-3.3605,-3.3591,-3.3563,-3.3563,-3.3473,-3.3291,-3.3309,0.0,-3.3052,-3.3003,-3.2939,-3.291,-3.2896,-3.275,-3.2502,-3.2469,-3.2299,-3.2057,-3.2003,-3.2127,-3.2282,-3.2036,-3.1587,-3.1102,-3.0993,-3.0816,-3.0561,-2.9909,-3.0019,-3.0388,-2.9878,-2.9493,-2.9251,-2.9532,-2.9411,-2.9178,-2.9354,-2.9087,-2.8752,-2.8752,-2.8264,-2.7971,-2.8936,-2.8599,-2.8231,-2.9128,-2.8759,-2.7993,-2.7141,-2.6758,-2.6556,-2.6453,-2.6331,-2.619,-2.6012,-2.5738,-2.553,-2.5438,0.0,-2.4941,0.0,0.0,0.0,0.0,-2.5666,-2.5849,0.0,0.0,0.0,0.0,0.0,-2.5988,-2.668,-2.7165,-2.7719,-2.8396,-2.8658,-2.8781,-2.8796,-2.9473,-2.9909,-3.0166,-3.0411,-3.0277,-2.9841,-3.008,-3.0169,-3.0105,-3.0105,-3.0249,-3.0463,-3.0463,-3.0221,-2.9867,-2.9867,-2.9463,-2.8908,-3.3793,-3.3793,-3.3793,-3.3793,-3.3793,-3.3793,-3.3793,-3.3793,-3.3766,-3.3671,-3.3657,-3.3629,-3.353,-3.3516,-3.3516,-3.3516,0.0,0.0,-3.3545,-3.3545,-3.352,-3.3419,-3.3419,-3.3205,-3.2763,-3.2747,-3.2601,-3.2283,-3.2144,-3.2092,-3.2092,-3.2039,-3.1985,-3.1967,-3.195,-3.1932,-3.1914,-3.1914,-3.1842,-3.1683,-3.1028,-3.0419,-2.9939,-2.9677,-2.9274,-2.8813,-2.85,-2.8385,-2.8384,-2.8315,-2.7733,-2.7121,-2.7857,-2.755,-2.7203,-2.8759,-2.8491,-2.7639,-2.7639,-2.7317,-2.7001,-2.7001,-2.7467,-2.7862,-2.7655,-2.7638,-2.7434,-2.6552,-2.6366,-2.6261,-2.5992,-2.5937,-2.5791,-2.5336,-2.5256,-2.5197,-2.5005,-2.4778,-2.4916,0.0,0.0,0.0,-2.6296,-2.635,-2.6312,0.0,0.0,0.0,0.0,0.0,-2.6734,-2.7348,-2.7409,-2.7762,-2.8437,-2.9066,-2.9403,-2.9449,-3.0078,-3.0164,-2.9808,-3.0451,-3.047,-3.0044,-3.0646,-3.0643,-3.0221,-3.019,-2.9929,-2.954,-2.954,-2.9352,-2.9067,-2.9067,-2.8844,-2.8554,0.0,0.0,-3.3661,-3.3661,-3.3661,-3.3661,-3.3661,-3.3661,-3.3559,-3.3294,-3.3232,-3.3111,-3.2732,-3.2666,-3.2668,-3.2601,-3.3175,-3.3371,-3.3016,-3.2986,-3.2876,-3.2602,-3.2586,-3.2485,-3.2264,-3.2282,-3.2196,-3.2074,-3.2039,-3.2021,-3.2021,-3.2021,-3.1824,-3.1529,-3.1488,-3.1315,-3.1001,-3.0902,-3.1007,-3.1193,-3.0483,-2.9968,-2.966,-3.0162,-2.9591,-2.8584,-2.8938,-2.8715,-2.8147,-2.7465,-2.7124,-2.6954,-2.7159,-2.7074,-2.6988,-2.7385,-2.7299,-2.7098,-2.7098,-2.7018,-2.692,-2.692,-2.6976,-2.6962,-2.6739,-2.6564,-2.6354,-2.6151,-2.5936,-2.5715,-2.5508,-2.547,-2.5375,-2.5103,-2.4906,-2.4751,-2.469,-2.4958,-2.5197,0.0,-2.6279,-2.6635,-2.5932,-2.6317,-2.6275,0.0,0.0,-2.6002,-2.6002,-2.7064,-2.7516,-2.7174,-2.7675,-2.823,-2.8857,-2.9005,-2.9332,-2.985,-3.0013,-3.0284,-3.0687,-3.0879,-3.0676,-3.0216,-3.0119,-2.9822,-2.9369,-2.9117,-2.894,-2.8844,-2.8844,-2.878,-2.8716,-2.8716,-2.849,-2.821,-3.3415,-3.3368,-3.3324,-3.3124,-3.3093,-3.3093,-3.3093,-3.3093,-3.3016,-3.2813,-3.2781,-3.2668,-3.2385,-3.2351,-3.2351,-3.23,-3.27,-3.2829,-3.2584,-3.2568,-3.2468,-3.2231,-3.2214,-3.2074,-3.1789,-3.1789,-3.1696,-3.1488,-3.1451,-3.1395,-3.1395,-3.1338,-3.1203,-3.1004,-3.0962,-3.0818,-3.0609,-3.0531,-3.0434,-3.0255,-2.9554,-2.9039,-2.8784,-2.9285,-2.8676,-2.7623,-2.843,-2.8037,-2.7078,-2.6588,-2.6402,-2.6351,-2.6351,-2.6316,-2.6314,-2.6314,-2.6488,-2.6674,-2.6674,-2.6505,-2.6434,-2.6733,-2.6511,-2.6337,-2.6871,-2.6377,-2.5887,-2.6086,-2.5791,-2.5391,-2.5217,-2.5162,-2.5084,-2.4851,-2.469,-2.4678,-2.4885,-2.4986,-2.5248,-2.5857,-2.6447,-2.6663,-2.637,-2.6659,-2.6644,-2.6041,-2.6451,0.0,-2.6698,-2.7511,-2.7853,-2.7559,-2.8189,-2.8662,-2.9015,-2.9294,-2.9793,-3.0455,-3.0455,-3.0456,-3.0448,-3.0448,-3.0115,-2.9512,-2.9324,-2.9117,-2.8844,-2.8683,-2.8587,-2.8587,-2.8587,-2.849,-2.8373,-2.8373,-2.8131,-2.7848,-3.305,-3.2988,-3.2876,-3.2535,-3.2467,-3.2467,-3.2467,-3.2467,-3.2435,-3.2317,-3.23,-3.2248,-3.2144,-3.2127,-3.2092,-3.2092,-3.2074,-3.2127,-3.2196,-3.2179,-3.2109,-3.1933,-3.1915,-3.1716,-3.1302,-3.1264,-3.1123,-3.0851,-3.0733,-3.0671,-3.0671,-3.0568,-3.0506,-3.0506,-3.0506,-3.0489,-3.0468,-3.0468,-3.0055,-2.929,-2.8616,-2.806,-2.7714,-2.8037,-2.7431,-2.6551,-2.7622,-2.7156,-2.6026,-2.5893,-2.5854,-2.5828,-2.5715,-2.564,-2.5597,-2.5597,-2.5999,-2.6428,-2.6312,-2.5994,-2.5859,-2.6526,-2.6193,-2.606,-2.7353,-2.6703,-2.5879,-2.611,-2.5704,-2.5195,-2.4846,-2.4791,-2.4742,-2.4647,-2.4508,-2.4626,-2.5262,0.0,-2.5227,-2.6456,-2.6387,-2.6442,-2.696,-2.7081,-2.7114,-2.7062,-2.7257,-2.7369,-2.7369,-2.7624,-2.7853,-2.8026,-2.8618,-2.8982,-2.9013,-2.9522,-3.006,-3.0628,-3.0628,-3.0267,-2.9637,-2.9637,-2.9261,-2.8587,-2.8554,-2.8522,-2.8522,-2.8457,-2.8425,-2.8425,-2.8425,-2.8262,-2.8013,-2.7914,-2.7669,-2.7356,-3.2453,-3.2436,-3.2384,-3.2334,-3.2317,-3.2317,-3.2317,-3.2317,-3.2214,-3.186,-3.1805,-3.1694,-3.1389,-3.1274,-3.1215,-3.1215,-3.1157,-3.1276,-3.1677,-3.1714,-3.1526,-3.1098,-3.1078,-3.0998,-3.0818,-3.0695,-3.0613,-3.0568,-3.0547,-3.0531,-3.0531,-3.0506,-3.0506,-3.0506,-3.0506,-3.0464,-3.0417,-3.0417,-2.991,-2.9067,-2.8345,-2.7679,-2.7177,-2.7807,-2.7183,-2.6153,-2.7444,-2.7365,-2.6564,-2.5867,-2.6059,-2.6429,-2.5813,-2.5616,-2.5597,-2.5597,-2.6094,-2.6512,-2.5894,-2.5675,-2.5797,-2.6506,-2.643,-2.6419,-2.7256,-2.7089,-2.6541,-2.5712,-2.5461,-2.5066,-2.4022,-2.3809,-2.4027,-2.4667,-2.4071,-2.3985,-2.5439,0.0,-2.5396,-2.611,-2.6636,-2.685,-2.6628,-2.7066,-2.722,-2.6876,-2.7084,-2.7214,-2.7214,-2.7509,-2.7643,-2.7687,-2.8374,-2.8848,-2.9077,-2.8906,-2.8862,-2.8958,-2.8958,-2.8894,-2.878,-2.878,-2.8716,-2.8587,-2.8308,-2.8177,-2.8145,-2.7802,-2.7656,-2.7656,-2.7656,-2.7636,-2.7536,-2.7087,-2.6897,-2.6748,-3.2039,-3.1985,-3.1896,-3.164,-3.1601,-3.1601,-3.1545,-3.1545,-3.147,-3.1295,-3.1257,-3.1215,-3.1052,-3.0992,-3.0952,-3.0952,-3.0932,-3.0955,-3.11,-3.1179,-3.1098,-3.0794,-3.0794,-3.0733,-3.0589,-3.0531,-3.0506,-3.0506,-3.0506,-3.0506,-3.0506,-3.0464,-3.03,-3.0032,-3.0236,-3.0006,-2.9506,-2.975,-2.906,-2.7721,-2.738,-2.663,-2.5819,-2.6771,-2.6506,-2.5803,-2.7057,-2.7077,-2.6419,-2.6042,-2.5921,-2.5831,-2.5403,-2.5037,-2.4775,-2.4715,-2.527,-2.5963,-2.596,-2.5476,-2.5132,-2.5824,-2.5738,-2.5771,-2.6843,-2.6669,-2.625,-2.6024,-2.5431,-2.4707,-2.406,-2.3651,-2.3562,-2.3925,-2.36,-2.3807,-2.5227,-2.5096,-2.5363,-2.666,-2.6881,-2.6926,-2.6877,-2.7144,-2.714,-2.6775,-2.716,-2.7547,-2.7892,-2.8067,-2.827,-2.8568,-2.8616,-2.8728,-2.8812,-2.8683,-2.875,-2.9034,-2.8736,-2.8652,-2.8738,-2.8475,-2.8197,-2.8,-2.7835,-2.7769,-2.7769,-2.757,-2.7323,-2.7053,-2.7053,-2.6871,-2.6598,-2.6358,-2.6289,-2.622,-3.1582,-3.1507,-3.1411,-3.1035,-3.0992,-3.0955,-3.0912,-3.0892,-3.0892,-3.0892,-3.0892,-3.0892,-3.0892,-3.0871,-3.0851,-3.0851,-3.0814,-3.0753,-3.0651,-3.0733,-3.0753,-3.0651,-3.0651,-3.0589,-3.0485,-3.0363,-3.0284,-3.0241,-3.0118,-3.0075,-3.0075,-3.0027,-2.9793,-2.9406,-2.9705,-2.9416,-2.8677,-2.9042,-2.8153,-2.6529,-2.6529,-2.5814,-2.4875,-2.5948,-2.5951,-2.5521,-2.675,-2.6765,-2.6168,-2.6145,-2.5885,-2.5518,-2.5094,-2.463,-2.4204,-2.3967,-2.4483,-2.5269,-2.5972,-2.5446,-2.4877,-2.5542,-2.5453,-2.5492,-2.6684,-2.6477,-2.6087,-2.6258,-2.5473,-2.464,-2.425,-2.3804,-2.3572,-2.381,0.0,-2.4025,-2.5492,-2.5257,-2.5512,-2.7157,-2.7159,-2.7041,-2.7088,-2.7297,-2.7289,-2.6955,-2.7417,-2.798,-2.856,-2.8581,-2.8798,-2.9363,-2.8803,-2.8592,-2.8876,-2.8662,-2.8777,-2.9161,-2.8631,-2.8379,-2.8388,-2.782,-2.7423,-2.7142,-2.7142,-2.7142,-2.7142,-2.7142,-2.6871,-2.6508,-2.6508,-2.6255,-2.5896,-2.5744,-2.5639,-2.5534,-3.0992,-3.0955,-3.0952,-3.0912,-3.0912,-3.0912,-3.0892,-3.0892,-3.0892,-3.0892,-3.0892,-3.0892,-3.0892,-3.079,-3.0712,-3.0712,-3.0609,-3.0526,-3.0526,-3.051,-3.0526,-3.0526,-3.051,-3.0485,-3.0417,-2.9924,-2.9607,-2.9473,-2.9058,-2.8826,-2.8826,-2.8826,-2.8803,-2.8779,-2.8803,-2.8685,-2.8511,-2.8559,-2.7698,-2.6317,-2.6317,-2.5848,-2.5235,-2.6017,-2.5841,-2.5398,-2.6711,-2.6742,-2.61,-2.6039,-2.6313,-2.6462,-2.5213,-2.4788,-2.4637,-2.4067,-2.421,-2.4739,-2.5538,-2.5697,-2.5773,-2.6507,-2.6498,-2.6484,-2.7275,-2.7193,-2.6736,-2.5854,-2.5604,-2.5232,-2.4283,-2.408,-2.4362,-2.5272,0.0,0.0,-2.6931,-2.6405,-2.6175,-2.7086,-2.7502,-2.7471,-2.6799,-2.7574,-2.7965,-2.7565,-2.786,-2.8285,-2.8845,-2.8581,-2.8699,-2.9302,-2.8531,-2.8632,-2.9712,-2.8836,-2.8436,-2.8476,-2.7919,-2.7407,-2.6845,-2.6302,-2.6035,-2.6035,-2.6035,-2.6035,-2.6035,-2.6035,-2.6,-2.5965,-2.5965,-2.5931,-2.5826,-2.5252,-2.4826,-2.4456,-3.0912,-3.0892,-3.0871,-3.0794,-3.079,-3.0733,-3.0671,-3.0651,-3.0651,-3.0651,-3.0405,-3.022,-3.022,-2.9903,-2.9705,-2.9705,-2.9572,-2.9522,-2.9522,-2.9422,-2.9556,-2.993,-2.9579,-2.9377,-2.9348,-2.915,-2.9019,-2.8966,-2.8779,-2.8709,-2.8709,-2.8614,-2.84,-2.8079,-2.8336,-2.8085,-2.7458,-2.7755,-2.7139,-2.5946,-2.5488,-2.513,-2.4846,-2.5103,-2.5246,-2.5448,-2.6329,-2.6454,-2.6224,-2.6199,-2.6071,-2.5827,-2.5218,-2.4519,-2.3894,-2.3989,-2.4149,-2.448,-2.5539,-2.5421,-2.5165,-2.5824,-2.5749,-2.5693,-2.6352,-2.6431,-2.6267,-2.5865,-2.5497,-2.5105,-2.4723,-2.4345,-2.4163,-2.4322,0.0,-2.4703,-2.5702,-2.5852,-2.6258,-2.7329,-2.7571,-2.7643,-2.7596,-2.7902,-2.7959,-2.7576,-2.7339,-2.7467,-2.8058,-2.7926,-2.8082,-2.8611,-2.7698,-2.7729,-2.8879,-2.8147,-2.7781,-2.7817,-2.7264,-2.6882,-2.6671,-2.6148,-2.5711,-2.5391,-2.5391,-2.5241,-2.4991,-2.4991,-2.4951,-2.4864,-2.4309,-2.426,-2.4373,-2.3619,-2.341,-2.3497,-3.0773,-3.0651,-3.0531,-3.0426,-3.03,-3.0156,-3.0027,-3.0006,-2.9984,-2.9946,-2.9661,-2.9445,-2.9429,-2.915,-2.8982,-2.8982,-2.8889,-2.8858,-2.8858,-2.8543,-2.8654,-2.9293,-2.8904,-2.8685,-2.8638,-2.8456,-2.836,-2.8312,-2.8183,-2.81,-2.81,-2.8002,-2.778,-2.7439,-2.7705,-2.7418,-2.6738,-2.7045,-2.6601,-2.5622,-2.5117,-2.488,-2.4841,-2.4819,-2.504,-2.5483,-2.6085,-2.6158,-2.5989,-2.6162,-2.5922,-2.5497,-2.5234,-2.4402,-2.3657,-2.4216,-2.4374,-2.4599,-2.5612,-2.5408,-2.5012,-2.5502,-2.5433,-2.54,-2.5809,-2.5893,-2.5866,-2.5798,-2.5435,-2.5115,-2.502,-2.466,-2.4315,-2.4078,-2.4559,-2.5079,-2.5451,-2.6018,-2.6702,-2.7651,-2.7854,-2.7838,-2.7663,-2.7769,-2.7635,-2.7263,-2.6864,-2.7017,-2.7769,-2.7916,-2.8147,-2.849,-2.7432,-2.7225,-2.8002,-2.7471,-2.7189,-2.725,-2.6675,-2.6299,-2.6152,-2.561,-2.5177,-2.4793,-2.4544,-2.4234,-2.391,-2.363,-2.3504,-2.3398,-2.2949,-2.2965,-2.3153,-2.2685,-2.2546,-2.2609,-3.0526,-3.0113,-2.9793,-2.9793,-2.9416,-2.9051,-2.8928,-2.8904,-2.8858,-2.8709,-2.8709,-2.867,-2.8599,-2.8654,-2.8685,-2.8685,-2.8685,-2.8685,-2.8685,-2.8055,-2.7981,-2.8662,-2.8685,-2.8614,-2.8487,-2.7972,-2.7625,-2.7489,-2.7037,-2.6806,-2.6806,-2.6806,-2.6806,-2.6806,-2.6806,-2.6686,-2.651,-2.651,-2.6086,-2.5412,-2.5412,-2.5412,-2.5412,-2.5412,-2.5412,-2.5471,-2.6085,-2.5834,-2.5289,-2.5912,-2.6002,-2.5781,-2.5203,-2.4585,-2.4219,-2.4824,-2.498,-2.5107,-2.5725,-2.5702,-2.555,-2.5825,-2.5893,-2.5893,-2.5893,-2.5893,-2.5825,-2.555,-2.5494,-2.5397,-2.5061,-2.5005,-2.5005,-2.499,-2.552,-2.6117,-2.6701,-2.7253,-2.7705,-2.8032,-2.8373,-2.8085,-2.6816,-2.6994,-2.702,-2.6623,-2.66,-2.7066,-2.8119,-2.8748,-2.9081,-2.9081,-2.7996,-2.7394,-2.7394,-2.6919,-2.6708,-2.6672,-2.6142,-2.5576,-2.4969,-2.4431,-2.4189,-2.4118,-2.3281,-2.2878,-2.2797,-2.1945,-2.1607,-2.1651,-2.2098,-2.2294,-2.236,-2.2805,-2.2427,-2.1754,-2.9595,-2.9393,-2.928,-2.9166,-2.9044,-2.8912,-2.8772,-2.8772,-2.8748,-2.8709,-2.836,-2.8143,-2.8103,-2.7815,-2.7645,-2.7645,-2.756,-2.7473,-2.7382,-2.7178,-2.7167,-2.7357,-2.7382,-2.7357,-2.7321,-2.7167,-2.7063,-2.7011,-2.6884,-2.6806,-2.6806,-2.6645,-2.6578,-2.6592,-2.65,-2.642,-2.6353,-2.6353,-2.6226,-2.5999,-2.5479,-2.5497,-2.5826,-2.5307,-2.538,-2.5775,-2.5946,-2.5889,-2.5735,-2.5892,-2.5921,-2.5781,-2.5203,-2.4722,-2.436,-2.4298,-2.4069,-2.3889,-2.4308,-2.4266,-2.4323,-2.5355,-2.5439,-2.5286,-2.5286,-2.5286,-2.5258,-2.5159,-2.5159,-2.5131,-2.5005,-2.5344,-2.5426,-2.4823,-2.5559,-2.6031,-2.5605,-2.6033,-2.6451,-2.6526,-2.6641,-2.6552,-2.6186,-2.6242,-2.6236,-2.613,-2.6081,-2.6314,-2.6984,-2.7183,-2.743,-2.7765,-2.6737,-2.6205,-2.6205,-2.6083,-2.5796,-2.5421,-2.5284,-2.4759,-2.402,-2.3849,-2.3259,-2.2362,-2.2101,-2.1603,-2.0908,-2.0654,-2.0774,-2.1046,-2.0579,-2.0799,-2.1275,-2.0446,-2.0333,-2.0595,-2.909,-2.8818,-2.8591,-2.8535,-2.8343,-2.8189,-2.8042,-2.8042,-2.8002,-2.7953,-2.7655,-2.7454,-2.7454,-2.7218,-2.7026,-2.7026,-2.6963,-2.6858,-2.6686,-2.6459,-2.6406,-2.658,-2.6379,-2.6379,-2.6686,-2.6633,-2.6594,-2.6594,-2.6594,-2.6594,-2.6594,-2.6486,-2.6418,-2.6418,-2.634,-2.6138,-2.5852,-2.5852,-2.5674,-2.5384,-2.5175,-2.519,-2.5231,-2.5066,-2.5067,-2.5161,-2.5161,-2.5161,-2.5161,-2.5161,-2.5105,-2.4981,-2.4558,-2.4283,-2.4047,-2.3879,-2.3612,-2.342,-2.3638,-2.3522,-2.3551,-2.435,-2.465,-2.4679,-2.4452,-2.458,-2.4689,-2.4553,-2.4547,-2.4541,-2.4614,-2.494,-2.5021,-2.4475,-2.5171,-2.5586,-2.5062,-2.5517,-2.5896,-2.5896,-2.5896,-2.5877,-2.585,-2.5874,-2.5937,-2.6104,-2.6266,-2.6415,-2.6478,-2.6657,-2.6737,-2.6637,-2.6058,-2.5548,-2.5189,-2.52,-2.4826,-2.4107,-2.4152,-2.3671,-2.2842,-2.3194,-2.2731,-2.1605,-2.1431,-2.0917,-2.0182,-1.9625,-1.9588,-1.9807,-1.9229,-1.9335,-1.9758,-1.912,-1.9163,-1.9574,-2.8764,-2.8271,-2.7839,-2.7815,-2.7484,-2.713,-2.7003,-2.6977,-2.6951,-2.6806,-2.6779,-2.6779,-2.6806,-2.6779,-2.6727,-2.67,-2.6633,-2.6513,-2.6336,-2.581,-2.5687,-2.6111,-2.5605,-2.5618,-2.6283,-2.6258,-2.6218,-2.6218,-2.6165,-2.6138,-2.6138,-2.6138,-2.6111,-2.6111,-2.6111,-2.5729,-2.5091,-2.5091,-2.4654,-2.405,-2.4666,-2.4538,-2.4063,-2.4666,-2.4509,-2.3992,-2.3962,-2.3962,-2.3962,-2.3962,-2.3875,-2.3728,-2.3568,-2.3479,-2.345,-2.345,-2.3391,-2.3361,-2.3318,-2.3135,-2.2937,-2.2937,-2.3505,-2.3959,-2.3509,-2.38,-2.407,-2.3803,-2.376,-2.384,-2.4051,-2.4132,-2.4157,-2.4136,-2.46,-2.4966,-2.4932,-2.5453,-2.5818,-2.5818,-2.5867,-2.5851,-2.5787,-2.5797,-2.5986,-2.6472,-2.6858,-2.6897,-2.6514,-2.6857,-2.6687,-2.5831,-2.5764,-2.5307,-2.4357,-2.4306,-2.3842,-2.2988,-2.3033,-2.2619,-2.1832,-2.2593,-2.2437,-2.1528,-2.1055,-2.0638,-2.0112,-1.8764,-1.8255,-1.8256,-1.8104,-1.8052,-1.81,-1.8444,-1.8587,-1.8561,-2.7635,-2.7458,-2.7321,-2.7207,-2.7119,-2.7003,-2.6858,-2.6846,-2.6832,-2.6806,-2.6645,-2.6618,-2.6779,-2.6568,-2.6272,-2.5878,-2.5329,-2.498,-2.4952,-2.4811,-2.4782,-2.4881,-2.4667,-2.4595,-2.4766,-2.5328,-2.5605,-2.5605,-2.5106,-2.4895,-2.4881,-2.4781,-2.4723,-2.4723,-2.4582,-2.4397,-2.4253,-2.4253,-2.4166,-2.4021,-2.415,-2.4121,-2.3992,-2.4034,-2.3975,-2.3816,-2.3657,-2.3627,-2.3627,-2.3627,-2.3598,-2.3568,-2.3496,-2.3361,-2.3135,-2.2864,-2.2531,-2.2206,-2.1928,-2.1733,-2.1608,-2.1608,-2.2002,-2.2482,-2.2743,-2.2895,-2.3069,-2.3423,-2.3503,-2.3599,-2.4018,-2.4483,-2.4676,-2.426,-2.4656,-2.485,-2.4447,-2.4807,-2.511,-2.511,-2.5494,-2.5759,-2.5723,-2.5735,-2.5951,-2.6455,-2.6245,-2.6224,-2.6483,-2.6287,-2.6102,-2.5867,-2.5472,-2.4884,-2.4195,-2.344,-2.3219,-2.353,-2.3525,-2.3476,-2.3306,-2.2761,-2.1985,-2.1032,-2.0222,-1.9545,-1.8938,-1.7998,-1.777,-1.8037,-1.7704,-1.754,-1.7515,-1.718,-1.7277,-1.7497,-2.7155,-2.6974,-2.6841,-2.6777,-2.6712,-2.6647,-2.6568,-2.6568,-2.6568,-2.6568,-2.6459,-2.6338,-2.615,-2.5988,-2.566,-2.5134,-2.4726,-2.4469,-2.441,-2.4095,-2.4037,-2.4239,-2.3904,-2.3859,-2.415,-2.4253,-2.4441,-2.4739,-2.4425,-2.4268,-2.4268,-2.4179,-2.4163,-2.415,-2.4063,-2.3846,-2.3564,-2.3492,-2.3297,-2.301,-2.3255,-2.3165,-2.2919,-2.3148,-2.307,-2.2781,-2.2689,-2.2647,-2.2616,-2.2531,-2.25,-2.25,-2.2408,-2.2298,-2.2156,-2.197,-2.1765,-2.1526,-2.1336,-2.1253,-2.119,-2.119,-2.1368,-2.1639,-2.1877,-2.2299,-2.273,-2.3013,-2.3223,-2.3556,-2.4066,-2.4399,-2.4531,-2.426,-2.4634,-2.477,-2.4259,-2.4832,-2.5199,-2.4946,-2.5383,-2.573,-2.5735,-2.5774,-2.5757,-2.5683,-2.5469,-2.518,-2.4848,-2.4872,-2.4682,-2.4199,-2.4178,-2.376,-2.2948,-2.2685,-2.2625,-2.2757,-2.2563,-2.225,-2.1829,-2.1789,-2.1263,-2.0294,-1.9888,-1.9353,-1.877,-1.7729,-1.7418,-1.7566,-1.688,-1.6621,-1.6586,-1.6123,-1.5926,-1.5986,-2.691,-2.6592,-2.631,-2.631,-2.6136,-2.5988,-2.5988,-2.5988,-2.5988,-2.5988,-2.5961,-2.5797,-2.5315,-2.5106,-2.4811,-2.4326,-2.4182,-2.405,-2.3943,-2.3416,-2.3297,-2.3682,-2.3207,-2.319,-2.3682,-2.3207,-2.3237,-2.3846,-2.3728,-2.3682,-2.3682,-2.3682,-2.3682,-2.3682,-2.364,-2.3344,-2.2889,-2.2738,-2.2365,-2.1894,-2.2292,-2.2149,-2.1761,-2.223,-2.2075,-2.1667,-2.1624,-2.1604,-2.1592,-2.1411,-2.1368,-2.1368,-2.1253,-2.119,-2.119,-2.119,-2.119,-2.119,-2.119,-2.119,-2.119,-2.119,-2.119,-2.1213,-2.1305,-2.1973,-2.2592,-2.2672,-2.3052,-2.3556,-2.4108,-2.4152,-2.4091,-2.4091,-2.4374,-2.4459,-2.4152,-2.4892,-2.5335,-2.4983,-2.5315,-2.5565,-2.5606,-2.5561,-2.5306,-2.466,-2.4532,-2.4069,-2.3068,-2.3345,-2.3159,-2.2335,-2.277,-2.2529,-2.1667,-2.2048,-2.1961,-2.1441,-2.1135,-2.0666,-2.0176,-2.0821,-2.0645,-1.9885,-1.9741,-1.9411,-1.8931,-1.7667,-1.7143,-1.7071,-1.6144,-1.575,-1.5655,-1.5248,-1.4883,-1.4645,-2.6578,-2.6014,-2.5536,-2.5536,-2.5106,-2.4754,-2.4754,-2.4754,-2.4754,-2.4754,-2.4639,-2.4582,-2.4612,-2.4008,-2.3509,-2.3314,-2.2811,-2.2512,-2.2482,-2.2389,-2.2389,-2.2451,-2.2371,-2.2359,-2.2451,-2.2359,-2.2622,-2.3225,-2.2702,-2.2451,-2.2451,-2.2451,-2.2451,-2.242,-2.2254,-2.213,-2.2037,-2.1937,-2.1824,-2.173,-2.1812,-2.1761,-2.1698,-2.1588,-2.1514,-2.1431,-2.1316,-2.1265,-2.1265,-2.1221,-2.1221,-2.1221,-2.1221,-2.119,-2.119,-2.119,-2.119,-2.119,-2.119,-2.119,-2.119,-2.119,-2.119,-2.1316,-2.172,-2.1914,-2.2131,-2.2604,-2.3052,-2.3556,-2.4108,-2.3934,-2.3677,-2.3677,-2.3427,-2.337,-2.3732,-2.4238,-2.4711,-2.5022,-2.4968,-2.4935,-2.4914,-2.4416,-2.4061,-2.3922,-2.3554,-2.324,-2.3095,-2.2751,-2.2541,-2.2397,-2.2454,-2.2155,-2.1453,-2.1498,-2.1195,-2.0477,-2.0433,-2.0997,-2.2,-2.1381,-2.0955,-2.061,-1.9566,-1.8954,-1.8594,-1.7432,-1.6954,-1.6845,-1.6099,-1.5602,-1.524,-1.482,-1.4641,-1.4613,-2.5892,-2.5287,-2.4794,-2.4794,-2.4454,-2.4211,-2.4211,-2.4211,-2.4211,-2.4211,-2.4179,-2.4034,-2.3745,-2.31,-2.261,-2.2445,-2.2297,-2.2154,-2.203,-2.203,-2.203,-2.203,-2.1968,-2.1917,-2.1917,-2.1917,-2.1851,-2.1705,-2.1932,-2.203,-2.203,-2.1949,-2.1917,-2.1917,-2.1824,-2.1781,-2.1781,-2.1612,-2.1549,-2.1549,-2.1454,-2.1434,-2.1391,-2.1316,-2.1273,-2.1242,-2.0764,-2.0334,-1.9966,-1.9966,-1.9966,-1.9966,-1.9966,-1.9966,-1.9966,-1.9966,-2.0269,-2.0495,-2.0063,-2.056,-2.1024,-2.0324,-2.0456,-2.072,-2.0644,-2.0849,-2.1282,-2.2075,-2.2648,-2.2901,-2.2531,-2.2339,-2.2273,-2.2509,-2.2607,-2.2731,-2.282,-2.3575,-2.4138,-2.4346,-2.4077,-2.3856,-2.3856,-2.3337,-2.2858,-2.2473,-2.2262,-2.1868,-2.1251,-2.123,-2.1114,-2.0899,-2.089,-2.0766,-2.0465,-2.0465,-2.0287,-1.9939,-1.9939,-2.04,-2.1204,-2.0828,-2.0474,-2.0132,-1.9405,-1.8756,-1.8129,-1.724,-1.6716,-1.645,-1.5907,-1.5311,-1.4786,-1.4452,-1.4173,-1.4]},{"header":{"parameterUnit":"m.s-1","parameterCategory":1,"la1":30.6,"la2":28.766,"lo1":-90.7593,"lo2":-88.6598,"dy":0.0162,"dx":0.0183,"nx":116,"ny":114,"refTime":"2023-08-21T06:00:00:Z","depth":0,"parameterNumber":3,"parameterNumberName":"V-component_of_WINDS"},"data":[0.0,0.0,0.0,0.0,0.0,0.0,0.0,0.0,0.0,0.0,0.0,0.0,0.0,0.0,0.0,0.0,0.0,0.0,0.0,0.0,0.0,0.0,0.0,0.0,0.0,0.0,0.0,0.0,0.0,0.0,0.0,0.0,0.0,0.0,0.0,0.0,0.0,0.0,0.0,0.0,0.0,0.0,0.0,0.0,0.0,0.0,0.0,0.0,0.0,0.0,0.0,0.0,0.0,0.0,0.0,0.0,0.0,0.0,0.0,0.0,0.0,0.0,0.0,0.0,0.0,0.0,0.0,0.0,0.0,0.0,0.0,0.0,0.0,0.0,0.0,0.0,0.0,0.0,0.0,0.0,0.0,0.0,0.0,0.0,0.0,0.0,0.0,0.0,0.0,0.0,0.0,0.0,0.0,0.0,0.0,0.0,0.0,0.0,0.0,0.0,0.0,0.0,0.0,0.0,0.0,0.0,0.0,0.0,0.0,0.0,0.0,0.0,0.0,0.0,0.0,0.0,0.0,0.0,0.0,0.0,0.0,0.0,0.0,0.0,0.0,0.0,0.0,0.0,0.0,0.0,0.0,0.0,0.0,0.0,0.0,0.0,0.0,0.0,0.0,0.0,0.0,0.0,0.0,0.0,0.0,0.0,0.0,0.0,0.0,0.0,0.0,0.0,0.0,0.0,0.0,0.0,0.0,0.0,0.0,0.0,0.0,0.0,0.0,0.0,0.0,0.0,0.0,0.0,0.0,0.0,0.0,0.0,0.0,0.0,0.0,0.0,0.0,0.0,0.0,0.0,0.0,0.0,0.0,0.0,0.0,0.0,0.0,0.0,0.0,0.0,0.0,0.0,0.0,0.0,0.0,0.0,0.0,0.0,0.0,0.0,0.0,0.0,0.0,0.0,0.0,0.0,0.0,0.0,0.0,0.0,0.0,0.0,0.0,0.0,0.0,0.0,0.0,0.0,0.0,0.0,0.0,0.0,0.0,0.0,0.0,0.0,0.0,0.0,0.0,0.0,0.0,0.0,0.0,0.0,0.0,0.0,0.0,0.0,0.0,0.0,0.0,0.0,0.0,0.0,0.0,0.0,0.0,0.0,0.0,0.0,0.0,0.0,0.0,0.0,0.0,0.0,0.0,0.0,0.0,0.0,0.0,0.0,0.0,0.0,0.0,0.0,0.0,0.0,0.0,0.0,0.0,0.0,0.0,0.0,0.0,0.0,0.0,0.0,0.0,0.0,0.0,0.0,0.0,0.0,0.0,0.0,0.0,0.0,0.0,0.0,0.0,0.0,0.0,0.0,0.0,0.0,0.0,0.0,0.0,0.0,0.0,0.0,0.0,0.0,0.0,0.0,0.0,0.0,0.0,0.0,0.0,0.0,0.0,0.0,0.0,0.0,0.0,0.0,0.0,0.0,0.0,0.0,0.0,0.0,0.0,0.0,0.0,0.0,0.0,0.0,0.0,0.0,0.0,0.0,0.0,0.0,0.0,0.0,0.0,0.0,0.0,0.0,0.0,0.0,0.0,0.0,0.0,0.0,0.0,0.0,0.0,0.0,0.0,0.0,0.0,0.0,0.0,0.0,0.0,0.0,0.0,0.0,0.0,0.0,0.0,0.0,0.0,0.0,0.0,0.0,0.0,0.0,0.0,0.0,0.0,0.0,0.0,0.0,0.0,0.0,0.0,0.0,0.0,0.0,0.0,0.0,0.0,0.0,0.0,0.0,0.0,0.0,0.0,0.0,0.0,0.0,0.0,0.0,0.0,0.0,0.0,0.0,0.0,0.0,0.0,0.0,0.0,0.0,0.0,0.0,0.0,0.0,0.0,0.0,0.0,0.0,0.0,0.0,0.0,0.0,0.0,0.0,0.0,0.0,0.0,0.0,0.0,0.0,0.0,0.0,0.0,0.0,0.0,0.0,0.0,0.0,0.0,0.0,0.0,0.0,0.0,0.0,0.0,0.0,0.0,0.0,0.0,0.0,0.0,0.0,0.0,0.0,0.0,0.0,0.0,0.0,0.0,0.0,0.0,0.0,0.0,0.0,0.0,0.0,0.0,0.0,0.0,0.0,0.0,0.0,0.0,0.0,0.0,0.0,0.0,0.0,0.0,0.0,0.0,0.0,0.0,0.0,0.0,0.0,0.0,0.0,0.0,0.0,0.0,0.0,0.0,0.0,0.0,0.0,0.0,0.0,0.0,0.0,0.0,0.0,0.0,0.0,0.0,0.0,0.0,0.0,0.0,0.0,0.0,0.0,0.0,0.0,0.0,0.0,0.0,0.0,0.0,0.0,0.0,0.0,0.0,0.0,0.0,0.0,0.0,0.0,0.0,0.0,0.0,0.0,0.0,0.0,0.0,0.0,0.0,0.0,0.0,0.0,0.0,0.0,0.0,0.0,0.0,0.0,0.0,0.0,0.0,0.0,0.0,0.0,0.0,0.0,0.0,0.0,0.0,0.0,0.0,0.0,0.0,0.0,0.0,0.0,0.0,0.0,0.0,0.0,0.0,0.0,0.0,0.0,0.0,0.0,0.0,0.0,0.0,0.0,0.0,0.0,0.0,0.0,0.0,0.0,0.0,0.0,0.0,0.0,0.0,0.0,0.0,0.0,0.0,0.0,0.0,0.0,0.0,0.0,0.0,0.0,0.0,0.0,0.0,0.0,0.0,0.0,0.0,0.0,0.0,0.0,0.0,0.0,0.0,0.0,0.0,0.0,0.0,0.0,0.0,0.0,0.0,0.0,0.0,0.0,0.0,0.0,0.0,0.0,0.0,0.0,0.0,0.0,0.0,0.0,0.0,0.0,0.0,0.0,0.0,0.0,0.0,0.0,0.0,0.0,0.0,0.0,0.0,0.0,0.0,0.0,0.0,0.0,0.0,0.0,0.0,0.0,0.0,0.0,0.0,0.0,0.0,0.0,0.0,0.0,0.0,0.0,0.0,0.0,0.0,0.0,0.0,0.0,0.0,0.0,0.0,0.0,0.0,0.0,0.0,0.0,0.0,0.0,0.0,0.0,0.0,0.0,0.0,0.0,0.0,0.0,0.0,0.0,0.0,0.0,0.0,0.0,0.0,0.0,0.0,0.0,0.0,0.0,0.0,0.0,0.0,0.0,0.0,0.0,0.0,0.0,0.0,0.0,0.0,0.0,0.0,0.0,0.0,0.0,0.0,0.0,0.0,0.0,0.0,0.0,0.0,0.0,0.0,0.0,0.0,0.0,0.0,0.0,0.0,0.0,0.0,0.0,0.0,0.0,0.0,0.0,0.0,0.0,0.0,0.0,0.0,0.0,0.0,0.0,0.0,0.0,0.0,0.0,0.0,0.0,0.0,0.0,0.0,0.0,0.0,0.0,0.0,0.0,0.0,0.0,0.0,0.0,0.0,0.0,0.0,0.0,0.0,0.0,0.0,0.0,0.0,0.0,0.0,0.0,0.0,0.0,0.0,0.0,0.0,0.0,0.0,0.0,0.0,0.0,0.0,0.0,0.0,0.0,0.0,0.0,0.0,0.0,0.0,0.0,0.0,0.0,0.0,0.0,0.0,0.0,0.0,0.0,0.0,0.0,0.0,0.0,0.0,0.0,0.0,0.0,0.0,0.0,0.0,0.0,0.0,0.0,0.0,0.0,0.0,0.0,0.0,0.0,0.0,0.0,0.0,0.0,0.0,0.0,0.0,0.0,0.0,0.0,0.0,0.0,0.0,0.0,0.0,0.0,0.0,0.0,0.0,0.0,0.0,0.0,0.0,0.0,0.0,0.0,0.0,0.0,0.0,0.0,0.0,0.0,0.0,0.0,0.0,0.0,0.0,0.0,0.0,0.0,0.0,0.0,0.0,0.0,0.0,0.0,0.0,0.0,0.0,0.0,0.0,0.0,0.0,0.0,0.0,0.0,0.0,0.0,0.0,0.0,0.0,0.0,0.0,0.0,0.0,0.0,0.0,0.0,0.0,0.0,0.0,0.0,0.0,0.0,0.0,0.0,0.0,0.0,0.0,0.0,0.0,0.0,0.0,0.0,0.0,0.0,0.0,0.0,0.0,0.0,0.0,0.0,0.0,0.0,0.0,0.0,0.0,0.0,0.0,0.0,0.0,0.0,0.0,0.0,0.0,0.0,0.0,0.0,0.0,0.0,0.0,0.0,0.0,0.0,0.0,0.0,0.0,0.0,0.0,0.0,0.0,0.0,0.0,0.0,0.0,0.0,0.0,0.0,0.0,0.0,0.0,0.0,0.0,0.0,0.0,0.0,0.0,0.0,0.0,0.0,0.0,0.0,0.0,0.0,0.0,0.0,0.0,0.0,0.0,0.0,0.0,0.0,0.0,0.0,0.0,0.0,0.0,0.0,0.0,0.0,0.0,0.0,0.0,0.0,0.0,0.0,0.0,0.0,0.0,0.0,0.0,0.0,0.0,0.0,0.0,0.0,0.0,0.0,0.0,0.0,0.0,0.0,0.0,0.0,0.0,0.0,0.0,0.0,0.0,0.0,0.0,0.0,0.0,0.0,0.0,0.0,0.0,0.0,0.0,0.0,0.0,0.0,0.0,0.0,0.0,0.0,0.0,0.0,0.0,0.0,0.0,0.0,0.0,0.0,0.0,0.0,0.0,0.0,0.0,0.0,0.0,0.0,0.0,0.0,0.0,0.0,0.0,0.0,0.0,0.0,0.0,0.0,0.0,0.0,0.0,0.0,0.0,0.0,0.0,0.0,0.0,0.0,0.0,0.0,0.0,0.0,0.0,0.0,0.0,0.0,0.0,0.0,0.0,0.0,0.0,0.0,0.0,0.0,0.0,0.0,0.0,0.0,0.0,0.0,0.0,0.0,0.0,0.0,0.0,0.0,0.0,0.0,0.0,0.0,0.0,0.0,0.0,0.0,0.0,0.0,0.0,0.0,0.0,0.0,0.0,0.0,0.0,0.0,0.0,0.0,0.0,0.0,0.0,0.0,0.0,0.0,0.0,0.0,0.0,0.0,0.0,0.0,0.0,0.0,0.0,0.0,0.0,0.0,0.0,0.0,0.0,0.0,0.0,0.0,0.0,0.0,0.0,0.0,0.0,0.0,0.0,0.0,0.0,0.0,0.0,0.0,0.0,0.0,0.0,0.0,0.0,0.0,0.0,0.0,0.0,0.0,0.0,0.0,0.0,0.0,0.0,0.0,0.0,0.0,0.0,0.0,0.0,0.0,0.0,0.0,0.0,0.0,0.0,0.0,0.0,0.0,0.0,0.0,0.0,0.0,0.0,0.0,0.0,0.0,0.0,0.0,0.0,0.0,0.0,0.0,0.0,0.0,0.0,0.0,0.0,0.0,0.0,0.0,0.0,0.0,0.0,0.0,0.0,0.0,0.0,0.0,0.0,0.0,0.0,0.0,0.0,0.0,0.0,0.0,0.0,0.0,0.0,0.0,0.0,0.0,0.0,0.0,0.0,0.0,0.0,0.0,0.0,0.0,0.0,0.0,0.0,0.0,0.0,0.0,0.0,0.0,0.0,0.0,0.0,0.0,0.0,0.0,0.0,0.0,0.0,0.0,0.0,0.0,0.0,0.0,0.0,0.0,0.0,0.0,0.0,0.0,0.0,0.0,0.0,0.0,0.0,0.0,0.0,0.0,0.0,0.0,0.0,0.0,0.0,0.0,0.0,0.0,0.0,0.0,0.0,0.0,0.0,0.0,0.0,0.0,0.0,0.0,0.0,0.0,0.0,0.0,0.0,0.0,0.0,0.0,0.0,0.0,0.0,0.0,0.0,0.0,0.0,0.0,0.0,0.0,0.0,0.0,0.0,0.0,0.0,0.0,0.0,0.0,0.0,0.0,0.0,0.0,0.0,0.0,0.0,0.0,0.0,0.0,0.0,0.0,0.0,0.0,0.0,0.0,0.0,0.0,0.0,0.0,0.0,0.0,0.0,0.0,0.0,0.0,0.0,0.0,0.0,0.0,0.0,0.0,0.0,0.0,0.0,0.0,0.0,0.0,0.0,0.0,0.0,0.0,0.0,0.0,0.0,0.0,0.0,0.0,0.0,0.0,0.0,0.0,0.0,0.0,0.0,0.0,0.0,0.0,0.0,0.0,0.0,0.0,0.0,0.0,0.0,0.0,0.0,0.0,-1.0013,0.0,0.0,0.0,0.0,0.0,0.0,0.0,0.0,0.0,0.0,0.0,0.0,0.0,0.0,0.0,0.0,0.0,0.0,0.0,0.0,0.0,0.0,0.0,0.0,0.0,0.0,0.0,0.0,0.0,0.0,0.0,0.0,0.0,0.0,0.0,0.0,0.0,0.0,0.0,0.0,0.0,0.0,0.0,0.0,0.0,0.0,0.0,0.0,0.0,0.0,0.0,0.0,0.0,0.0,0.0,0.0,0.0,0.0,0.0,0.0,0.0,0.0,0.0,0.0,0.0,0.0,0.0,0.0,0.0,0.0,0.0,0.0,0.0,0.0,0.0,0.0,0.0,0.0,0.0,0.0,0.0,0.0,0.0,0.0,0.0,0.0,0.0,0.0,0.0,0.0,0.0,0.0,0.0,0.0,0.0,0.0,0.0,0.0,0.0,0.0,0.0,0.0,0.0,0.0,0.0,0.0,0.0,0.0,0.0,0.0,0.0,0.0,0.0,0.0,0.0,0.0,-1.0475,0.0,0.0,0.0,0.0,0.0,0.0,0.0,0.0,0.0,0.0,0.0,0.0,0.0,0.0,0.0,0.0,0.0,0.0,0.0,0.0,0.0,0.0,0.0,0.0,0.3919,0.3997,0.3958,0.3997,0.0,0.0,0.0,0.0,0.0,0.0,0.0,0.0,0.0,0.0,0.0,0.0,0.0,0.0,0.0,0.0,0.0,0.0,0.0,0.0,0.0,0.0,0.0,0.0,0.0,0.0,0.0,0.0,0.0,0.0,0.0,0.0,0.0,0.0,0.0,0.0,0.0,0.0,0.0,0.0,0.0,0.0,0.0,0.0,0.0,0.0,0.0,0.0,0.0,0.0,0.0,0.0,0.0,0.0,0.0,0.0,0.0,0.0,0.0,0.0,0.0,0.0,0.0,0.0,0.0,0.0,0.0,0.0,0.0,0.0,0.0,0.0,0.0,0.0,0.0,0.0,0.0,0.0,0.0,0.0,-1.1015,-1.1214,-1.137,-1.137,-1.1343,-1.1262,-1.0828,-1.0615,-1.0568,-1.0755,0.0,0.0,0.0,0.0,0.0,0.0,0.0,0.0,0.0,0.0,0.0,0.0,0.0,0.0,0.0,0.0,0.0,0.0,0.0,0.0,0.0,0.4268,0.4465,0.482,0.4504,0.4696,0.0,0.0,0.0,0.0,0.0,0.0,0.0,0.0,0.0,0.0,0.0,0.3831,0.3632,0.2971,0.2669,0.2664,0.2557,0.0,0.0,0.0,0.0,0.0,0.0,0.0,0.0,0.0,0.0,0.0,0.0,0.0,0.0,0.0,0.0,0.0,0.0,0.0,0.0,0.0,0.0,0.0,0.0,0.0,0.0,0.0,0.0,0.0,0.0,0.0,0.0,0.0,0.0,0.0,0.0,0.0,0.0,0.0,0.0,0.0,0.0,0.0,-0.3548,-0.3762,0.0,0.0,0.0,0.0,0.0,0.0,0.0,0.0,0.0,0.0,0.0,0.0,0.0,-1.0516,-1.0842,-1.1048,-1.1289,-1.1558,-1.1591,-1.1623,-1.1655,-1.1655,-1.1498,-1.13,-1.1214,0.0,-1.0845,-1.0869,0.0,0.0,0.0,0.0,0.0,0.0,0.0,0.0,0.0,0.0,0.0,0.0,0.0,0.0,0.0,0.0,0.0,0.0,0.0,0.0,0.0,0.4673,0.4909,0.511,0.5371,0.566,0.5988,0.0,0.0,0.0,0.0,0.0,0.0,0.0,0.0,0.0,0.415,0.359,0.3187,0.2846,0.271,0.2741,0.2687,0.264,0.26,0.2572,0.0,0.0,0.0,0.0,0.0,0.0,0.0,0.0,0.0,0.0,0.0,0.0,0.0,0.0,0.0,0.0,0.0,0.0,0.0,0.0,0.0,0.0,0.0,0.0,0.0,0.0,0.0,0.0,0.0,0.0,0.0,0.0,0.0,0.0,0.0,0.0,0.0,0.0,0.0,-0.3499,-0.3565,-0.3781,-0.3681,-0.3663,0.0,0.0,0.0,0.0,0.0,0.0,0.0,0.0,0.0,-1.0635,-1.1042,-1.1284,-1.1386,-1.1763,-1.2064,-1.2296,-1.2425,-1.2565,-1.27,-1.27,-1.2565,-1.2328,-1.2199,-1.1916,-1.1548,-1.1229,-1.1042,-1.103,0.0,0.0,0.0,0.0,-1.1214,-1.1309,0.0,0.0,0.0,0.0,0.0,0.0,0.0,0.0,0.0,0.0,0.0,0.0,0.4538,0.4973,0.52,0.523,0.5776,0.61,0.6083,0.6994,0.0,0.0,0.0,0.0,0.0,0.0,0.0,0.3485,0.3527,0.325,0.2715,0.2747,0.2785,0.2873,0.2888,0.2783,0.2669,0.2638,0.2598,0.2555,0.0,0.0,0.0,0.0,0.0,0.0,0.0,0.0,0.0,0.0,0.0,0.0,0.0,0.0,0.0,0.0,0.0,0.0,0.0,0.0,0.0,0.0,0.0,0.0,0.0,0.0,0.0,0.0,0.0,0.0,0.0,0.0,0.0,0.0,0.0,0.0,0.0,-0.3503,-0.3581,-0.3712,-0.3727,-0.388,0.0,0.0,0.0,0.0,0.0,0.0,-0.9679,-0.9717,-1.0184,-1.1338,-1.1752,-1.2,-1.2059,-1.2474,-1.2802,-1.3083,-1.3206,-1.3383,-1.3566,-1.3566,-1.3432,-1.319,-1.2953,-1.2662,-1.2254,-1.1738,-1.1421,-1.1315,-1.1382,-1.1377,-1.1317,-1.1317,-1.1411,-1.1591,0.0,0.0,0.0,0.0,0.0,0.0,0.0,0.0,0.0,0.0,0.0,0.4577,0.5084,0.5184,0.5233,0.5391,0.5301,0.5517,0.6077,0.6028,0.6293,0.6903,0.6791,0.6479,0.0,0.0,0.0,0.2641,0.2801,0.2819,0.2781,0.2938,0.2992,0.2998,0.3057,0.3016,0.2897,0.2737,0.2685,0.2673,0.2557,0.0,0.0,0.0,0.0,0.0,0.0,0.0,0.0,0.0,0.0,0.0,0.0,0.0,0.0,0.0,0.0,0.0,0.0,0.0,0.0,0.0,0.0,0.0,0.0,0.0,0.0,0.0,0.0,0.0,0.0,0.0,0.0,0.0,0.0,0.0,0.0,0.0,0.0,-0.3594,-0.39,0.0,0.0,0.0,0.0,-0.8899,-0.8645,-0.9363,-1.1469,-1.0835,-1.1041,-1.2281,-1.2581,-1.2862,-1.3034,-1.3297,-1.354,-1.3766,-1.3776,-1.3793,-1.3803,-1.3803,-1.368,-1.3448,-1.3195,-1.2953,-1.2721,-1.2445,-1.206,-1.1609,-1.2052,-1.206,-1.1838,-1.1838,-1.189,-1.1862,0.0,0.0,0.0,0.0,0.0,0.0,0.0,0.0,0.0,0.4662,0.4543,0.4621,0.5133,0.5257,0.5352,0.5474,0.5864,0.6136,0.621,0.6462,0.6663,0.6783,0.6704,0.6186,0.0,0.0,0.3171,0.2718,0.2801,0.2904,0.2943,0.3025,0.3086,0.3076,0.3098,0.3083,0.3037,0.2916,0.2797,0.2688,0.2644,0.2544,0.0,0.0,0.0,0.0,0.0,0.0,0.0,0.0,0.0,0.0,0.0,0.0,0.0,0.0,0.0,0.0,0.0,0.0,0.0,0.0,0.0,0.0,0.0,0.0,0.0,0.0,0.0,0.0,0.0,0.0,0.0,0.0,0.0,0.0,0.0,0.0,0.0,-0.3915,-0.4504,0.0,-0.5977,-0.685,-0.8074,-0.9779,-1.0474,-1.1216,-1.2094,-1.202,-1.2241,-1.2845,-1.3238,-1.348,-1.3566,-1.3814,-1.3981,-1.4062,-1.4062,-1.4062,-1.4062,-1.4062,-1.3846,-1.3475,-1.3383,-1.3175,-1.2791,-1.2822,-1.2468,-1.1883,-1.2004,-1.1986,-1.188,-1.188,-1.2029,-1.2174,0.0,0.0,0.0,0.0,0.0,0.0,0.0,0.0,0.4231,0.4901,0.4779,0.477,0.5246,0.5344,0.545,0.5607,0.5987,0.6108,0.5929,0.6143,0.618,0.6022,0.5804,0.5199,0.0,0.346,0.3006,0.2813,0.2939,0.2998,0.3037,0.3098,0.3101,0.3093,0.3133,0.314,0.3117,0.3106,0.2965,0.2777,0.2717,0.2632,0.2527,0.0,0.0,0.0,0.0,0.0,0.0,0.0,0.0,0.0,0.0,0.0,0.0,0.0,0.0,0.0,0.0,0.0,0.0,0.0,0.0,0.0,0.0,0.0,0.0,0.0,0.0,0.0,0.0,0.0,0.0,0.0,0.0,0.0,0.0,0.0,-0.476,-0.4863,-0.5344,-0.6148,-0.7316,-0.8253,-0.9412,-1.1041,-1.1946,-1.2544,-1.2872,-1.3034,-1.3227,-1.3464,-1.3782,-1.3943,-1.3943,-1.411,-1.4196,-1.4196,-1.4196,-1.4196,-1.4191,-1.411,-1.3895,-1.3583,-1.3421,-1.3173,-1.2916,-1.285,-1.2598,-1.214,-1.2267,-1.2247,-1.2186,-1.2186,-1.2294,-1.2445,0.0,0.0,0.0,0.0,0.0,0.0,0.0,0.4423,0.4543,0.4937,0.5018,0.5111,0.5462,0.5439,0.5553,0.586,0.557,0.5353,0.5189,0.4955,0.4773,0.4695,0.3987,0.348,0.3209,0.2936,0.2816,0.2925,0.3041,0.3099,0.3101,0.3116,0.3095,0.3102,0.3219,0.3292,0.3189,0.3298,0.3187,0.3,0.2775,0.2733,0.2747,0.0,0.0,0.0,0.0,0.0,0.0,0.0,0.0,0.0,0.0,0.0,0.0,0.0,0.0,0.0,0.0,0.0,0.0,0.0,0.0,0.0,0.0,0.0,0.0,0.0,0.0,0.0,0.0,0.0,0.0,0.0,0.0,0.0,-0.4769,-0.4483,-0.4875,-0.6393,-0.6381,-0.7073,-0.9179,-0.9959,-1.099,-1.2678,-1.3012,-1.334,-1.3803,-1.383,-1.3943,-1.4186,-1.4196,-1.4196,-1.4196,-1.4186,-1.4186,-1.4196,-1.418,-1.4175,-1.4175,-1.3922,-1.3809,-1.3782,-1.3308,-1.3104,-1.3071,-1.2614,-1.2414,-1.2455,-1.2905,-1.2904,-1.2705,-1.2705,-1.2705,-1.2705,0.0,0.0,0.0,0.0,0.0,0.0,0.0,0.482,0.4859,0.4979,0.5018,0.5118,0.539,0.5429,0.5445,0.5588,0.5396,0.5186,0.5069,0.4754,0.4451,0.4217,0.0,0.3226,0.3362,0.3027,0.2944,0.3048,0.3078,0.3115,0.3117,0.3222,0.322,0.3223,0.3353,0.3377,0.3364,0.338,0.3323,0.3206,0.307,0.2875,0.2643,0.0,0.0,0.0,0.0,0.0,0.0,0.0,0.0,0.0,0.0,0.0,0.0,0.0,0.0,0.0,0.0,0.0,0.0,0.0,0.0,0.0,0.0,0.0,0.0,0.0,0.0,0.0,0.0,0.0,0.0,0.0,0.0,-0.4356,-0.4356,-0.5349,-0.6125,-0.63,-0.6793,-0.7788,-0.9461,-1.0331,-1.1376,-1.2848,-1.3545,-1.3954,-1.4083,-1.4089,-1.4121,-1.4191,-1.4196,-1.4196,-1.4196,-1.4013,-1.4013,-1.4191,-1.3841,-1.376,-1.3916,-1.368,-1.3572,-1.3556,-1.3238,-1.3104,-1.3082,-1.2786,-1.2561,-1.2392,-1.2535,-1.2531,-1.2491,-1.2662,-1.2705,-1.2705,0.0,0.0,0.0,0.0,0.0,0.0,0.0,0.5018,0.5018,0.5018,0.5018,0.5108,0.5385,0.5364,0.5363,0.5491,0.5284,0.5064,0.4909,0.4465,0.4088,0.3802,0.0,0.3083,0.321,0.3039,0.304,0.3087,0.3149,0.3141,0.3167,0.3289,0.3335,0.3362,0.3421,0.3435,0.3414,0.3437,0.3399,0.3312,0.3206,0.3044,0.2847,0.2698,0.2585,0.2504,0.247,0.2458,0.2347,0.1795,0.0,0.0,0.0,0.0,0.0,0.0,0.0,0.0,0.0,0.0,0.0,0.0,0.0,0.0,0.0,0.0,0.0,0.0,0.0,0.0,0.0,0.0,0.0,0.0,-0.5275,-0.5732,-0.5141,-0.5968,-0.676,-0.7184,-0.7795,-0.8786,-1.0245,-1.0896,-1.1764,-1.3006,-1.3567,-1.3921,-1.4191,-1.4196,-1.4196,-1.4196,-1.4196,-1.4196,-1.4196,-1.3943,-1.389,-1.4035,-1.3658,-1.3545,-1.3669,-1.3432,-1.3324,-1.3313,-1.3168,-1.305,-1.2953,-1.2867,-1.2634,0.0,0.0,0.0,0.0,0.0,-1.2705,-1.2705,0.0,0.0,0.0,0.0,0.0,0.0,0.0,0.5018,0.5018,0.5018,0.5018,0.5102,0.5366,0.5252,0.5273,0.5448,0.5154,0.4906,0.471,0.4109,0.3676,0.3472,0.3195,0.3042,0.2935,0.305,0.3089,0.3101,0.3161,0.3217,0.3322,0.3335,0.3369,0.3425,0.3489,0.3489,0.3446,0.3496,0.3452,0.335,0.3337,0.3283,0.3176,0.2854,0.2825,0.2914,0.2697,0.2576,0.2413,0.1783,0.0,0.0,0.0,0.0,0.0,0.0,0.0,0.0,0.0,0.0,0.0,0.0,0.0,0.0,0.0,0.0,0.0,0.0,0.0,0.0,0.0,0.0,0.0,0.0,-0.6663,-0.7687,-0.6584,-0.645,-0.7084,-0.858,-0.9026,-0.9739,-1.1117,-1.1498,-1.2105,-1.3173,-1.3311,-1.3573,-1.418,0.0,0.0,0.0,0.0,-1.418,-1.4153,-1.3906,-1.3782,-1.3776,-1.3523,-1.341,-1.3427,-1.3179,-1.3077,-1.3104,-1.3104,-1.2985,-1.2851,-1.2851,-1.271,-1.2541,-1.2866,-1.2772,-1.2448,-1.2619,-1.2705,-1.2705,0.0,0.0,0.0,0.0,0.0,0.0,0.0,0.5018,0.5018,0.5018,0.5018,0.5069,0.5208,0.52,0.5205,0.5252,0.5021,0.463,0.4113,0.3702,0.342,0.3282,0.3003,0.2919,0.3058,0.3085,0.3103,0.3162,0.3223,0.3309,0.3323,0.3418,0.3469,0.3485,0.3594,0.3636,0.3628,0.3639,0.3601,0.3527,0.3433,0.327,0.3124,0.3054,0.3142,0.332,0.3321,0.3031,0.2534,0.1649,0.0893,0.0169,-0.0654,0.0,0.0,0.0,0.0,0.0,0.0,0.0,0.0,0.0,0.0,0.0,0.0,0.0,0.0,0.0,0.0,0.0,0.0,0.0,0.0,-0.5346,-0.6144,-0.6756,-0.7293,-0.7511,-0.8077,-0.9114,-0.923,-0.9675,-1.0945,-1.1505,-1.2152,-1.3046,-1.34,-1.3799,-1.4416,-1.4293,-1.4196,-1.4196,-1.4196,-1.4094,-1.3895,-1.3663,-1.3545,-1.354,0.0,0.0,-1.3168,-1.2986,-1.2931,-1.3104,-1.3104,-1.3077,-1.3039,-1.3039,-1.2997,-1.2923,-1.2654,-1.2598,-1.2662,-1.2705,-1.2705,-1.2705,0.0,0.0,0.0,0.0,0.0,0.0,0.0,0.5018,0.5018,0.5018,0.5018,0.5037,0.5097,0.5048,0.501,0.501,0.4847,0.4496,0.3932,0.3695,0.3497,0.3279,0.3072,0.3018,0.3091,0.3154,0.315,0.318,0.3292,0.3337,0.3369,0.3455,0.3529,0.359,0.3651,0.3695,0.3722,0.3692,0.3643,0.3576,0.3459,0.3477,0.3574,0.3505,0.356,0.3578,0.3322,0.3023,0.2527,0.1119,0.0344,-0.0214,-0.1069,-0.1318,-0.1248,0.0,0.0,0.0,0.0,0.0,0.0,0.0,0.0,0.0,0.0,0.0,0.0,0.0,0.0,-0.2121,0.0,0.0,-0.5094,-0.6382,-0.756,-0.8157,-0.7824,-0.8669,-0.9332,-0.9312,-0.9305,-0.9698,-1.0758,-1.1108,-1.1531,-1.2297,-1.2764,-1.3252,-1.3866,-1.4087,-1.4196,-1.4196,-1.4196,-1.4073,-1.382,-1.3593,-1.3416,-1.3287,-1.298,-1.2872,-1.2931,-1.2862,-1.2872,-1.2931,-1.2931,-1.2867,-1.2748,-1.2624,-1.2578,-1.2529,-1.2422,-1.2601,-1.2853,-1.2629,-1.2619,-1.2705,0.0,0.0,0.0,0.0,0.0,0.0,0.0,0.0,0.5018,0.5018,0.5018,0.5018,0.5018,0.489,0.4814,0.4766,0.4638,0.4356,0.0,0.3754,0.3566,0.3285,0.3176,0.3101,0.3124,0.3172,0.3197,0.3197,0.332,0.3375,0.3414,0.3495,0.3583,0.3679,0.3703,0.3741,0.3842,0.3734,0.3679,0.361,0.3481,0.3708,0.41,0.3849,0.3788,0.3739,0.3092,0.2702,0.2272,0.0729,0.0043,-0.0298,-0.1014,-0.1245,-0.1221,-0.1221,-0.1151,0.0,0.0,0.0,0.0,0.0,0.0,0.0,0.0,0.0,-0.1352,-0.1473,-0.1528,-0.217,-0.4057,-0.5115,-0.6098,-0.731,-0.886,-0.9528,-0.8365,-0.9316,-0.9984,-0.9478,-0.9545,-0.993,-1.0686,-1.0745,-1.1033,-1.1678,-1.2083,-1.2557,-1.3158,-1.3725,-1.4029,-1.4029,-1.4094,-1.4003,-1.3755,-1.3523,-1.3281,-1.3034,-1.2899,-1.2813,-1.2813,-1.2813,-1.2813,-1.2813,-1.2813,-1.2684,-1.2527,-1.2237,-1.2142,-1.2069,-1.2213,-1.2598,-1.3001,-1.2668,-1.2653,-1.2783,0.0,0.0,0.0,0.0,0.0,0.0,0.0,0.0,0.0,0.5018,0.5018,0.5018,0.5018,0.5004,0.4909,0.4728,0.4336,0.397,0.3756,0.3419,0.3241,0.3135,0.3119,0.3133,0.3298,0.3308,0.3311,0.3311,0.3422,0.3454,0.3416,0.358,0.3665,0.3683,0.3851,0.3903,0.391,0.3902,0.3865,0.3733,0.3557,0.3775,0.4125,0.3516,0.3537,0.3739,0.2681,0.1961,0.1471,0.1053,0.0342,-0.0434,-0.0698,-0.0901,-0.1036,-0.097,0.0,-0.1126,-0.1186,-0.1179,0.0,-0.1274,-0.1286,-0.1333,0.0,0.0,-0.161,-0.2005,-0.2152,-0.2831,-0.4831,-0.5321,-0.598,-0.7591,-0.8037,-0.8422,-0.915,-0.858,-0.8666,-1.0115,-1.0423,-1.0647,-1.0923,-1.0992,-1.1283,-1.2069,-1.198,-1.2163,-1.2822,-1.3202,-1.3428,-1.3428,-1.371,-1.375,-1.3518,-1.327,-1.3028,-1.2851,-1.2824,-1.2813,-1.2813,-1.2813,-1.2813,-1.2813,-1.2813,-1.2861,-1.299,-1.2554,-1.2361,-1.2343,-1.1937,-1.2226,-1.2865,-1.2989,-1.3049,-1.3079,0.0,0.0,0.0,0.0,0.0,0.0,0.0,0.0,0.0,0.0,0.5018,0.5018,0.5018,0.4914,0.4811,0.4605,0.4496,0.0,0.3689,0.3712,0.3527,0.3129,0.3157,0.3286,0.3372,0.3375,0.3375,0.3375,0.3456,0.3485,0.3463,0.3574,0.3662,0.3733,0.3844,0.3846,0.391,0.3876,0.3885,0.3753,0.3069,0.3191,0.3597,0.2146,0.1999,0.2517,0.2,0.1655,0.0,0.0,-0.0081,-0.0454,-0.0678,-0.0792,-0.0802,-0.0806,-0.0895,0.0,-0.1211,0.0,0.0,0.0,-0.1363,-0.1433,-0.1509,-0.1543,-0.1621,-0.1866,-0.2488,-0.3379,-0.4539,-0.5831,-0.6902,0.0,-0.8613,-0.9126,-0.8631,-0.9012,-0.9372,-0.9432,-1.0016,-1.0456,-1.0639,-1.066,-1.0839,-1.1295,-1.1569,-1.1802,-1.2073,-1.2543,-1.2871,-1.3118,-1.3234,-1.3325,-1.3265,-1.3157,-1.299,-1.2813,-1.2813,-1.2813,-1.2813,-1.2813,-1.2689,-1.256,-1.256,-1.2533,-1.251,-1.2134,-1.2,-1.1978,-1.1779,-1.2063,-1.2575,-1.2665,-1.295,-1.3332,0.0,0.0,0.0,0.0,0.0,0.0,0.0,0.0,0.0,0.0,0.5018,0.5018,0.5018,0.4868,0.4725,0.4586,0.4593,0.0,0.0,0.3958,0.3791,0.33,0.3364,0.3418,0.341,0.3428,0.3428,0.3413,0.3486,0.3504,0.3474,0.3552,0.3643,0.3744,0.3744,0.3803,0.3898,0.3854,0.3849,0.3648,0.2669,0.2735,0.3153,0.1164,0.0915,0.1566,0.1278,0.1097,0.0883,0.0,-0.0306,-0.031,-0.0525,-0.06,-0.0582,-0.0576,-0.0727,-0.096,-0.1173,0.0,0.0,-0.1354,-0.1493,-0.1577,-0.1585,-0.1628,-0.167,-0.1736,-0.2684,-0.365,-0.4175,-0.5791,-0.7166,-0.7642,-0.8694,-0.9187,-0.8633,-0.9344,-0.9688,-0.9098,-0.9513,-0.9957,-1.014,-1.0302,-1.0432,-1.0607,-1.1,-1.1293,-1.1345,-1.1842,-1.2227,-1.2495,-1.2693,-1.2833,-1.2854,-1.2989,-1.2926,-1.2813,-1.2813,-1.2813,-1.2813,-1.2813,-1.2667,-1.2511,-1.2511,-1.2377,-1.2175,-1.1892,-1.1758,-1.1693,-1.1628,-1.1919,-1.2387,-1.2395,-1.2806,-1.3347,0.0,0.0,0.0,0.0,0.0,0.0,0.0,0.0,0.0,0.0,0.0,0.0,0.0,0.0,0.4793,0.4787,0.0,0.0,0.0,0.4025,0.3768,0.3706,0.3741,0.3679,0.3409,0.3466,0.3467,0.3413,0.3527,0.3526,0.3417,0.3533,0.3621,0.3681,0.3681,0.3715,0.3775,0.3831,0.3703,0.3531,0.2644,0.2727,0.3079,0.1128,0.0879,0.1462,0.0437,0.0038,0.0036,0.0,0.0,0.0,-0.0038,-0.0152,0.0,-0.0312,-0.0588,-0.0903,0.0,0.0,-0.1407,-0.1543,-0.1633,-0.1707,-0.179,-0.1767,-0.1781,-0.1807,-0.2675,-0.3531,-0.3842,-0.4835,-0.6085,-0.7705,-0.7561,-0.7831,-0.967,-0.919,-0.8881,-0.9516,-0.9292,-0.9267,0.0,-0.9969,-1.0245,-1.0375,-1.0444,-1.0517,-1.0739,-1.1115,-1.1327,-1.1376,-1.1979,-1.2314,-1.2299,-1.2638,-1.2818,-1.2813,-1.2813,-1.2813,-1.2813,-1.2813,-1.2807,-1.2802,-1.2802,-1.2619,-1.2382,-1.2186,-1.1948,-1.1677,-1.1407,-1.1772,-1.2409,-1.2403,-1.2677,-1.3144,0.0,0.0,0.0,0.0,0.0,0.0,0.0,0.0,0.0,0.0,0.0,0.0,0.0,0.0,0.0,0.0,0.0,0.0,0.0,0.4188,0.3974,0.3444,0.3615,0.3589,0.3289,0.335,0.3391,0.3413,0.3451,0.3451,0.3413,0.3452,0.3501,0.3557,0.3557,0.3615,0.3706,0.3666,0.3341,0.2733,0.1854,0.1471,0.1311,0.0133,0.0041,0.0473,0.0,0.0,0.0,0.0,0.0,0.0,0.0,-0.0035,-0.0143,-0.0308,-0.055,-0.0802,-0.1052,0.0,-0.1577,-0.1719,-0.1742,-0.1803,-0.1833,-0.1832,-0.198,-0.2583,-0.3452,-0.436,-0.5019,-0.5576,-0.603,-0.6221,-0.7055,-0.7721,-0.7917,-0.9037,-0.9689,-0.951,-0.9547,0.0,0.0,0.0,0.0,-1.0229,-1.0367,-1.0408,-1.0343,-1.0556,-1.0742,-1.0909,-1.1484,-1.1894,-1.2087,-1.2553,-1.2813,-1.2813,-1.2813,-1.2813,-1.2813,-1.2813,-1.2813,-1.2813,-1.2813,-1.277,-1.263,-1.2388,-1.2151,-1.1954,-1.1671,-1.1721,-1.1968,-1.2308,-1.2592,-1.294,0.0,0.0,0.0,0.0,0.0,0.0,0.0,0.0,0.0,0.0,0.0,0.0,0.0,0.0,0.0,0.0,0.0,0.0,0.0,0.0,0.4191,0.3635,0.3824,0.3774,0.3451,0.3374,0.3367,0.3386,0.3279,0.324,0.3221,0.324,0.3281,0.3335,0.3313,0.3254,0.3127,0.3091,0.2632,0.1864,0.1078,0.0655,0.0402,-0.0322,-0.0343,0.0,0.0,0.0,0.0,0.0,0.0,0.0,0.0,0.0,-0.0037,-0.0309,-0.0566,-0.0813,-0.1138,-0.1459,-0.1688,-0.1789,-0.1852,-0.1889,-0.1886,-0.1853,-0.1966,-0.2502,-0.3592,-0.4332,-0.4229,-0.5125,-0.5727,-0.5236,-0.6437,-0.7525,-0.7657,-0.9021,-0.9871,-0.9506,-0.9543,-0.9445,0.0,0.0,0.0,-0.9949,-1.0136,-1.0217,-1.0216,-1.0213,-1.0288,-1.0408,-1.0838,-1.1286,-1.1688,-1.2273,-1.2619,-1.2813,-1.2813,-1.2813,-1.2813,-1.2813,-1.2813,-1.2813,-1.2813,-1.2764,-1.2624,-1.2474,-1.2269,-1.2073,-1.179,-1.1752,-1.1889,-1.2171,-1.2455,-1.2723,0.0,0.0,0.0,0.0,0.0,0.0,0.0,0.0,0.0,0.0,0.0,0.0,0.0,0.0,0.0,0.0,0.0,0.0,0.0,0.0,0.0,0.4196,0.4269,0.417,0.3886,0.3574,0.3403,0.3336,0.3114,0.2962,0.291,0.2965,0.3022,0.3076,0.3016,0.2652,0.2085,0.2083,0.1713,0.1026,0.0435,0.0328,0.0376,-0.0178,-0.0241,0.0,0.0,0.0,0.0,0.0,0.0,0.0,0.0,0.0,-0.0041,-0.0319,-0.0601,-0.0897,-0.1202,-0.1534,-0.1845,-0.1904,-0.1954,-0.1959,-0.1899,-0.1836,-0.1748,-0.17,-0.298,-0.3554,0.0,0.0,-0.5024,-0.4708,-0.5763,-0.718,-0.8787,-0.9175,-0.9325,0.0,0.0,0.0,0.0,0.0,0.0,-0.9616,0.0,-0.9957,-1.018,-0.9977,-0.988,-0.9872,-1.0207,-1.0659,-1.1145,-1.1731,-1.2273,-1.2813,-1.2813,-1.2813,-1.2813,-1.2813,-1.2813,-1.2813,-1.2813,-1.2641,-1.2431,-1.242,-1.2274,-1.2089,-1.1795,-1.1883,-1.2078,-1.2089,-1.2232,-1.2494,0.0,0.0,0.0,0.0,0.0,0.0,0.0,0.0,0.0,0.0,0.0,0.0,0.0,0.0,0.0,0.0,0.0,0.0,0.0,0.0,0.0,0.0,0.0,0.0,0.0,0.0,0.0,0.3687,0.3341,0.3135,0.312,0.2881,0.2768,0.2782,0.2767,0.2487,0.2045,0.2144,0.151,0.0425,0.0442,0.0191,-0.0183,-0.0278,-0.0203,0.0,0.0,0.0,0.0,0.0,0.0,0.0,0.0,0.0,-0.0042,-0.0403,-0.0718,-0.1025,-0.1369,-0.1676,-0.1926,-0.1958,-0.1954,-0.1932,-0.1894,-0.1804,-0.1902,-0.2539,-0.2778,-0.2895,0.0,0.0,0.0,-0.4138,-0.5156,0.0,-0.7696,-0.9111,0.0,-0.9817,0.0,-0.9953,-0.9592,-0.9673,0.0,0.0,-0.9786,-0.9851,-0.977,-0.9843,-0.9827,-0.9697,-1.0143,-1.0462,-1.0609,-1.1541,-1.2273,-1.2813,-1.2813,-1.2813,-1.2813,-1.2813,-1.2813,-1.2813,-1.2813,-1.2775,-1.2662,-1.249,-1.2377,-1.228,-1.186,-1.1736,-1.1811,-1.2029,-1.2232,-1.247,0.0,0.0,0.0,0.0,0.0,0.0,0.0,0.0,0.0,0.0,0.0,0.0,0.0,0.0,0.0,0.0,0.0,0.0,0.0,0.0,0.0,0.0,0.0,0.0,0.0,0.0,0.0,0.0,0.0,0.0,0.3232,0.3069,0.2849,0.2533,0.2533,0.2033,0.1249,0.1338,0.0775,0.0,0.0,-0.007,-0.0339,-0.023,-0.0098,0.0,0.0,0.0,0.0,0.0,0.0,-0.0041,-0.0168,-0.0221,-0.0328,-0.0741,0.0,-0.1277,-0.1568,-0.1816,-0.1995,-0.1995,-0.1953,-0.1896,-0.1839,-0.1733,-0.1754,-0.2185,-0.2318,0.0,0.0,0.0,0.0,0.0,0.0,0.0,-0.7946,-0.9106,-0.9863,0.0,-1.0237,0.0,-0.9892,-0.9876,-0.9843,0.0,-0.9762,-0.973,-0.9583,-0.9721,-0.973,-0.9579,-0.9875,-1.0167,-1.0413,-1.1438,-1.2175,-1.2467,-1.2716,-1.2813,-1.2813,-1.2813,-1.2813,-1.2813,0.0,-1.2813,-1.2802,-1.2619,-1.2571,-1.2533,-1.2156,-1.2016,-1.2027,-1.2161,-1.2303,-1.245,0.0,0.0,0.0,0.0,0.0,0.0,0.0,0.0,0.0,0.0,0.0,0.0,0.0,0.0,0.0,0.0,0.0,0.0,0.0,0.0,0.0,0.0,0.0,0.0,0.0,0.0,0.0,0.0,0.0,0.0,0.0,0.0,0.0,0.0,0.0,0.0,0.0,0.0317,0.0,-0.0535,-0.0326,-0.0254,-0.0247,0.0,0.0,0.0,0.0,0.0,0.0,0.0,-0.0042,-0.0087,-0.0415,-0.0495,-0.0632,-0.1239,-0.1472,-0.1548,-0.1879,-0.1989,-0.2027,-0.2016,-0.1946,-0.1855,-0.1815,-0.1691,-0.1501,-0.1337,0.0,-0.1945,-0.1254,-0.2244,-0.3459,-0.4283,0.0,-0.6331,-0.8585,-0.8947,-0.929,-1.0097,-1.0249,-1.0265,-1.0216,-1.0018,-0.9908,-0.9888,-0.9726,-0.9579,-0.9579,-0.9579,-0.9579,-0.9579,-0.9579,-0.9875,-1.0413,-1.134,-1.1883,-1.2029,-1.2467,-1.2716,-1.2813,-1.2813,-1.2813,-1.2813,-1.2813,-1.2813,-1.2807,-1.2775,-1.278,-1.2786,-1.2474,-1.2388,-1.2414,-1.2414,-1.2414,-1.2447,0.0,0.0,0.0,0.0,0.0,0.0,0.0,0.0,0.0,0.0,0.5282,0.5282,0.0,0.0,0.0,0.0,0.0,0.0,0.0,0.0,0.0,0.0,0.0,0.0,0.0,0.0,0.0,0.0,0.0,0.0,0.0,0.0,0.0,0.0,0.0,0.0,0.0,0.0407,0.0133,-0.0325,-0.0129,-0.0063,-0.0062,0.0,0.0,0.0,0.0,0.0,0.0,0.0,-0.0308,-0.0283,-0.045,-0.0477,-0.0614,-0.1284,-0.1503,-0.1664,-0.1963,-0.2067,-0.2076,-0.2002,-0.1915,-0.1819,-0.1757,-0.1593,0.0,0.0,0.0,-0.1333,-0.1194,-0.1454,0.0,-0.4087,0.0,0.0,0.0,0.0,-0.8431,0.0,0.0,0.0,0.0,0.0,0.0,0.0,0.0,-0.9579,-0.9579,-0.9579,-0.9579,-0.9579,-0.9579,-0.9875,-1.0413,-1.0556,-1.1096,-1.198,-1.2078,-1.237,-1.2813,-1.2813,-1.2813,-1.2813,-1.2813,0.0,-1.2797,-1.2554,-1.2587,-1.277,-1.2327,-1.2237,-1.2414,-1.2414,-1.2414,-1.2447,0.0,0.0,0.0,0.0,0.0,0.0,0.0,0.5709,0.5789,0.5828,0.5595,0.5401,0.5321,0.5401,0.5362,0.0,0.0,0.0,0.0,0.0,0.0,0.0,0.0,0.0,0.0,0.0,0.0,0.0,0.0,0.0,0.0,0.0,0.0,0.0,0.0,0.0,0.0,0.0,0.0,0.0,0.0,0.0,0.0,0.0,0.0,0.0,0.0,0.0,0.0,0.0,-0.03,-0.0464,-0.0665,-0.0705,-0.0792,-0.1355,-0.1637,-0.1865,-0.2048,-0.2086,-0.2091,-0.2017,-0.1895,-0.1762,-0.1693,0.0,0.0,0.0,-0.1233,-0.1251,-0.1212,0.0,0.0,0.0,0.0,0.0,0.0,0.0,0.0,0.0,0.0,0.0,0.0,0.0,0.0,0.0,0.0,-0.9579,-0.9579,-0.9579,-0.9579,-0.9579,-0.9579,-0.9727,-0.9969,-1.0265,-1.0659,-1.1145,-1.1736,-1.2127,-1.237,-1.2662,-1.2813,-1.2813,-1.2813,-1.2813,-1.2802,-1.2641,-1.2662,-1.2791,-1.2554,-1.2199,-1.1761,-1.1761,-1.1424,-1.0955,0.0,0.0,0.0,0.0,0.0,0.0,0.0,0.5825,0.5906,0.6103,0.5831,0.5556,0.5437,0.5518,0.5518,0.0,0.0,0.0,0.0,0.0,0.0,0.0,0.0,0.0,0.0,0.0,0.0,0.0,0.0,0.0,0.0,0.0,0.0,0.0,0.0,0.0,0.0,0.0,0.0,0.0,0.0,0.0,0.0,0.0,0.0,0.0,0.0,0.0,0.0,0.0,-0.0243,-0.052,-0.0737,-0.0848,-0.106,-0.138,-0.173,-0.1979,-0.2038,-0.2076,-0.2082,-0.2008,-0.1864,-0.176,-0.163,-0.1436,0.0,0.0,-0.1235,-0.1281,-0.1225,0.0,0.0,0.0,0.0,0.0,0.0,0.0,0.0,0.0,0.0,0.0,0.0,0.0,0.0,0.0,0.0,0.0,-0.9579,-0.9579,-0.9579,-0.9579,-0.9579,-0.9579,-0.9579,-1.0019,-1.0314,-1.0413,-1.1243,-1.1731,-1.1834,-1.237,-1.2613,-1.2613,-1.2764,-1.2662,-1.2462,-1.271,-1.2516,-1.2122,-1.2365,-1.1819,-1.0881,-1.0881,-1.0342,-0.9608,0.0,0.0,0.0,0.0,0.0,0.0,0.0,0.5518,0.5637,0.5676,0.5637,0.5676,0.5825,0.5712,0.5518,0.0,0.0,0.0,0.0,0.0,0.0,0.0,0.0,0.0,0.0,0.0,0.0,0.0,0.0,0.0,0.0,0.0,0.0,0.0,0.0,0.0,0.0,0.0,0.0,0.0,0.0,0.0,0.0,0.0,0.0,0.0,0.0,0.0,0.0,0.0,0.0,-0.0117,-0.0379,-0.0767,-0.1237,-0.1424,0.0,0.0,-0.2007,-0.2045,-0.2041,-0.1926,-0.1802,-0.167,-0.1523,0.0,0.0,-0.1294,-0.1233,-0.1224,-0.1288,-0.1295,-0.1623,0.0,0.0,-0.303,0.0,0.0,0.0,0.0,0.0,0.0,0.0,0.0,0.0,0.0,0.0,0.0,-0.9579,-0.9579,-0.9579,-0.9579,-0.9579,-0.9579,-0.9579,-0.9628,-0.992,-1.0413,-1.0511,-1.0801,-1.1292,-1.1829,-1.2078,-1.2127,-1.2565,-1.2262,0.0,-1.2414,-1.1629,-1.0002,-1.0979,-1.0685,-0.9752,-0.9752,-0.9706,-0.9608,0.0,0.0,0.0,0.0,0.0,0.0,0.5234,0.5428,0.5598,0.5598,0.5479,0.5479,0.5712,0.5484,0.5351,0.5473,0.0,0.0,0.0,0.0,0.0,0.0,0.0,0.0,0.0,0.0,0.3153,0.2643,0.2285,0.0,0.0,0.0,0.0,0.0,0.0,0.0,0.0,0.0,0.0,0.0,0.0,0.0,0.0,0.0,0.0,0.0,0.0,0.0,0.0,0.0,0.0,0.0,-0.0147,-0.0488,0.0,0.0,-0.1383,-0.163,-0.1869,-0.1988,-0.1991,-0.1907,-0.1767,-0.1571,-0.1365,0.0,-0.1257,-0.11,-0.1169,-0.1281,-0.1294,-0.1296,-0.1575,-0.2422,0.0,0.0,0.0,0.0,0.0,0.0,0.0,0.0,0.0,0.0,0.0,0.0,0.0,0.0,-0.9579,-0.9579,-0.9579,-0.9579,-0.9579,-0.9579,-0.9579,-0.9579,-0.9727,-0.992,-1.0265,-1.0507,-1.0708,-1.0939,-1.1033,-1.1033,-1.0935,-1.0641,0.0,-1.069,-1.0346,-0.9657,-1.0047,-0.9604,-0.8616,-0.8616,-0.8219,-0.7677,0.0,0.0,0.0,0.0,0.0,0.4557,0.436,0.4591,0.4851,0.5121,0.5046,0.5124,0.5559,0.5084,0.4836,0.5121,0.5096,0.0,0.0,0.0,0.0,0.0,0.0,0.0,0.0,0.0,0.2449,0.1943,0.1628,0.1483,0.0,0.0,0.0,0.0,0.0,0.0,0.0,0.0,0.0,0.0,0.0,0.0,0.0,0.0,0.0,0.0,0.0,0.0,0.0,0.0,0.0,0.0,0.0,0.0,0.0,0.0,-0.1067,-0.1405,-0.1632,-0.1821,-0.1908,-0.1847,-0.1657,-0.1421,0.0,0.0,-0.1061,-0.0943,-0.1061,-0.1218,-0.1296,-0.1296,-0.1492,-0.2041,0.0,-0.2704,0.0,0.0,0.0,0.0,0.0,0.0,0.0,0.0,0.0,0.0,0.0,0.0,-0.9579,-0.9579,-0.9579,-0.9579,-0.9579,-0.9579,-0.9579,-0.9579,-0.9579,-0.9628,-0.9969,-1.0167,-1.0167,-1.0105,-1.0047,-0.9998,-0.9653,-0.9308,0.0,-0.946,-0.9209,-0.8665,-0.9011,-0.8467,-0.7528,-0.7528,-0.703,-0.6387,0.0,0.0,0.0,0.0,0.0,0.0,0.2543,0.2715,0.3121,0.4016,0.4107,0.4499,0.5482,0.4535,0.3908,0.4107,0.4705,0.0,0.0,0.0,0.0,0.0,0.0,0.0,0.0,0.0,0.1125,0.1121,0.0386,0.0036,0.0036,0.0,0.0,0.0,0.0,0.0,0.0,0.0,0.0,0.0,0.0,0.0,0.0,0.0,0.0,0.0,0.0,0.0,0.0,0.0,0.0,0.0,0.0,0.0,0.0,0.0,-0.0836,-0.1283,-0.1309,-0.1546,-0.1782,-0.1721,-0.1464,-0.118,0.0,0.0,-0.0668,-0.0864,-0.0904,-0.0982,-0.1257,-0.1296,-0.1296,-0.1296,-0.1962,0.0,0.0,0.0,0.0,0.0,0.0,0.0,0.0,0.0,0.0,0.0,0.0,0.0,-0.9579,-0.9579,-0.9579,-0.9579,-0.9579,-0.9579,-0.9579,-0.9579,-0.9579,-0.9579,-0.9628,-0.9628,-0.9579,-0.932,-0.9217,-0.9213,-0.9201,-0.8609,0.0,-0.9065,-0.8368,-0.6534,-0.7624,-0.7378,-0.6437,-0.6437,-0.6387,-0.6387,0.0,0.0,0.0,0.0,0.0,0.0,0.0,0.25,0.2702,0.2963,0.3006,0.3128,0.3433,0.3073,0.285,0.2976,0.368,0.0,0.0,0.0,0.0,0.0,0.0,0.0,0.0,0.0,0.0841,0.036,0.0106,0.0,0.0,0.0,0.0,0.0,0.0,0.0,0.0,0.0,0.0,0.0,0.0,0.0,0.0,0.0,0.0,0.0,0.0,0.0,0.0,0.0,0.0,0.0,0.0,0.0,0.0,0.0,0.0,0.0,-0.0963,-0.1093,-0.1158,-0.1144,-0.105,-0.0871,-0.0677,-0.0601,-0.0616,-0.0665,-0.0814,-0.1001,-0.1254,-0.1279,-0.1233,-0.1293,-0.1471,0.0,0.0,0.0,0.0,0.0,0.0,0.0,0.0,0.0,0.0,0.0,0.0,0.0,-0.9579,-0.9579,-0.9579,-0.9579,-0.9579,-0.9579,-0.9579,-0.9579,-0.9579,-0.9579,-0.9031,-0.8783,-0.873,-0.773,-0.7279,-0.7279,-0.6877,-0.6631,-0.6539,-0.6983,-0.6833,-0.6434,-0.6783,-0.6684,-0.6387,-0.6387,-0.6387,-0.6387,0.0,0.0,0.0,0.0,0.0,0.0,0.0,0.1503,0.1684,0.2016,0.2046,0.2149,0.245,0.2164,0.1965,0.2054,0.241,0.0,0.0,0.0,0.0,0.0,0.0,0.0,0.0827,0.0743,0.0462,0.0,0.0,0.0,0.0,0.0,0.0,0.0,0.0,0.0,0.0,0.0,0.0,0.0,0.0,0.0,-0.0135,0.0,0.0,0.0,0.0,0.0,0.0,0.0,0.0,0.0,0.0,0.0,0.0,0.0,-0.0106,0.0,0.0,-0.0774,-0.0876,-0.0876,-0.0763,0.0,0.0,-0.0387,-0.0413,-0.0578,-0.0689,-0.0878,-0.1251,-0.1232,-0.1222,-0.1291,-0.1232,0.0,0.0,0.0,0.0,0.0,0.0,0.0,0.0,0.0,0.0,0.0,0.0,0.0,-0.9579,-0.9579,-0.9579,-0.9579,-0.9579,-0.9579,-0.9579,-0.9278,-0.913,-0.913,-0.8333,-0.7935,-0.7935,-0.6786,-0.6239,-0.6239,-0.5689,-0.5539,0.0,-0.5942,-0.6092,-0.6239,-0.6337,-0.6387,-0.6387,-0.6387,-0.6387,-0.6387,0.0,0.0,0.0,0.0,0.0,0.0,0.0,0.0,0.0291,0.1093,0.1224,0.1502,0.2251,0.1652,0.1214,0.1203,0.0,0.0,0.0,0.0,0.0,0.0,0.0,0.0,0.0,0.0,0.0,0.0,0.0,0.0,0.0,0.0,0.0,0.0,0.0,0.0,0.0,0.0,0.0,0.0,0.0,-0.0135,0.0,0.0,0.0,0.0,0.0,0.0,0.0,0.0,0.0,0.0,0.0,0.0,0.0,0.0,0.0,0.0,0.0,0.0,0.0,0.0,0.0,0.0,0.0,-0.0188,0.0,-0.0527,-0.0605,-0.0761,-0.1212,-0.1232,-0.1222,-0.1291,-0.1234,0.0,0.0,0.0,0.0,0.0,0.0,0.0,0.0,0.0,0.0,0.0,0.0,0.0,-0.9579,-0.9579,-0.9579,-0.9525,-0.9525,-0.9529,-0.9579,-0.8779,-0.8382,-0.8382,-0.7537,-0.7138,-0.7089,-0.6289,-0.5892,0.0,-0.5391,-0.519,-0.524,-0.5741,-0.5942,-0.5992,-0.6287,-0.6387,-0.6387,-0.6387,-0.6387,-0.6387,0.0,0.0,0.0,0.0,0.0,0.0,0.0,0.0,0.0,0.0,0.0288,0.0393,0.0572,0.0429,0.0323,0.0,0.0,0.0,0.0,0.0,0.0,0.0,0.0,0.0,0.0,0.0,0.0,0.0,0.0,0.0,0.0,0.0,0.0,0.0,0.0,0.0,0.0,0.0,0.0,0.0,-0.0169,-0.027,0.0,0.0,0.0,0.0,-0.0742,-0.0337,0.0,0.0,0.0,0.0,0.0,0.0,0.0,0.0,0.1243,0.0844,0.0757,0.0,-0.0178,-0.0178,-0.0144,-0.0108,0.0,0.0,0.0,0.0,0.0,-0.0746,-0.1208,-0.1232,-0.1222,-0.1291,-0.1291,0.0,0.0,0.0,0.0,0.0,0.0,0.0,0.0,0.0,0.0,0.0,0.0,-0.9579,-0.9579,-0.9579,-0.9327,-0.868,-0.868,-0.8977,-0.9579,-0.8779,-0.8382,-0.8382,-0.6939,-0.6289,-0.6242,-0.5438,-0.5087,-0.5085,-0.4935,-0.4987,-0.519,-0.534,-0.5489,-0.5737,-0.5989,-0.6092,-0.6139,-0.6337,-0.6387,-0.6387,0.0,0.0,0.0,0.0,0.0,0.0,0.0,0.0,0.0,0.0,0.0,0.0,0.0,0.0,0.0,0.0,0.0,0.0,0.0,0.0,0.0,0.0,0.0,0.0,0.0,0.0,0.0,0.0,0.0,0.0,0.0,0.0,0.0,0.0,0.0,0.0,0.0,0.0,0.0,-0.0034,-0.0202,0.0,0.0,0.0,0.0,0.0,-0.0471,0.0067,0.0,0.1208,0.1879,0.2586,0.0,0.0,0.0,0.0,0.1846,0.1544,0.1544,0.0807,0.0,0.0,0.0,0.0,0.0,0.0,0.0,0.0,0.0,0.0,-0.1207,-0.1232,0.0,-0.1291,-0.1284,0.0,0.0,0.0,0.0,0.0,0.0,0.0,0.0,0.0,0.0,0.0,0.0,-0.9247,-0.8822,-0.8912,-0.8631,-0.7779,-0.7779,-0.799,-0.8482,-0.7686,-0.7285,-0.7288,-0.6037,-0.5438,-0.5438,-0.4985,-0.4784,-0.4784,-0.4784,-0.4885,-0.5037,-0.514,-0.529,-0.5438,-0.5689,-0.5889,-0.6042,-0.6139,-0.6289,-0.6387,0.0,0.0,0.0,0.0,0.0,0.0,0.0,0.0,0.0,0.0,0.0,0.0,0.0,0.0,0.0,0.0,0.0,0.0,0.0,0.0,0.0,0.0,0.0,0.0,0.0,0.0,0.0,0.0,0.0,0.0,0.0,0.0,0.0,0.0,0.0,0.0,0.0,0.0,-0.0034,-0.0067,-0.027,0.0,0.0,0.0,0.0,0.0,0.0,0.0,0.0,0.1878,0.2716,0.3625,0.3054,0.0,0.0,0.0,0.0,0.0,0.2248,0.1209,0.0135,0.0168,0.0067,0.0,0.0,0.0,0.0,0.0,0.0,0.0,0.0,0.0,0.0,0.0,0.0,0.0,0.0,0.0,0.0,0.0,0.0,0.0,0.0,0.0,0.0,0.0,0.0,-0.8353,-0.7687,-0.787,-0.762,-0.6835,-0.6832,-0.6798,-0.6677,-0.6205,-0.5974,-0.5992,-0.5188,-0.4784,-0.4784,-0.477,-0.4766,-0.4766,0.0,0.0,-0.4816,-0.5033,-0.514,-0.5188,-0.5438,-0.5689,-0.5892,-0.5942,-0.6089,-0.6337,0.0,0.0,0.0,0.0,0.0,0.0,0.0,0.0,0.0,0.0,0.0,0.0,0.0,0.0,0.0,0.0,0.0,0.0,0.0,0.0,0.0,0.0,0.0,0.0,0.0,0.0,0.0,0.0,0.0,0.0,0.0,0.0,0.0,0.0,0.0,0.0,0.0,0.0,-0.0101,-0.027,-0.0404,0.0,0.0,0.0,0.0,0.0,0.0,0.0,0.0,0.1779,0.2517,0.3326,0.3558,0.0,0.0,0.0,0.0,0.0,0.295,0.1878,0.0706,0.0875,0.0471,-0.0034,0.0,0.0,0.0,0.0,0.0,0.0,0.0,0.0,0.0,0.0,0.0,0.0,0.0,0.0,0.0,0.0,0.0,0.0,0.0,0.0,0.0,0.0,0.0,-0.6161,-0.6434,-0.6481,-0.6378,-0.5986,-0.5986,-0.5479,-0.4413,-0.5412,-0.5948,-0.5992,-0.5188,-0.4784,-0.4782,-0.4761,-0.4728,-0.4728,0.0,-0.4728,-0.4734,-0.4806,-0.4885,-0.4885,-0.5138,-0.529,-0.534,-0.5586,-0.5837,-0.6092,0.0,0.0,0.0,0.0,0.0,0.0,0.0,0.0,0.0,0.0,0.0,0.0,0.0,0.0,0.0,0.0,0.0,0.0,0.0,0.0,0.0,0.0,0.0,0.0,0.0,0.0,0.0,0.0,0.0,0.0,0.0,0.0471,0.0465,0.0038,0.0884,0.079,0.0035,0.0816,0.0874,0.0471,0.0,0.0,0.0,0.0,0.0,0.0,0.0,0.0,0.0,0.0,0.2452,0.2956,0.3155,0.0,0.0,0.0,0.0,0.0,0.3692,0.2683,0.1482,0.1471,0.0584,-0.0346,-0.0456,0.0,0.0,0.0,0.0,0.0,0.0,0.0,0.0,0.0,0.0,0.0,0.0,0.0,0.0,0.0,0.0,0.0,0.0,0.0,0.0,0.0,0.0,0.0,-0.4911,-0.5046,-0.4835,-0.4236,-0.4235,-0.3981,-0.342,-0.4016,-0.4504,-0.4884,-0.474,-0.4694,-0.4692,-0.4653,-0.4634,-0.4634,0.0,-0.4634,-0.464,-0.473,-0.4767,-0.4771,-0.4918,-0.5087,-0.524,-0.5486,-0.5334,-0.4981,0.0,0.0,0.0,0.0,0.0,0.0,0.0,0.0,0.0,0.0,0.0,0.0,0.0,0.0,0.0,0.0,0.0,0.0,0.0,0.0,-0.0038,-0.0078,-0.0079,-0.0079,-0.0079,-0.0077,-0.0077,-0.0079,-0.0079,0.0039,0.0314,0.1176,0.1241,0.0648,0.1819,0.1665,0.0601,0.1681,0.1756,0.1143,0.0,0.0,0.0,0.0,0.0,0.0,0.0,0.0,0.0,0.0,0.0,0.0,0.0,0.0,0.0,0.3558,0.3658,0.3725,0.4097,0.3255,0.2228,0.1874,0.0,-0.0564,-0.0652,0.0,0.0,0.0,0.0,0.0,0.0,0.0,0.0,0.0,0.0,0.0,0.0,0.0,0.0,0.0,0.0,0.0,0.0,0.0,0.0,0.0,0.0,0.0,-0.3441,-0.3602,-0.344,-0.2913,-0.2897,-0.2875,-0.28,-0.2937,-0.3206,-0.3711,-0.4189,-0.4429,-0.4427,-0.4501,-0.454,-0.454,-0.454,-0.454,-0.4549,-0.4663,-0.4708,-0.4716,-0.4752,-0.4784,-0.4786,-0.5035,-0.4477,-0.3571,0.0,0.0,0.0,0.0,0.0,0.0,0.0,0.0,0.0,0.0,0.0,0.0,0.0,0.0,0.0,0.0,0.0,0.0,0.0,0.0,-0.0078,-0.0275,-0.0275,-0.0275,-0.0275,-0.0274,-0.0274,-0.0275,-0.0275,0.0235,0.1215,0.2035,0.2384,0.2339,0.2433,0.2338,0.2137,0.2258,0.1891,0.1277,0.1311,0.0,0.0,0.0,0.0,0.0,0.0,0.0,0.0,0.0,0.0,0.0,0.0,0.0,0.2787,0.3159,0.3259,0.3326,0.3725,0.3384,0.2765,0.1978,0.0,0.0,-0.0797,-0.0794,0.0,0.0,0.0,0.0,0.0,0.0,0.0,0.0,0.0,0.0,0.0,0.0,0.0,0.0,0.0,0.0,0.0,0.0,0.0,0.0,0.0,0.0,-0.2294,-0.2294,-0.2463,-0.2865,-0.2856,-0.2638,-0.2249,-0.2695,-0.2978,-0.3144,-0.3713,-0.3949,-0.3947,-0.4295,-0.4398,-0.4398,-0.4398,-0.4398,-0.4413,-0.4636,-0.4708,-0.4716,-0.4752,-0.418,-0.3374,-0.3627,-0.3071,-0.2163,0.0,0.0,0.0,0.0,0.0,0.0,0.0,0.0,0.0,0.0,0.0,0.0,0.0,0.0,0.0,0.0,0.0,0.0,0.0,-0.0308,-0.0393,-0.0471,-0.0471,-0.055,-0.0668,-0.055,-0.0471,-0.0471,0.0157,0.0862,0.1685,0.2778,0.2895,0.219,0.3394,0.3079,0.1788,0.3188,0.3176,0.224,0.2517,0.2587,0.0,0.0,0.0,0.0,0.0,0.0,0.0,0.0,0.2287,0.2388,0.2388,0.252,0.272,0.2855,0.3025,0.3293,0.3692,0.2885,0.1926,0.184,0.0,0.0,0.0,0.0,0.0,0.0,0.0,0.0,0.0,0.0,0.0,0.0,0.0,0.0,0.0,0.0,0.0,0.0,0.0,0.0,0.0,0.0,0.0,0.0,0.0,0.0,-0.1641,-0.1627,-0.1711,-0.1898,-0.1883,-0.1797,-0.164,-0.1812,-0.1913,-0.199,-0.2855,-0.3255,-0.3299,-0.373,-0.3901,-0.3901,-0.4215,-0.4351,-0.4365,-0.4549,-0.4624,-0.459,-0.4033,-0.3173,-0.2217,-0.2318,-0.1662,-0.0806,0.0,0.0,0.0,0.0,0.0,0.0,0.0,0.0,0.0,0.0,0.0,0.0,0.0,0.0,0.0,0.0,0.0,0.0,-0.0411,-0.054,-0.0628,-0.0707,-0.0707,-0.0786,-0.1021,-0.0904,-0.0786,-0.0707,0.051,0.145,0.2117,0.3249,0.3327,0.2546,0.3889,0.3579,0.2115,0.3706,0.3754,0.2837,0.3109,0.3141,0.0,0.0,0.0,0.0,0.0,0.0,0.0,0.0,0.2188,0.2188,0.2188,0.2354,0.2554,0.2554,0.2788,0.309,0.3389,0.2584,0.1654,0.0,0.0,0.0,0.0,0.0,0.0,0.0,0.0,0.0,0.0,0.0,0.0,0.0,0.0,0.0,0.0,0.0,0.0,0.0,0.0,0.0,0.0,0.0,0.0,0.0,0.0,-0.1305,-0.1305,-0.1297,-0.1296,-0.1305,-0.1297,-0.1296,-0.1305,-0.1305,-0.1305,-0.1306,-0.2038,-0.2469,-0.2662,-0.3151,-0.343,-0.3631,-0.3942,-0.4002,-0.3854,-0.4036,-0.3933,-0.3597,-0.2943,-0.2016,-0.1109,-0.1109,-0.0403,0.0454,0.0,0.0,0.0,0.0,0.0,0.0,0.0,0.0,0.0,0.0,0.0,0.0,0.0,0.0,0.0,0.0,0.0,0.0,-0.0619,-0.0612,-0.0707,-0.0903,-0.0904,-0.1021,-0.1296,-0.1296,-0.1178,-0.0904,0.0784,0.1921,0.2511,0.3411,0.3802,0.3802,0.3802,0.3712,0.3588,0.3588,0.3302,0.2807,0.2884,0.2619,0.221,0.0,0.0,0.0,0.0,0.0,0.0,0.0,0.2188,0.2188,0.2188,0.2188,0.2188,0.2188,0.2453,0.2686,0.2686,0.2551,0.0,0.0,0.0,0.0,0.0,0.0,0.0,0.0,0.0,0.0,0.0,0.0,0.0,0.0,0.0,0.0,0.0,0.0,0.0,0.0,0.0,0.0,0.0,0.0,0.0,0.0,-0.1305,-0.1305,-0.1305,-0.1318,-0.1316,-0.1304,-0.1318,-0.1316,-0.1305,-0.1305,-0.1305,-0.1305,-0.1305,-0.1575,-0.2129,-0.256,-0.3072,-0.3585,-0.3585,-0.3264,-0.2822,-0.2924,-0.2433,-0.1563,-0.1563,-0.0907,0.0,0.0,0.0706,0.1617,0.0,0.0,0.0,0.0,0.0,0.0,0.0,0.0,0.0,0.0,0.0,0.0,0.0,0.0,0.0,0.0,0.0,0.0,-0.0817,-0.0984,-0.1092,-0.1111,-0.1168,-0.1218,-0.1296,-0.0825,-0.055,-0.0471,0.0784,0.1685,0.2314,0.3331,0.3608,0.3335,0.3645,0.3435,0.2869,0.349,0.3392,0.2885,0.2925,0.2875,0.2666,0.0,0.0,0.0,0.0,0.0,0.0,0.0,0.0,0.0,0.2188,0.2354,0.252,0.2255,0.2453,0.2686,0.2686,0.0,0.0,0.0,0.0,0.0,0.0,0.0,0.0,0.0,0.0,0.0,0.0,0.0,0.0,0.0,0.0,0.0,0.0,0.0,0.0,0.0,0.0,0.0,0.0,0.0,0.0,0.0,-0.1296,-0.1284,-0.1284,-0.1316,-0.1314,-0.1284,-0.1315,-0.1314,-0.1284,-0.1284,-0.1284,-0.1284,-0.1284,-0.1393,-0.1573,-0.2081,-0.2386,-0.2531,-0.2349,-0.2284,-0.2263,-0.1865,-0.1217,-0.0454,-0.0252,0.0353,0.1111,0.1111,0.1313,0.1617,0.0,0.0,0.0,0.0,0.0,0.0,0.0,0.0,0.0,0.0,0.0,0.0,0.0,0.0,0.0,0.0,0.0,0.0,0.0,-0.1164,-0.1236,-0.123,-0.1286,-0.1178,-0.0904,-0.051,-0.0196,0.0039,0.098,0.1724,0.2314,0.2979,0.3137,0.2865,0.3137,0.2979,0.255,0.3059,0.3067,0.2705,0.2775,0.2761,0.2659,0.0,0.0,0.0,0.0,0.0,0.0,0.0,0.0,0.0,0.2188,0.2354,0.2453,0.2255,0.2354,0.2487,0.2487,0.0,0.0,0.0,0.0,0.0,0.0,0.0,0.0,0.0,0.0,0.0,0.0,0.0,0.0,0.0,0.0,0.0,0.0,0.0,0.0,0.0,0.0,0.0,0.0,0.0,0.0,-0.1284,-0.1307,-0.1296,-0.1296,-0.1296,-0.1296,-0.1296,-0.1296,-0.1296,-0.1296,-0.1296,-0.1296,-0.1296,-0.1296,-0.1317,-0.1312,-0.1654,-0.1918,-0.2063,-0.1461,-0.1264,-0.1323,-0.0233,0.0485,0.0948,0.1106,0.1406,0.1749,0.1749,0.1699,0.1598,0.0,0.0,0.0,0.0,0.0,0.0,0.0,0.0,0.0,0.0,0.0,0.0,0.0,0.0,0.0,0.0,0.0,0.0,0.0,0.0,-0.1187,-0.1209,-0.1137,-0.0825,-0.0157,-0.0118,0.0157,0.0785,0.1333,0.1882,0.2431,0.247,0.2511,0.2511,0.2511,0.2507,0.2503,0.2508,0.2471,0.2379,0.2484,0.2474,0.2377,0.2326,0.0,0.0,0.0,0.0,0.0,0.0,0.0,0.0,0.2188,0.2188,0.2188,0.2188,0.2188,0.2188,0.0,0.0,0.0,0.0,0.0,0.0,0.0,0.0,0.0,0.0,0.0,0.0,0.0,0.0,0.0,0.0,0.0,0.0,0.0,0.0,0.0,0.0,0.0,0.0,0.0,0.0,-0.1295,-0.1293,-0.1292,-0.1292,-0.1292,-0.1292,-0.1293,-0.1296,-0.1296,-0.1296,-0.1296,-0.1296,-0.1296,-0.1296,-0.1296,-0.1296,-0.1298,-0.1286,-0.1519,-0.1804,-0.0727,-0.0175,0.009,0.1588,0.2257,0.2302,0.2393,0.2239,0.2014,0.2014,0.1869,0.1625,0.0,0.0,0.0,0.0,0.0,0.0,0.0,0.0,0.0,0.0,0.0,0.0,0.0,0.0,0.0,0.0,0.0,0.0,0.0,0.0,-0.1036,-0.0445,-0.0038,0.051,0.1176,0.1176,0.149,0.2079,0.1764,0.1685,0.1803,0.2275,0.2511,0.2511,0.2511,0.2484,0.2441,0.2491,0.245,0.2326,0.2467,0.2474,0.2381,0.2369,0.2336,0.0,0.0,0.0,0.0,0.0,0.0,0.0,0.2188,0.2188,0.2188,0.2188,0.2188,0.2188,0.0,0.0,0.0,0.0,0.0,0.0,0.0,0.0,0.0,0.0,0.0,0.0,0.0,0.0,0.0,0.0,0.0,0.0,0.0,0.0,0.0,0.0,0.0,0.0,0.0,0.0,-0.1286,-0.1224,-0.1221,-0.1221,-0.1221,-0.1221,-0.1232,-0.1295,-0.1296,-0.1296,-0.1296,-0.1296,-0.1296,-0.1296,-0.1296,-0.1296,-0.1297,-0.1303,-0.0801,0.0123,0.0699,0.132,0.193,0.2266,0.2371,0.2256,0.2457,0.2428,0.2256,0.2256,0.2081,0.1908,0.0,0.0,0.0,0.0,0.0,0.0,0.0,0.0,0.0,0.0,0.0,0.0,0.0,0.0,0.0,0.0,0.0,0.0,0.0,0.0,-0.0537,0.0151,0.0465,0.0903,0.1568,0.1607,0.1882,0.2511,0.2195,0.2038,0.2038,0.2353,0.2511,0.2511,0.2511,0.2477,0.2383,0.2452,0.2378,0.2304,0.2364,0.237,0.2339,0.231,0.2281,0.2248,0.2223,0.0,0.0,0.0,0.0,0.0,0.0,0.0,0.2188,0.2188,0.2188,0.2188,0.0,0.0,0.0,0.0,0.0,0.0,0.0,0.0,0.0,0.0,0.0,0.0,0.0,0.0,0.0,0.0,0.0,0.0,0.0,0.0,0.0,0.0,0.0,0.0,0.0,0.0,-0.1094,-0.1042,-0.0978,-0.0909,-0.0909,-0.0909,-0.0919,-0.0981,-0.096,-0.0959,-0.0982,-0.0971,-0.0971,-0.0982,-0.0982,-0.0746,-0.0392,-0.0707,-0.0278,0.0731,0.1259,0.1763,0.2211,0.2549,0.2653,0.2585,0.2724,0.2647,0.2434,0.2434,0.2306,0.2091,0.0,0.0,0.0,0.0,0.0,0.0,0.0,0.0,0.0,0.0,0.0,0.0,0.0,0.0,0.0,0.0,0.0,0.0,0.0,0.0,0.0,0.0745,0.0864,0.1177,0.1724,0.1763,0.1999,0.2511,0.2511,0.2511,0.2511,0.2511,0.2511,0.2511,0.2511,0.2471,0.2369,0.2378,0.2344,0.2284,0.2295,0.2299,0.2292,0.2232,0.2209,0.2202,0.221,0.2188,0.2188,0.2188,0.0,0.0,0.0,0.0,0.2188,0.2188,0.2188,0.2188,0.0,0.0,0.0,0.0,0.0,0.0,0.0,0.0,0.0,0.0,0.0,0.0,0.0,0.0,0.0,0.0,0.0,0.0,0.0,0.0,0.0,0.0,0.0,0.0,0.0,0.0,-0.0873,-0.0833,-0.0701,-0.0598,-0.0598,-0.0598,-0.0606,-0.0585,-0.06,-0.06,-0.0589,-0.0616,-0.0539,-0.0392,-0.0235,0.0235,0.0979,0.047,0.0517,0.1015,0.1583,0.1918,0.2001,0.2615,0.2938,0.2989,0.2989,0.2854,0.2672,0.2672,0.2493,0.2234,0.0,0.0,0.0,0.0,0.0,0.0,0.0,0.0,0.0,0.0,0.0,0.0,0.0,0.0,0.0,0.0,0.0,0.0,-0.0315,0.0,0.0,0.1449,0.196,0.2275,0.2392,0.2392,0.2431,0.2511,0.2511,0.2511,0.0,0.0,0.2511,0.2511,0.2511,0.2411,0.2314,0.236,0.232,0.2226,0.2279,0.2299,0.2292,0.2232,0.2209,0.2202,0.221,0.2188,0.2188,0.2188,0.2188,0.0,0.0,0.0,0.2188,0.2188,0.2188,0.0,0.0,0.0,0.0,0.0,0.0,0.0,0.0,0.0,0.0,0.0,0.0,0.0,0.0,0.0,0.0,0.0,0.0,0.0,0.0,0.0,0.0,0.0,0.0,0.0,0.0,0.0,-0.083,-0.067,-0.06,-0.0602,-0.0602,-0.0602,-0.0616,-0.0608,-0.0605,-0.0611,-0.0589,-0.0587,-0.0235,0.0431,0.1213,0.1878,0.2504,0.2426,0.2262,0.2113,0.2356,0.2545,0.2653,0.2792,0.2875,0.2931,0.2931,0.2886,0.2841,0.2841,0.2736,0.2554,0.0,0.0,0.0,0.0,0.0,0.0,0.0,0.0,0.0,0.0,0.0,0.0,0.0,0.0,0.0,-0.1109,-0.0448,0.0176,0.068,0.1262,0.175,0.2035,0.2336,0.2511,0.2511,0.2511,0.2511,0.2511,0.2511,0.0,0.0,0.2545,0.2544,0.2514,0.2582,0.2526,0.2347,0.2371,0.2315,0.2209,0.2237,0.2233,0.223,0.2204,0.2194,0.2191,0.2197,0.2188,0.2188,0.2188,0.2188,0.2188,0.2188,0.0,0.0,0.0,0.0,0.0,0.0,0.0,0.0,0.0,0.0,0.0,0.0,0.0,0.0,0.0,0.0,0.0,0.0,0.0,0.0,0.0,0.0,0.0,0.0,0.0,0.0,0.0,0.0,0.0,0.0,0.0,-0.0521,-0.0446,-0.0313,-0.0281,-0.0281,-0.0281,-0.025,-0.0259,-0.0252,-0.0254,-0.0264,0.0149,0.0706,0.1466,0.2171,0.276,0.3262,0.3309,0.3175,0.2801,0.2882,0.2877,0.2783,0.2783,0.2819,0.2911,0.2798,0.2793,0.2823,0.2823,0.3103,0.3504,0.0,0.0,0.0,0.0,0.0,0.0,0.0,0.0,0.0,0.0,0.0,0.0,0.0,0.0,0.0,0.0,-0.0103,0.0703,0.1528,0.1653,0.1911,0.2405,0.2408,0.2431,0.2431,0.247,0.247,0.2431,0.0,0.0,0.2512,0.2572,0.2576,0.0,0.2628,0.2576,0.2381,0.2366,0.2303,0.2204,0.2213,0.2188,0.2188,0.2188,0.2188,0.2188,0.2188,0.2188,0.2188,0.2188,0.2188,0.2188,0.2188,0.2188,0.0,0.0,0.0,0.0,0.0,0.0,0.0,0.0,0.0,0.0,0.0,0.0,0.0,0.0,0.0,0.0,0.0,0.0,0.0,0.0,0.0,0.0,0.0,0.0,0.0,0.0,0.0,0.0,0.0,0.0,-0.027,-0.0236,-0.0069,0.0,0.0,0.0174,0.0281,0.0288,0.0451,0.0522,0.0546,0.1285,0.1927,0.2437,0.3133,0.3624,0.3894,0.4031,0.3878,0.35,0.3399,0.3198,0.2932,0.2948,0.2941,0.2888,0.2767,0.2756,0.2827,0.3086,0.3602,0.4237,0.0,0.0,0.0,0.0,0.0,0.0,0.0,0.0,0.0,0.0,0.0,0.0,-0.0739,-0.0571,-0.0403,-0.0101,0.0437,0.1137,0.2,0.1948,0.2078,0.2466,0.2313,0.0,0.2235,0.2392,0.2392,0.2235,0.0,0.0,0.2512,0.2572,0.26,0.2597,0.2604,0.2537,0.2378,0.0,0.0,0.0,0.0,0.2188,0.2188,0.2188,0.2188,0.2188,0.2188,0.2188,0.2188,0.2188,0.2188,0.2188,0.2188,0.0,0.0,0.0,0.0,0.0,0.0,0.0,0.0,0.0,0.0,0.0,0.0,0.0,0.0,0.0,0.0,0.0,0.0,0.0,0.0,0.0,0.0,0.0,0.0,0.0,0.0,0.0,0.0,0.0,0.0,0.0,-0.0236,-0.0034,0.0,0.0,0.0,0.0674,0.1058,0.1052,0.1643,0.198,0.2,0.2832,0.3302,0.3344,0.4252,0.472,0.4723,0.4884,0.4704,0.4318,0.4021,0.3622,0.3286,0.3356,0.3131,0.2793,0.2889,0.2831,0.2912,0.3819,0.4163,0.435,0.0,0.0,0.0,0.0,0.0,0.0,0.0,0.0,0.0,0.0,0.0,0.0,0.0,-0.0386,-0.007,0.0,0.0772,0.1429,0.1822,0.1874,0.1952,0.2035,0.2025,0.2003,0.2003,0.2081,0.2158,0.0,0.0,0.2392,0.2512,0.2572,0.258,0.2546,0.2625,0.2614,0.253,0.2393,0.0,0.0,0.0,0.0,0.0,0.0,0.0,0.0,0.0,0.0,0.0,0.0,0.0,0.0,0.0,0.0,0.0,0.0,0.0,0.0,0.0,0.0,0.0,0.0,0.0,0.0,0.0,0.0,0.0,0.0,0.0,0.0,0.0,0.0,0.0,0.0,0.0,0.0,0.0,0.0,0.0,0.0,0.0,0.0,0.0,0.0,0.1276,0.1344,0.1344,0.1344,0.1344,0.1612,0.1754,0.1737,0.1976,0.2325,0.2795,0.3107,0.3522,0.3978,0.448,0.4719,0.4724,0.4925,0.4937,0.4781,0.4668,0.4266,0.3706,0.3747,0.4022,0.4333,0.4413,0.4622,0.4889,0.5236,0.5623,0.6073,0.0,0.0,0.0,0.0,0.0,0.0,0.0,0.0,0.0,-0.0409,0.0,0.0,0.0,0.0,0.0434,0.0391,0.1018,0.1477,0.1626,0.169,0.1756,0.1843,0.1832,0.1807,0.1807,0.1848,0.1925,0.2,0.208,0.0,0.0,0.2431,0.247,0.2514,0.2574,0.259,0.0,0.0,0.0,0.2288,0.0,0.0,0.2188,0.0,0.0,0.0,0.0,0.0,0.0,0.0,0.0,0.0,0.0,0.0,0.0,0.0,0.0,0.0,0.0,0.0,0.0,0.0,0.0,0.0,0.0,0.0,0.0,0.0,0.0,0.0,0.0,0.0,0.0,0.0,0.0,0.0,0.0,0.0,0.0,0.0,0.0,0.0,0.0,0.0,0.2114,0.2114,0.2114,0.0,0.2114,0.2347,0.2582,0.2818,0.2852,0.3086,0.3553,0.3553,0.3825,0.4303,0.4575,0.469,0.4698,0.4906,0.5018,0.5018,0.521,0.4938,0.4376,0.4433,0.4866,0.5474,0.5558,0.5812,0.6155,0.6501,0.6893,0.7303,0.0,0.0,0.0,0.0,0.0,0.0,0.0,0.0,-0.0455,0.0912,0.0,0.0,0.0,0.0,0.0,0.1206,0.1196,0.1288,0.1479,0.1357,0.1493,0.1848,0.169,0.1572,0.1572,0.1768,0.1807,0.1611,0.1807,0.2004,0.2196,0.2196,0.2313,0.2504,0.2446,0.2451,0.2497,0.0,0.2296,0.2285,0.0,0.2188,0.2188,0.0,0.0,0.0,0.2188,0.2188,0.0,0.2188,0.0,0.0,0.0,0.0,0.0,0.0,0.0,0.0,0.0,0.0,0.0,0.0,0.0,0.0,0.0,0.0,0.0,0.0,0.0,0.0,0.0,0.0,0.0,0.0,0.0,0.0,0.0,0.0,0.0,0.0,0.0,0.0,0.0,0.0,0.2181,0.2179,0.2179,0.2179,0.2179,0.2848,0.3587,0.43,0.43,0.43,0.43,0.43,0.43,0.4303,0.4572,0.4687,0.4698,0.4939,0.5012,0.5057,0.567,0.5702,0.5392,0.5445,0.5691,0.6067,0.6157,0.6291,0.6587,0.7518,0.7834,0.7965,0.0,0.0,0.0,0.0,0.0,0.0,0.0691,0.0627,0.067,0.0,0.0,0.0,0.1161,0.1199,0.1208,0.1269,0.1219,0.126,0.136,0.1331,0.1335,0.1454,0.1415,0.1375,0.1375,0.1454,0.1493,0.1611,0.165,0.1846,0.2196,0.2196,0.2291,0.0,0.2389,0.2369,0.2342,0.2265,0.0,0.2228,0.2219,0.2188,0.0,0.0,0.0,0.0,0.0,0.2188,0.2188,0.0,0.2188,0.2188,0.0,0.0,0.0,0.0,0.0,0.0,0.4197,0.0,0.0,0.0,0.0,0.0,0.0,0.0,0.0,0.0,0.0,0.0,0.0,0.0,0.0,0.0,0.0,0.0,0.0,0.0,0.0,0.0,0.0,0.0,0.0,0.0,0.3758,0.0,0.392,0.3956,0.4056,0.4259,0.4461,0.4664,0.4664,0.4664,0.4664,0.4564,0.4528,0.4531,0.4553,0.4602,0.4729,0.5293,0.5616,0.567,0.6325,0.6822,0.7099,0.672,0.6933,0.7527,0.7815,0.8134,0.8541,0.8935,0.903,0.8947,0.0,0.0,0.0,0.0,0.0,0.063,0.1066,0.1151,0.1166,0.0,0.0,0.0,0.1229,0.123,0.1238,0.1295,0.128,0.1277,0.1295,0.1296,0.1296,0.1296,0.1296,0.1296,0.1296,0.1375,0.1493,0.1611,0.169,0.1885,0.2196,0.2196,0.2272,0.2347,0.0,0.0,0.0,0.0,0.0,0.0,0.2213,0.0,0.0,0.2197,0.2204,0.0,0.0,0.0,0.2192,0.2183,0.2192,0.0,0.0,0.0,0.0,0.0,0.0,0.0,0.0,0.0,0.0,0.0,0.0,0.0,0.3655,0.3407,0.3204,0.0,0.0,0.0,0.0,0.0,0.0,0.0,0.0,0.0,0.0,0.0,0.0,0.0,0.0,0.0,0.0,0.43,0.4398,0.4595,0.4592,0.4661,0.4797,0.4797,0.4797,0.4797,0.4797,0.4797,0.4797,0.4728,0.4694,0.4694,0.5027,0.5202,0.5325,0.6211,0.6622,0.6677,0.7283,0.774,0.8016,0.7823,0.7994,0.8498,0.8804,0.9103,0.9465,0.9702,0.9689,0.9607,0.0,0.0,0.0,0.1082,0.1146,0.1204,0.1208,0.1194,0.1213,0.0,0.1217,0.1227,0.1293,0.1296,0.1296,0.1296,0.1296,0.1296,0.1296,0.1296,0.1296,0.1296,0.1296,0.1296,0.1335,0.161,0.169,0.165,0.2004,0.2237,0.2352,0.2345,0.2364,0.2443,0.0,0.0,0.0,0.0,0.0,0.2205,0.2185,0.2192,0.0,0.0,0.2194,0.2193,0.2207,0.2188,0.2197,0.219,0.2205,0.0,0.0,0.0,0.0,0.0,0.373,0.0,0.0,0.0,0.0,0.0,0.0,0.0,0.3894,0.3802,0.3675,0.3232,0.0,0.0,0.0,0.0,0.0,0.0,0.0,0.0,0.0,0.0,0.0,0.0,0.0,0.0,0.43,0.4334,0.4431,0.4592,0.4658,0.4728,0.4864,0.4864,0.4864,0.4864,0.4864,0.4864,0.4864,0.4927,0.4927,0.4964,0.5793,0.6207,0.6234,0.7296,0.7796,0.7827,0.8327,0.8571,0.8575,0.8775,0.8894,0.8971,0.9197,0.9399,0.9597,0.9909,0.9994,0.9994,0.0,0.0,0.094,0.1085,0.1146,0.1211,0.1199,0.1208,0.1221,0.1284,0.1288,0.129,0.1295,0.1296,0.1296,0.1296,0.1296,0.1296,0.1296,0.1296,0.1296,0.1296,0.1296,0.1375,0.1533,0.2195,0.2313,0.1848,0.3248,0.3638,0.3171,0.3147,0.322,0.3308,0.2567,0.0,0.0,0.0,0.0,0.2209,0.2197,0.0,0.221,0.2213,0.2204,0.2204,0.2192,0.2188,0.2197,0.219,0.2211,0.2213,0.0,0.0,0.0,0.3125,0.0,0.0,0.0,0.0,0.0,0.0,0.0,0.0,0.513,0.5033,0.4992,0.0,0.0,0.0,0.0,0.0,0.0,0.0,0.0,0.0,0.0,0.0,0.0,0.0,0.0,0.0,0.43,0.4431,0.4595,0.4761,0.506,0.5263,0.5296,0.5296,0.5296,0.5296,0.5296,0.5296,0.5296,0.5653,0.5848,0.5848,0.6469,0.6789,0.6937,0.7834,0.8334,0.847,0.9248,0.9609,0.9614,0.9652,0.9299,0.8803,0.9176,0.9305,0.939,0.9852,0.9994,0.9994,0.0,0.0,0.0826,0.1091,0.1179,0.1199,0.123,0.1234,0.1279,0.1294,0.1296,0.1296,0.1296,0.1296,0.1296,0.1296,0.1296,0.1296,0.1296,0.1296,0.1296,0.1296,0.1689,0.1962,0.2042,0.3056,0.3444,0.3137,0.4183,0.4465,0.4031,0.372,0.37,0.3954,0.2749,0.0,0.0,0.0,0.2206,0.2199,0.2199,0.0,0.2283,0.222,0.2209,0.224,0.221,0.2199,0.2208,0.2233,0.2234,0.0,0.0,0.2772,0.312,0.0,0.4369,0.4957,0.0,0.0,0.0,0.5888,0.0,0.0,0.0,0.5543,0.5498,0.0,0.0,0.0,0.0,0.0,0.0,0.0,0.0,0.0,0.0,0.0,0.0,0.0,0.0,0.0,0.4431,0.4528,0.4694,0.4924,0.5226,0.5395,0.5395,0.5395,0.5557,0.5881,0.5914,0.6046,0.6408,0.6634,0.6765,0.6765,0.7381,0.7728,0.7835,0.8862,0.9376,0.9477,0.9983,1.0218,1.018,0.9992,0.9652,0.9342,0.9636,0.9647,0.9501,0.9934,0.9966,0.99,0.0487,0.0,0.0,0.1124,0.1208,0.1222,0.1292,0.1296,0.1296,0.1296,0.1459,0.1581,0.1581,0.17,0.1821,0.187,0.1658,0.1534,0.158,0.1535,0.1532,0.1532,0.2314,0.2782,0.2823,0.3992,0.4577,0.446,0.5096,0.5261,0.4929,0.4219,0.4085,0.4394,0.305,0.0,0.0,0.0,0.0,0.2479,0.0,0.2409,0.234,0.2269,0.2259,0.2276,0.2226,0.2217,0.2236,0.2295,0.2381,0.2519,0.2895,0.3267,0.0,0.0,0.0,0.0,0.0,0.0,0.0,0.0,0.0,0.6171,0.0,0.0,0.0,0.0,0.0,0.0,0.0,0.0,0.0,0.0,0.0,0.0,0.0,0.0,0.0,0.0,0.0,0.0,0.4628,0.4658,0.4888,0.5319,0.5488,0.5657,0.5789,0.5785,0.6046,0.6564,0.6597,0.6859,0.7386,0.7549,0.7614,0.7614,0.8361,0.8689,0.8738,0.9814,1.0292,1.0322,1.0522,1.0625,1.0588,1.0255,1.0218,1.0315,1.0247,1.0066,0.9927,1.03,1.0283,1.0267,0.0442,0.0564,0.0,0.0,0.1194,0.1222,0.1292,0.1296,0.1296,0.1296,0.2036,0.2546,0.0,0.0,0.0,0.0,0.0,0.0,0.2542,0.0,0.2354,0.2354,0.321,0.3754,0.3912,0.4924,0.5196,0.4649,0.6187,0.6563,0.5821,0.492,0.4542,0.4541,0.3705,0.0,0.0,0.0,0.3471,0.0,0.3457,0.297,0.0,0.2328,0.2303,0.2218,0.2212,0.2244,0.2297,0.0,0.2634,0.2926,0.0,0.3708,0.4564,0.4668,0.0,0.0,0.0,0.0,0.0,0.0,0.733,0.0,0.7075,0.0,0.6973,0.6713,0.0,0.0,0.0,0.0,0.0,0.0,0.0,0.0,0.0,0.0,0.0,0.0,0.0,0.4434,0.4731,0.4924,0.5382,0.6203,0.6268,0.6531,0.7158,0.7158,0.7223,0.7288,0.7288,0.7321,0.7386,0.8032,0.8388,0.8393,0.9055,0.9382,0.94,1.0018,1.0292,1.0322,1.0809,1.1037,1.1037,1.0962,1.1298,1.1658,1.0627,1.0489,1.0951,1.1158,1.1577,1.2006,0.0484,0.0576,0.0,0.0,0.1636,0.1823,0.1372,0.1296,0.1296,0.1296,0.1623,0.0,0.0,0.0,0.0,0.0,0.0,0.2291,0.0,0.0,0.2744,0.3249,0.4066,0.4533,0.4613,0.5664,0.6128,0.597,0.6798,0.7021,0.6693,0.5888,0.5709,0.5936,0.4766,0.0,0.4359,0.0,0.3623,0.0,0.0,0.0,0.0,0.3668,0.3797,0.3766,0.3766,0.3756,0.3801,0.0,0.394,0.0,0.0,0.0,0.0,0.0,0.0,0.0,0.0,0.0,0.0,0.0,0.0,0.0,0.7384,0.0,0.7342,0.0,0.0,0.0,0.0,0.0,0.0,0.0,0.6459,0.0,0.0,0.0,0.0,0.0,0.0,0.0,0.6158,0.6334,0.6597,0.6957,0.699,0.7088,0.7386,0.7386,0.7582,0.8037,0.8192,0.8463,0.8838,0.9309,0.9552,0.9552,0.9827,0.9967,0.9979,1.0352,1.0521,1.0539,1.0948,1.1298,1.1632,1.1632,1.1966,1.2466,1.194,1.1797,1.1815,1.2029,1.2129,1.222,0.1153,0.0,0.0,0.0,0.0,0.2644,0.2077,0.0,0.0,0.0,0.0,0.0,0.1735,0.2153,0.0,0.0,0.2873,0.2989,0.0,0.0,0.3547,0.0,0.0,0.0,0.0,0.621,0.6709,0.6903,0.7083,0.7155,0.7187,0.6463,0.6328,0.6693,0.0,0.5368,0.5595,0.0,0.0,0.4309,0.435,0.4533,0.4755,0.4873,0.4919,0.4944,0.4911,0.4898,0.4987,0.5204,0.5092,0.0,0.5736,0.0,0.0,0.0,0.0,0.0,0.7381,0.0,0.0,0.0,0.0,0.0,0.0,0.0,0.0,0.0,0.0,0.0,0.0,0.0,0.0,0.0,0.0,0.7205,0.0,0.0,0.0,0.0,0.0,0.0,0.0,0.7316,0.7484,0.7679,0.7712,0.7777,0.7972,0.7972,0.8236,0.8753,0.8953,0.9319,0.9907,1.0094,1.0226,1.0292,1.0292,1.0292,1.0304,1.0563,1.0791,1.0947,1.1218,1.1706,1.2268,1.2268,1.2599,1.3149,1.3149,1.3062,1.2922,1.293,1.2825,1.2821,0.2743,0.2249,0.0,0.0,0.0,0.0,0.0,0.0,0.0,0.0,0.0,0.0,0.0,0.0,0.0,0.0,0.0,0.5394,0.5435,0.0,0.5164,0.0,0.0,0.6335,0.0,0.0,0.6708,0.6903,0.6952,0.7058,0.7183,0.6317,0.5954,0.6044,0.6121,0.5752,0.5071,0.5803,0.6111,0.6111,0.6115,0.6619,0.7184,0.0,0.4934,0.4982,0.4938,0.0,0.0,0.5303,0.5693,0.0,0.0,0.0,0.0,0.0,0.0,0.0,0.0,0.0,0.0,0.7489,0.0,0.0,0.0,0.0,0.7489,0.0,0.0,0.0,0.0,0.0,0.0,0.0,0.0,0.0,0.0,0.0,0.0,0.0,0.0,0.0,0.0,0.7316,0.7712,0.8425,0.8458,0.8753,0.9382,0.942,0.9452,0.9452,0.949,0.9616,0.9901,0.9913,1.0045,1.0292,1.0292,1.0292,1.0304,1.0563,1.1006,1.1598,1.1842,1.2305,1.2863,1.2863,1.3222,1.376,1.376,1.4093,1.4453,1.3956,1.4072,1.4513,0.0,0.0,0.0,0.0,0.0,0.0,0.0,0.4144,0.0,0.0,0.0,0.0,0.0,0.4284,0.493,0.0,0.0,0.5134,0.6336,0.5785,0.0,0.0,0.0,0.647,0.0,0.0,0.0,0.6903,0.6904,0.7108,0.7395,0.7104,0.6957,0.7007,0.0,0.6927,0.0,0.0,0.0,0.0,0.0,0.6707,0.7437,0.0,0.6701,0.6861,0.6843,0.6969,0.0,0.7318,0.7203,0.7111,0.7526,0.7331,0.7077,0.7721,0.7609,0.7339,0.0,0.0,0.7702,0.7702,0.0,0.0,0.0,0.0,0.0,0.0,0.0,0.0,0.0,0.0,0.0,0.0,0.0,0.0,0.0,0.0,0.0,0.0,0.0,0.0,0.0,0.0,0.0,0.9151,0.9151,0.9253,0.9484,0.9516,0.9516,0.9516,0.9684,0.9817,0.9907,1.025,1.0678,1.116,1.0942,1.1245,1.2011,1.1704,1.1902,1.2456,1.2558,1.2929,1.3513,1.3513,1.3833,1.4346,1.4346,1.4453,1.4569,1.4389,1.4453,1.4637,0.431,0.0,0.0,0.0,0.0,0.0,0.0,0.0,0.0,0.0,0.4555,0.0,0.4322,0.0,0.5056,0.0,0.5424,0.5713,0.6843,0.6404,0.0,0.6889,0.6795,0.0,0.0,0.0,0.0,0.0,0.0,0.719,0.7484,0.7484,0.7484,0.7484,0.0,0.7484,0.7446,0.0,0.6668,0.0,0.0,0.7099,0.0,0.0,0.7757,0.7804,0.0,0.803,0.8203,0.8283,0.8116,0.7986,0.8314,0.7963,0.7538,0.8121,0.791,0.7583,0.7929,0.7943,0.0,0.7921,0.7932,0.0,0.7811,0.0,0.7689,0.0,0.0,0.0,0.0,0.0,0.0,0.0,0.0,0.0,0.0,0.9798,0.0,0.0,0.0,0.0,0.0,0.0,0.9516,0.9516,0.9516,0.9638,0.0,0.9734,0.9734,1.0009,0.9959,1.0102,1.0427,1.0912,1.1539,1.2247,1.2174,1.2535,1.328,1.2908,1.3055,1.3615,1.3615,1.3934,1.451,1.451,1.4697,1.5026,1.5026,1.5108,1.5178,1.4761,1.4605,1.466,0.0,0.0,0.0,0.0,0.5939,0.0,0.0,0.0,0.6288,0.0,0.5679,0.5486,0.473,0.5425,0.5927,0.5774,0.6605,0.7041,0.6949,0.7143,0.0,0.0,0.7118,0.7119,0.7188,0.0,0.0,0.0,0.0,0.7322,0.7484,0.7484,0.7484,0.7484,0.7484,0.0,0.7484,0.7522,0.7522,0.7561,0.7723,0.7804,0.7842,0.803,0.7991,0.7842,0.803,0.8255,0.8376,0.8189,0.8398,0.867,0.8477,0.8548,0.8703,0.8703,0.8557,0.8401,0.8401,0.8286,0.8129,0.8129,0.8255,0.0,0.0,0.0,0.8105,0.0,0.0,0.0,0.0,0.0,0.0,0.0,0.0,0.0,0.0,0.0,0.0,0.0,0.0,0.0,0.0,0.9516,0.9516,0.9548,0.9516,0.0,0.0,1.0193,1.0231,1.1017,1.044,1.0528,1.146,1.1861,1.2506,1.3453,1.3815,1.404,1.4083,1.4047,1.4378,1.4939,1.4939,1.5259,1.5798,1.5798,1.5798,1.5798,1.5833,1.611,1.6338,1.517,1.4681,1.472,0.5404,0.5686,0.5966,0.0,0.6081,0.6081,0.0,0.0,0.0,0.0,0.6501,0.6555,0.6465,0.6659,0.678,0.6745,0.6962,0.0,0.0,0.0,0.0,0.755,0.7262,0.7119,0.7188,0.7019,0.7015,0.7184,0.0,0.0,0.7484,0.7484,0.7484,0.7484,0.0,0.0,0.7522,0.7642,0.7799,0.7949,0.7838,0.7876,0.803,0.0,0.8293,0.8255,0.8289,0.8441,0.8618,0.8566,0.8623,0.8689,0.8642,0.8661,0.8703,0.8703,0.8557,0.8401,0.8401,0.8578,0.8783,0.8783,0.9026,0.9373,0.0,0.0,0.0,0.0,0.0,0.0,0.0,0.0,0.0,0.0,0.0,0.0,0.0,0.0,0.0,1.1337,0.0,0.0,1.0269,0.9926,0.9862,1.0238,0.9926,0.0,0.0,0.0,1.1024,1.1734,1.1586,1.1733,1.2283,1.2587,1.3229,1.4239,1.4072,1.4478,1.5321,1.4859,1.5002,1.5578,1.5578,1.5657,1.5798,1.5798,1.5798,1.5833,1.6254,1.6899,1.7575,1.6709,1.5951,1.5585,0.5486,0.0,0.0,0.6166,0.0,0.0,0.6388,0.646,0.0,0.677,0.6886,0.0,0.7088,0.7156,0.7214,0.7102,0.7187,0.0,0.736,0.0,0.0,0.7552,0.7448,0.7395,0.7338,0.7215,0.0,0.7334,0.0,0.0,0.748,0.7363,0.7331,0.0,0.0,0.729,0.0,0.7564,0.7799,0.7991,0.803,0.814,0.0,0.8441,0.8513,0.8513,0.8513,0.8589,0.8689,0.86,0.8628,0.8685,0.86,0.8633,0.8703,0.8703,0.8736,0.8799,0.8799,0.9092,0.9458,0.9712,0.9997,1.0311,1.0773,1.0694,1.067,0.0,1.0877,1.0574,0.0,0.0,0.0,0.0,0.0,0.0,0.0,0.0,0.0,0.0,1.1996,0.0,1.1624,1.0975,1.0724,1.1125,1.0912,0.0,0.0,0.0,1.1888,1.2634,1.2539,1.2735,1.3243,1.376,1.4445,1.5283,1.5286,1.5604,1.6263,1.5939,1.5974,1.6298,1.6298,1.6394,1.6629,1.6629,1.6768,1.7019,1.7527,1.804,1.8555,1.8276,1.7705,1.7166,0.5551,0.0,0.0,0.0,0.0,0.0,0.0,0.6573,0.0,0.6852,0.0,0.7095,0.7095,0.7261,0.7278,0.7126,0.0,0.7407,0.7286,0.7643,0.7711,0.7457,0.7656,0.769,0.7488,0.7484,0.7484,0.0,0.0,0.0,0.7592,0.7361,0.0,0.0,0.0,0.0,0.0,0.7696,0.7996,0.8255,0.8589,0.8742,0.878,0.8818,0.8856,0.8851,0.8742,0.8703,0.8675,0.85,0.8557,0.867,0.8496,0.8562,0.8737,0.8851,0.916,0.943,0.9582,0.9895,1.0286,1.0838,1.1095,1.1264,1.1647,1.1747,1.1826,1.1971,1.1672,1.1579,1.225,0.0,0.0,0.0,0.0,0.0,0.0,0.0,0.0,0.0,0.0,0.0,1.3191,1.2228,1.1764,1.2104,0.0,0.0,0.0,0.0,1.2826,1.3601,1.3474,1.3682,1.4285,1.5045,1.5741,1.6361,1.6743,1.6908,1.6908,1.6908,1.6943,1.7003,1.7003,1.7304,1.7799,1.7799,1.8104,1.865,1.9117,1.9349,1.9485,1.9974,1.9736,1.9136,0.0,0.0,0.0,0.0,0.0,0.6586,0.6814,0.6848,0.6868,0.6879,0.7007,0.7095,0.7095,0.7122,0.7166,0.7189,0.7218,0.0,0.0,0.0,0.0,0.7724,0.7614,0.7516,0.7484,0.7484,0.7484,0.0,0.0,0.0,0.0,0.0,0.0,0.0,0.0,0.0,0.9553,0.9554,0.0,1.0507,1.0421,1.0496,1.0545,0.9916,0.969,0.9614,0.8932,0.8703,0.8699,0.8661,0.867,0.8694,0.8661,0.8675,0.8851,0.9707,0.997,1.0233,1.105,1.1376,1.1558,1.1924,1.21,1.2352,1.3179,1.3133,1.3127,1.3892,1.3382,1.2743,1.2739,0.0,0.0,0.0,0.0,0.0,0.0,0.0,0.0,0.0,0.0,1.3631,0.0,1.2978,0.0,0.0,0.0,0.0,0.0,0.0,1.3601,0.0,1.4606,1.4966,0.0,0.0,1.6342,1.6807,1.6872,1.6908,1.6908,1.6908,1.7141,1.7579,1.7579,1.7876,1.8375,1.8375,1.8677,1.925,2.016,2.0561,2.0769,2.1976,2.1876,2.1034,0.0,0.0,0.0,0.0,0.0,0.0,0.0,0.7842,0.7527,0.6982,0.6947,0.6987,0.6987,0.6987,0.7043,0.7186,0.7278,0.7371,0.7533,0.7568,0.7799,0.8242,0.8184,0.8318,0.8727,0.8727,0.8727,0.8727,0.0,0.0,0.0,0.0,0.0,0.0,0.0,0.9414,0.0,0.0,0.0,1.095,1.095,1.1031,1.1074,1.0663,1.0513,1.0481,1.0094,0.9943,0.983,0.8965,0.8703,0.8703,0.8703,0.897,0.9387,0.9647,1.0395,1.118,1.1254,1.1817,1.2446,1.2713,1.2935,1.3315,1.4055,1.4078,1.3998,1.43,1.3823,1.3217,1.2795,1.2429,0.0,0.0,0.0,0.0,0.0,0.0,0.0,0.0,0.0,0.0,0.0,0.0,0.0,0.0,0.0,0.0,0.0,0.0,1.4169,0.0,0.0,0.0,1.5689,0.0,1.6716,1.6908,1.6908,1.7038,1.7304,1.7304,1.7604,1.8104,1.8104,1.8408,1.8954,1.9695,2.0257,2.0721,2.1494,2.1797,2.1891,2.2271,2.2304,2.2101,0.0,0.759,0.0,0.0,0.8342,0.0,0.9291,0.9134,0.8574,0.7544,0.7118,0.6929,0.7054,0.698,0.6992,0.7211,0.7349,0.7489,0.7676,0.7857,0.8295,0.8932,0.896,0.9263,0.989,0.9895,0.9895,0.0,0.0,0.0,0.0,0.0,0.0,0.0,0.0,0.0,0.0,0.0,1.1179,1.1385,1.1552,1.1595,1.1595,1.1409,1.1372,1.1335,1.1149,1.1143,1.095,0.9712,0.9258,0.9253,0.9208,0.968,1.0239,1.0077,1.1015,1.2035,1.1696,1.23,1.3107,1.3237,1.3593,1.3978,1.4379,1.455,1.4502,1.4188,1.3775,1.3323,1.271,1.266,0.0,0.0,0.0,0.0,0.0,0.0,0.0,0.0,0.0,0.0,1.4872,0.0,0.0,0.0,0.0,0.0,1.4515,0.0,0.0,0.0,0.0,1.5936,1.6087,0.0,1.7245,1.7245,1.7245,1.7476,1.7867,1.7935,1.8273,1.8777,1.8867,1.9252,1.9942,2.1063,2.1719,2.2121,2.2672,2.281,2.2684,2.2477,2.2535,2.2697,0.0,0.0,0.0,0.0,0.0,0.0,1.0421,1.0428,1.0043,0.9122,0.7778,0.7054,0.7474,0.7217,0.7117,0.7343,0.7396,0.7747,0.8516,0.8617,0.8984,0.9744,0.9782,0.982,0.9895,0.9895,0.9895,0.0,0.0,1.0497,0.0,0.0,0.0,0.0,0.0,0.0,0.0,1.2671,1.2942,1.3266,1.3266,1.3273,1.32,1.2489,1.2194,1.2077,1.1372,1.1211,1.1347,1.1193,1.1156,1.1082,1.0779,1.1083,1.163,1.2158,1.2396,1.272,1.3581,1.3655,1.3538,1.3573,1.3826,1.4095,1.413,1.4375,1.4502,1.4188,1.3592,1.302,1.2662,1.2805,1.2981,0.0,0.0,0.0,0.0,0.0,0.0,0.0,0.0,0.0,0.0,1.5575,0.0,0.0,1.5517,0.0,0.0,0.0,0.0,1.5468,1.6108,1.6743,1.742,1.8056,1.8341,1.8341,1.8341,1.8375,1.8442,1.8744,1.9177,1.9704,2.0009,2.0718,2.1681,2.1793,2.2145,2.2684,2.3213,2.3133,2.281,2.3685,2.3443,2.2811,0.0,0.0,0.0,0.0,0.0,0.0,0.0,1.1485,1.1174,1.1059,0.9794,0.8691,0.8205,0.835,0.8409,0.8149,0.8503,0.8937,0.9377,0.941,0.9787,1.0576,1.0614,1.0838,1.1323,1.1323,1.1397,0.0,0.0,0.0,0.0,0.0,0.0,0.0,0.0,1.2717,1.2953,1.3185,1.3375,1.3492,1.3492,1.3572,1.3622,1.3093,1.3093,1.3302,1.2748,1.2761,1.3011,1.3011,1.2382,1.1545,1.1401,1.1849,1.2401,1.2181,1.2692,1.3311,1.3267,1.3427,1.3632,1.3846,1.3846,1.3902,1.4296,1.4177,1.3966,1.3823,1.338,1.3006,1.286,1.3103,1.3368,1.3558,0.0,0.0,0.0,0.0,0.0,0.0,0.0,0.0,0.0,0.0,0.0,0.0,0.0,0.0,0.0,0.0,0.0,1.6713,0.0,1.775,1.8385,1.8865,1.9112,1.9112,1.9112,1.9278,1.9584,1.9716,2.0085,2.0667,2.0784,2.1369,2.2267,2.2558,2.3112,2.3833,2.4365,2.4455,2.4377,2.479,2.4862,2.4867,1.1449,0.0,1.0932,0.0,1.1969,1.2375,1.2779,1.2424,1.2149,1.2407,1.1566,1.0472,0.9147,0.9296,0.9364,0.9024,0.942,0.9857,1.0233,1.0233,1.0651,1.1521,1.1558,0.0,1.2452,1.2489,1.2562,1.2673,1.2502,0.0,0.0,0.0,0.0,0.0,1.2912,1.3048,1.317,1.3397,1.3535,1.3608,1.3608,1.3622,1.3697,1.3457,1.3573,1.3874,1.3503,1.363,1.4012,1.4012,1.3214,1.2276,1.2328,1.2761,1.3143,1.2515,1.2912,1.3481,1.2973,1.3144,1.3473,1.3616,1.3616,1.3711,1.422,1.401,1.3751,1.3712,1.34,1.3194,1.3338,1.3631,1.3992,1.4359,0.0,0.0,0.0,1.6132,0.0,0.0,1.6719,1.6933,1.6978,1.7045,0.0,0.0,0.0,0.0,0.0,0.0,0.0,0.0,0.0,0.0,1.9478,1.9834,2.0009,2.0009,2.0009,2.0204,2.0581,2.0823,2.1225,2.1751,2.1903,2.248,2.3362,2.3721,2.4413,2.5264,2.5644,2.5847,2.5883,2.5883,2.6117,2.6449,1.1255,1.149,1.1856,1.2975,1.318,1.3174,1.318,1.318,1.3106,1.2837,1.2797,1.2094,1.0378,0.9816,0.9674,0.9863,0.9895,1.0233,1.1037,1.1074,1.1521,0.0,0.0,1.2673,1.29,1.29,1.29,1.29,0.0,0.0,1.2685,0.0,1.3177,1.3484,1.3484,1.3492,1.3492,1.3492,1.3608,1.3797,1.3797,1.3667,1.3507,1.3499,1.3507,1.3461,1.3119,1.3347,1.3797,1.3797,1.3708,1.3589,1.3723,1.3901,1.4011,1.3696,1.3354,1.3108,1.31,1.31,1.3044,1.2702,1.3116,1.3584,1.3626,1.3858,1.409,1.4003,1.3714,1.3653,1.4094,1.446,1.4824,1.5323,0.0,0.0,0.0,1.6407,0.0,1.7562,1.7101,1.7191,1.8441,1.7859,0.0,0.0,0.0,0.0,0.0,0.0,0.0,1.8652,1.8881,0.0,2.0875,2.1093,2.119,2.119,2.119,2.119,2.1213,2.2087,2.2657,2.3003,2.352,2.4371,2.5365,2.5365,2.598,2.696,2.6973,2.6973,2.6994,2.6994,2.6994,2.6994,1.2393,1.2552,1.2757,1.3127,1.3213,1.3213,1.3213,1.3033,1.2898,1.2797,1.2603,1.2289,1.1871,1.1602,1.1285,0.0,1.1434,1.1922,0.0,1.2342,1.2489,1.279,1.2783,1.282,1.29,1.29,1.2973,1.3083,0.0,0.0,0.0,1.3302,1.367,1.4258,1.4402,1.4724,1.5207,1.5349,1.5152,1.474,1.474,1.432,1.3693,1.3693,1.3805,1.3862,1.3543,1.3679,1.3965,1.3729,1.3638,1.36,1.3644,1.3717,1.368,1.3346,1.3171,1.3092,1.3092,1.2917,1.2845,1.3204,1.3228,1.3322,1.3843,1.4241,1.4451,1.4179,1.4492,1.4844,1.4991,1.5284,1.5584,1.5729,1.6236,0.0,1.6842,0.0,1.7634,1.7947,1.8298,1.8562,1.8595,1.8697,0.0,0.0,0.0,0.0,0.0,0.0,0.0,0.0,2.0399,0.0,2.1768,2.1842,2.1874,2.1874,2.2262,2.2618,2.2962,2.3272,2.3639,2.4094,2.4267,2.4933,2.593,2.593,2.636,2.7007,2.7007,2.7242,2.7543,2.7543,2.7908,2.843,1.2673,1.2789,1.2866,1.2866,1.2866,1.2866,1.2866,1.2705,1.2654,1.2692,1.253,1.2489,1.2673,1.2599,0.0,1.2003,1.2415,1.2783,1.29,1.29,1.2936,1.301,1.301,1.3185,1.3535,1.3542,0.0,1.4158,1.4222,1.4322,1.4438,1.4517,1.4796,1.5242,1.5357,1.5666,1.6114,1.6263,1.6062,1.5702,1.5539,1.4939,1.4174,1.4411,1.4329,1.4089,1.4146,1.4278,1.4413,1.4211,1.4067,1.403,1.4165,1.4147,1.3956,1.33,1.3179,1.3255,1.3255,1.333,1.3492,1.3918,1.3987,1.4114,1.4721,1.5011,1.5081,1.489,1.5255,1.5642,1.5816,1.6017,1.6247,1.6531,1.6955,1.7301,1.7401,0.0,1.8371,0.0,0.0,0.0,0.0,1.965,1.9924,0.0,0.0,0.0,0.0,0.0,2.035,2.0892,2.1223,2.1656,2.2185,2.239,2.2486,2.2498,2.3027,2.3579,2.4103,2.4298,2.4682,2.5207,2.5408,2.5996,2.681,2.681,2.7117,2.761,2.761,2.7875,2.8281,2.8281,2.8702,2.9289,1.2342,1.2342,1.2342,1.2342,1.2342,1.2342,1.2342,1.2342,1.2415,1.2673,1.2709,1.2783,1.3039,1.3076,1.3076,1.3076,0.0,0.0,1.3003,1.3003,1.3119,1.3375,1.3375,1.3796,1.4673,1.4708,1.5029,1.5745,1.5939,1.6,1.6,1.6193,1.6341,1.6376,1.6411,1.6446,1.6481,1.6481,1.6576,1.6669,1.6195,1.5499,1.4846,1.549,1.5037,1.417,1.4876,1.5093,1.5013,1.5016,1.4863,1.4764,1.5086,1.5037,1.4693,1.3564,1.3399,1.3593,1.3593,1.4145,1.4698,1.4698,1.5147,1.5683,1.6007,1.5997,1.5959,1.5954,1.596,1.6132,1.6599,1.6684,1.6909,1.7617,1.7767,1.7849,1.8084,1.846,1.8861,0.0,0.0,0.0,2.0591,2.068,2.0696,0.0,0.0,0.0,0.0,0.0,2.1076,2.1559,2.1608,2.1886,2.2418,2.2914,2.318,2.3216,2.3712,2.4263,2.4791,2.527,2.5794,2.6348,2.6876,2.741,2.7875,2.7908,2.8216,2.8651,2.8651,2.8844,2.9131,2.9131,2.9352,2.9634,0.0,0.0,1.2753,1.2753,1.2753,1.2753,1.2753,1.2753,1.2966,1.3579,1.368,1.397,1.4788,1.4887,1.4931,1.5029,1.3869,1.3441,1.4142,1.4214,1.4466,1.5073,1.5108,1.5278,1.5649,1.5658,1.5834,1.6167,1.6193,1.6228,1.6228,1.6271,1.6611,1.7164,1.732,1.7672,1.8216,1.8385,1.8128,1.7648,1.7159,1.6356,1.5522,1.5911,1.5528,1.484,1.5468,1.547,1.5124,1.499,1.4881,1.4864,1.4938,1.493,1.4844,1.4561,1.4515,1.456,1.456,1.4708,1.4845,1.4845,1.5146,1.5527,1.5869,1.6199,1.6428,1.642,1.6722,1.706,1.7368,1.7423,1.7562,1.7947,1.822,1.8398,1.8479,1.9064,1.9554,0.0,2.0485,2.1044,2.114,2.1502,2.1707,0.0,0.0,2.2454,2.2454,2.3166,2.3449,2.3158,2.3533,2.4057,2.4646,2.4773,2.5052,2.5438,2.5577,2.5922,2.6442,2.6548,2.6902,2.7446,2.7841,2.83,2.8798,2.9053,2.9257,2.9352,2.9352,2.9415,2.9477,2.9477,2.9696,2.9988,1.3331,1.3397,1.3506,1.389,1.3962,1.3962,1.3962,1.3962,1.4142,1.4609,1.4681,1.4931,1.5534,1.5604,1.5604,1.571,1.4859,1.4573,1.5065,1.51,1.5313,1.5807,1.5842,1.6079,1.6636,1.6636,1.6853,1.732,1.7389,1.7448,1.7448,1.755,1.7789,1.8172,1.8283,1.8563,1.8942,1.9031,1.8742,1.8134,1.767,1.685,1.5955,1.6738,1.6307,1.543,1.6538,1.6515,1.591,1.5818,1.5825,1.5872,1.5872,1.593,1.6007,1.6007,1.568,1.5362,1.5362,1.5613,1.5923,1.6222,1.6286,1.6417,1.7036,1.7048,1.7012,1.7348,1.7437,1.7573,1.7822,1.7865,1.7975,1.8263,1.8479,1.8723,1.9095,1.9697,2.0309,2.0799,2.156,2.2126,2.2324,2.2618,2.2756,2.2737,2.3453,0.0,2.3881,2.4934,2.5079,2.4116,2.4612,2.508,2.5389,2.5634,2.6013,2.6591,2.6591,2.6945,2.7597,2.7597,2.796,2.8624,2.8817,2.9053,2.9352,2.9509,2.9602,2.9602,2.9602,2.9696,2.9834,2.9834,3.0036,3.0325,1.4114,1.4258,1.4466,1.5171,1.5269,1.5269,1.5269,1.5269,1.5384,1.5675,1.571,1.5816,1.6026,1.6062,1.6088,1.6088,1.6123,1.6062,1.5921,1.5913,1.6053,1.6358,1.6393,1.6775,1.7575,1.7643,1.7969,1.8583,1.8741,1.8841,1.8841,1.9008,1.9108,1.9108,1.9108,1.9098,1.9131,1.9131,1.8871,1.8436,1.7968,1.7195,1.6447,1.7604,1.7099,1.5993,1.7639,1.7677,1.6942,1.6896,1.6991,1.7136,1.706,1.7172,1.7306,1.7306,1.6804,1.6195,1.6124,1.656,1.7197,1.785,1.775,1.7702,1.858,1.8181,1.7828,1.8453,1.825,1.8054,1.8302,1.8344,1.8476,1.8827,1.8848,1.9111,1.9915,0.0,2.1074,2.2101,2.2636,2.3138,2.3644,2.3802,2.3883,2.3942,2.4922,2.5522,2.5522,2.6502,2.6489,2.5179,2.5543,2.581,2.5952,2.6466,2.6948,2.7397,2.7397,2.7796,2.8495,2.8495,2.8881,2.9602,2.9634,2.9665,2.9665,2.9727,2.9758,2.9758,2.9758,2.9913,3.0172,3.0264,3.0462,3.0717,1.5392,1.5428,1.549,1.5596,1.5631,1.5631,1.5631,1.5631,1.5886,1.6585,1.6689,1.6941,1.7579,1.7784,1.7886,1.7886,1.7988,1.774,1.6932,1.6862,1.7251,1.809,1.8124,1.8259,1.8563,1.8764,1.8898,1.9008,1.9042,1.9031,1.9031,1.9108,1.9108,1.9108,1.9108,1.9175,1.9285,1.9285,1.91,1.8786,1.832,1.7804,1.7355,1.7929,1.7527,1.6782,1.795,1.807,1.7582,1.7325,1.7494,1.7784,1.737,1.7278,1.7306,1.7306,1.7477,1.759,1.7179,1.7155,1.7359,1.7879,1.8165,1.8456,1.8996,1.9233,1.9327,1.9331,1.9274,1.9277,1.9496,1.954,1.9675,2.0064,2.002,2.0215,2.0971,0.0,2.1931,2.2598,2.3154,2.3651,2.4134,2.4639,2.5107,2.5504,2.6442,2.6978,2.6978,2.7871,2.8314,2.8052,2.7581,2.7737,2.8511,2.8906,2.9115,2.9212,2.9212,2.9275,2.9415,2.9415,2.9477,2.9602,2.9896,3.0019,3.005,3.0341,3.0447,3.0447,3.0447,3.0492,3.0582,3.0955,3.1146,3.1248,1.6237,1.6341,1.6515,1.7001,1.7113,1.7113,1.7217,1.7217,1.7354,1.7706,1.7774,1.7886,1.8245,1.8347,1.8414,1.8414,1.8448,1.8371,1.8046,1.791,1.809,1.864,1.864,1.8741,1.8975,1.9031,1.9108,1.9108,1.9108,1.9108,1.9108,1.9175,1.9396,1.9737,1.9495,1.9813,2.0516,2.0161,1.9786,1.9456,1.9261,1.8733,1.812,1.9007,1.8907,1.8447,1.9613,1.9718,1.9327,1.9182,1.9049,1.894,1.8797,1.8569,1.8333,1.8414,1.815,1.7844,1.7883,1.7963,1.8176,1.8719,1.9132,1.9641,2.0458,2.0556,2.0555,2.0933,2.0548,2.0231,2.0458,2.0245,2.0079,2.0254,2.0245,2.0513,2.1498,2.2008,2.2737,2.3952,2.4524,2.5109,2.5842,2.6156,2.6497,2.6893,2.7638,2.8216,2.8507,2.8937,2.9338,2.9648,2.9056,2.8917,2.9383,2.9509,2.9771,3.0066,2.9757,2.9865,3.035,3.0007,2.9974,3.0158,3.031,3.0371,3.0371,3.0552,3.0747,3.0984,3.0984,3.1117,3.135,3.1552,3.161,3.1667,1.7148,1.7285,1.7501,1.8236,1.8347,1.8371,1.8482,1.8516,1.8516,1.8516,1.8516,1.8516,1.8516,1.8549,1.8583,1.8583,1.8607,1.8707,1.8875,1.8741,1.8707,1.8875,1.8875,1.8975,1.9142,1.9297,1.9386,1.9452,1.9606,1.9671,1.9671,1.9781,2.0096,2.059,2.0226,2.0645,2.1659,2.1101,2.0596,2.0128,2.0128,1.9585,1.8915,1.9956,2.0048,1.9805,2.0993,2.11,2.0722,2.075,2.0544,2.0252,2.0095,1.9768,1.9426,1.9408,1.8914,1.8485,1.8913,1.9132,1.9393,2.0001,2.0428,2.0968,2.1948,2.1923,2.1841,2.2426,2.1901,2.1372,2.1549,2.1199,2.0901,2.0927,0.0,2.1302,2.2504,2.2942,2.379,2.5491,2.5943,2.6458,2.7325,2.7476,2.7649,2.7974,2.8641,2.9292,2.9899,2.9987,3.0347,3.0942,3.0153,2.9868,3.0164,3.0072,3.0259,3.0729,3.037,3.0499,3.1048,3.0694,3.0657,3.0881,3.0881,3.0881,3.0881,3.0881,3.1117,3.1452,3.1452,3.1638,3.1908,3.2005,3.2089,3.2173,1.8347,1.8371,1.8414,1.8482,1.8482,1.8482,1.8516,1.8516,1.8516,1.8516,1.8516,1.8516,1.8516,1.8684,1.8774,1.8774,1.8942,1.9075,1.9075,1.9065,1.9075,1.9075,1.9065,1.9142,1.9285,1.9901,2.0301,2.0494,2.1112,2.1428,2.1428,2.1428,2.1459,2.1491,2.1459,2.1616,2.1877,2.1815,2.1301,2.0469,2.0469,2.0149,1.976,2.0281,2.0189,1.9932,2.101,2.1129,2.0807,2.0852,2.126,2.1572,2.0508,2.0163,2.004,1.9533,1.9913,2.053,2.0819,2.0902,2.1057,2.1609,2.1989,2.2371,2.2887,2.3225,2.3396,2.333,2.3257,2.3172,2.3044,2.3002,2.3017,2.3157,0.0,0.0,2.4786,2.4893,2.5388,2.6968,2.6909,2.6996,2.7691,2.7998,2.8271,2.8607,2.9487,3.0266,3.0865,3.119,3.1664,3.233,3.0864,3.0637,3.1793,3.1538,3.1375,3.1418,3.1836,3.1737,3.1293,3.1625,3.1794,3.1794,3.1794,3.1794,3.1794,3.1794,3.1823,3.1851,3.1851,3.1879,3.1964,3.2394,3.2722,3.2975,1.8482,1.8516,1.8549,1.864,1.8684,1.8741,1.8841,1.8875,1.8875,1.8875,1.9231,1.9485,1.9485,1.9933,2.0226,2.0226,2.042,2.0528,2.0528,2.0602,2.0409,1.9857,2.0376,2.0666,2.0741,2.0985,2.1132,2.1239,2.1491,2.1585,2.1585,2.171,2.199,2.2335,2.2039,2.239,2.3245,2.2829,2.2471,2.216,2.1914,2.1701,2.1551,2.1822,2.2043,2.2317,2.309,2.3302,2.315,2.3179,2.3117,2.295,2.2607,2.1981,2.142,2.1695,2.1983,2.2432,2.33,2.2789,2.2166,2.2747,2.3184,2.3594,2.4147,2.4379,2.4441,2.4384,2.4091,2.3823,2.3771,2.3459,2.3283,2.3539,0.0,2.4435,2.5535,2.5965,2.6662,2.7993,2.8056,2.8314,2.9144,2.9339,2.9527,2.9832,3.0497,3.1114,3.1714,3.2553,3.3319,3.4022,3.2646,3.2182,3.2786,3.2956,3.3035,3.3005,3.2781,3.2539,3.2283,3.2004,3.168,3.1286,3.1286,3.1031,3.0655,3.0655,3.1089,3.1682,3.1396,3.1975,3.3013,3.2885,3.3202,3.3713,1.8674,1.8875,1.9031,1.9198,1.9396,1.9584,1.9781,1.9813,1.9846,1.9868,2.0291,2.057,2.0558,2.0985,2.125,2.125,2.1376,2.1451,2.1451,2.1803,2.1592,2.0751,2.129,2.1616,2.1678,2.1885,2.2009,2.207,2.2267,2.2402,2.2402,2.2525,2.2798,2.3177,2.2889,2.3263,2.4128,2.3666,2.3431,2.3324,2.3066,2.2949,2.2963,2.3043,2.335,2.3763,2.4378,2.45,2.4395,2.461,2.4438,2.4091,2.3999,2.3258,2.2597,2.3283,2.3486,2.3703,2.4734,2.427,2.358,2.3886,2.4187,2.4475,2.4924,2.5005,2.5033,2.5131,2.4832,2.4573,2.4641,2.4339,2.4104,2.4342,2.4882,2.5576,2.6413,2.706,2.7893,2.9011,2.9033,2.9399,3.0388,3.0371,3.0625,3.1294,3.1663,3.2198,3.302,3.4015,3.4759,3.5261,3.4332,3.3922,3.4045,3.3773,3.365,3.3576,3.3311,3.3062,3.2804,3.2486,3.2081,3.1663,3.1486,3.1158,3.0741,3.0588,3.0979,3.1693,3.1586,3.2344,3.3453,3.3395,3.3583,3.3917,1.9075,1.9649,2.0096,2.0096,2.0645,2.1155,2.1356,2.1388,2.1451,2.1585,2.1585,2.1604,2.16,2.1592,2.1616,2.1616,2.1616,2.1616,2.1616,2.2366,2.2457,2.1647,2.1616,2.171,2.1908,2.25,2.2925,2.3118,2.3763,2.4083,2.4083,2.4083,2.4083,2.4083,2.4083,2.4187,2.4292,2.4292,2.4061,2.3697,2.3697,2.3697,2.3697,2.3697,2.3697,2.3804,2.4378,2.4303,2.3998,2.459,2.4892,2.4896,2.4286,2.3689,2.3337,2.392,2.4123,2.4245,2.4842,2.5257,2.5439,2.5103,2.5005,2.5005,2.5005,2.5005,2.5103,2.5439,2.5494,2.5564,2.5839,2.5893,2.5893,2.5935,2.6427,2.7045,2.765,2.8283,2.9068,2.9995,2.9834,3.0052,3.119,3.0984,3.1427,3.2877,3.2996,3.3573,3.4957,3.558,3.5913,3.5913,3.5753,3.5701,3.5701,3.3842,3.2908,3.2938,3.3385,3.3256,3.2614,3.3091,3.3293,3.3272,3.279,3.2597,3.2558,3.2079,3.1884,3.1948,3.2684,3.2975,3.3072,3.3809,3.3803,3.3498,2.0387,2.0677,2.0837,2.0996,2.1198,2.1345,2.1534,2.1534,2.1565,2.1585,2.2009,2.2286,2.2304,2.2725,2.2992,2.2992,2.3125,2.3258,2.3335,2.3573,2.3616,2.3365,2.3335,2.3365,2.3437,2.3616,2.3734,2.3793,2.3995,2.4083,2.4083,2.4203,2.4247,2.4261,2.439,2.4476,2.452,2.452,2.4456,2.4298,2.3968,2.4091,2.4454,2.4121,2.4243,2.4621,2.4838,2.4784,2.469,2.4894,2.4977,2.4896,2.4286,2.4136,2.4254,2.4618,2.4924,2.5339,2.6124,2.6481,2.6428,2.5578,2.5495,2.5619,2.5619,2.5619,2.5647,2.5771,2.5771,2.5798,2.5893,2.6245,2.6735,2.7268,2.8262,2.9229,2.9913,3.0549,3.1039,3.1334,3.1262,3.1364,3.1695,3.1623,3.1756,3.2196,3.301,3.4216,3.589,3.6155,3.6483,3.7013,3.605,3.5496,3.5496,3.493,3.4388,3.3888,3.4015,3.3844,3.3366,3.3513,3.3141,3.2385,3.2233,3.158,3.0635,3.0477,3.0726,3.1202,3.1091,3.1648,3.2527,3.2641,3.3262,3.4108,2.1135,2.1471,2.1741,2.1846,2.2094,2.2322,2.2506,2.2506,2.2525,2.2586,2.295,2.319,2.319,2.3556,2.3806,2.3806,2.3907,2.4024,2.4187,2.4405,2.4463,2.4303,2.4492,2.4492,2.4187,2.4245,2.4316,2.4316,2.4316,2.4316,2.4316,2.4376,2.4421,2.4421,2.4563,2.475,2.502,2.502,2.5175,2.5384,2.4902,2.5025,2.5508,2.5011,2.5176,2.566,2.566,2.566,2.566,2.566,2.5715,2.5699,2.5375,2.5422,2.5619,2.5776,2.5994,2.6298,2.6836,2.7119,2.7093,2.6457,2.6204,2.6177,2.6336,2.6244,2.6302,2.6854,2.6965,2.7076,2.7457,2.7821,2.8219,2.872,2.9667,3.0492,3.0949,3.1511,3.1908,3.1908,3.1908,3.2099,3.2571,3.2601,3.29,3.3638,3.462,3.5535,3.6361,3.669,3.697,3.7258,3.6448,3.59,3.5724,3.574,3.5047,3.3641,3.4017,3.3806,3.3003,3.359,3.3151,3.1956,3.2073,3.1453,3.0347,3.0292,3.0525,3.0942,3.1074,3.1629,3.24,3.2622,3.3275,3.4075,2.1577,2.2187,2.2695,2.2725,2.3215,2.3688,2.3891,2.392,2.3949,2.4083,2.4112,2.4112,2.4083,2.4112,2.4171,2.42,2.4245,2.4347,2.4452,2.4979,2.5133,2.4778,2.5217,2.5175,2.4509,2.4593,2.4664,2.4664,2.4721,2.475,2.475,2.475,2.4778,2.4778,2.4778,2.5118,2.5701,2.5701,2.6094,2.6651,2.6163,2.6256,2.6666,2.6163,2.6283,2.6704,2.673,2.673,2.673,2.673,2.6808,2.6938,2.7052,2.7129,2.7155,2.7155,2.7206,2.7232,2.7242,2.7449,2.764,2.764,2.7159,2.6785,2.7104,2.6901,2.7027,2.8368,2.8632,2.8921,2.9833,3.0068,3.0099,3.014,3.072,3.1177,3.1204,3.1713,3.2096,3.2096,3.2157,3.2645,3.3758,3.3849,3.4563,3.6269,3.7051,3.7191,3.6577,3.7221,3.7414,3.7062,3.6966,3.6736,3.6366,3.6377,3.5182,3.283,3.3749,3.3534,3.2368,3.3575,3.3421,3.2219,3.2344,3.2009,3.1419,3.1152,3.1069,3.1227,3.208,3.24,3.2485,3.3188,3.3533,3.3659,2.3035,2.3245,2.3437,2.3599,2.373,2.3891,2.4024,2.4067,2.4054,2.4083,2.4203,2.4232,2.4112,2.4345,2.4607,2.4936,2.5439,2.5755,2.5782,2.5918,2.5945,2.5877,2.6108,2.6203,2.6041,2.5495,2.5217,2.5217,2.5659,2.5836,2.5877,2.6,2.6109,2.6109,2.6188,2.6334,2.6467,2.6467,2.6546,2.6678,2.6587,2.6613,2.6704,2.6692,2.6745,2.686,2.6975,2.7001,2.7001,2.7001,2.7027,2.7052,2.7089,2.7232,2.7449,2.7675,2.7947,2.8231,2.8448,2.8646,2.874,2.874,2.8415,2.8012,2.7775,2.765,2.7861,2.8732,2.8894,2.9143,2.9859,3.0437,3.0884,3.1261,3.1844,3.2385,3.2739,3.3372,3.3779,3.3779,3.4297,3.4732,3.5002,3.5018,3.5392,3.6329,3.6794,3.7192,3.7559,3.7982,3.8157,3.808,3.7499,3.733,3.7525,3.7241,3.6271,3.4639,3.4878,3.5217,3.5633,3.4799,3.451,3.4574,3.3489,3.3097,3.3134,3.1893,3.173,3.2207,3.1856,3.1724,3.176,3.2142,3.2665,3.3344,2.3658,2.3865,2.3956,2.4057,2.4157,2.4258,2.4345,2.4345,2.4345,2.4345,2.4405,2.4507,2.4708,2.4878,2.5161,2.5632,2.5999,2.624,2.6349,2.6584,2.6637,2.6453,2.6782,2.6849,2.6587,2.6467,2.6267,2.6013,2.6308,2.6426,2.6426,2.6561,2.6602,2.6587,2.6666,2.6834,2.7108,2.7144,2.7338,2.7605,2.7348,2.7424,2.768,2.7464,2.7555,2.782,2.7894,2.7904,2.7929,2.7947,2.7972,2.7972,2.8046,2.8158,2.8295,2.8439,2.8622,2.8826,2.8967,2.9052,2.9098,2.9098,2.8943,2.8716,2.8511,2.8605,2.8962,2.9855,3.0334,3.0768,3.1435,3.1869,3.2186,3.2415,3.2989,3.3399,3.3314,3.4178,3.4683,3.4336,3.4936,3.5577,3.6079,3.6554,3.7042,3.7544,3.776,3.7953,3.8172,3.8668,3.8836,3.8633,3.8599,3.8583,3.8572,3.8705,3.8219,3.7136,3.682,3.6577,3.642,3.6353,3.6097,3.5688,3.4885,3.447,3.4213,3.2823,3.2502,3.2777,3.2168,3.1929,3.1947,3.2161,3.2564,3.3143,2.3966,2.4261,2.4481,2.4481,2.4694,2.4878,2.4878,2.4878,2.4878,2.4878,2.4907,2.5076,2.5481,2.5659,2.5918,2.6373,2.6505,2.6651,2.6826,2.7236,2.7338,2.7004,2.7414,2.7454,2.7004,2.7414,2.7388,2.6834,2.6938,2.7004,2.7004,2.7004,2.7004,2.7004,2.7016,2.7272,2.7705,2.783,2.818,2.8597,2.8213,2.835,2.8747,2.8262,2.8383,2.8818,2.8826,2.8865,2.885,2.8936,2.8943,2.8943,2.9052,2.9098,2.9098,2.9098,2.9098,2.9098,2.9098,2.9098,2.9098,2.9098,2.9098,2.913,2.9256,2.9492,2.998,3.0991,3.1801,3.2497,3.3182,3.3319,3.3388,3.3388,3.3858,3.4133,3.3704,3.4736,3.5356,3.4863,3.549,3.6342,3.717,3.8075,3.8689,3.8989,3.9069,3.899,3.8774,3.9337,3.9514,3.9178,3.9739,3.9921,3.9596,4.0189,4.0237,3.9697,3.9129,3.8162,3.6872,3.7855,3.7729,3.6719,3.6264,3.5843,3.5325,3.3938,3.3374,3.3323,3.2827,3.2563,3.2457,3.2607,3.2753,3.2989,2.4247,2.4794,2.5259,2.5259,2.5659,2.5972,2.5972,2.5972,2.5972,2.5972,2.6135,2.6188,2.6106,2.6663,2.7104,2.7297,2.7795,2.8113,2.8137,2.821,2.821,2.8162,2.825,2.8235,2.8162,2.8235,2.7999,2.7373,2.791,2.8162,2.8162,2.8162,2.8162,2.8186,2.8293,2.8389,2.8462,2.8589,2.87,2.8771,2.8684,2.8747,2.8794,2.8779,2.8811,2.8897,2.9006,2.9068,2.9068,2.9075,2.9075,2.9075,2.9075,2.9098,2.9098,2.9098,2.9098,2.9098,2.9098,2.9098,2.9098,2.9098,2.9098,2.9272,2.9896,3.0093,3.0321,3.104,3.1801,3.2497,3.3182,3.3477,3.3658,3.3658,3.3928,3.4323,3.4856,3.5598,3.6292,3.6836,3.7813,3.8488,3.8641,3.9073,3.9361,3.9423,3.9689,3.9851,3.98,4.011,4.0251,4.0197,4.03,4.0487,4.0775,4.0861,4.1042,4.1296,4.1208,4.066,3.9792,3.8772,3.8694,3.9276,3.7288,3.6901,3.7498,3.5349,3.4474,3.4441,3.3847,3.3174,3.2589,3.2804,3.2884,3.2918,2.4894,2.5508,2.6014,2.6014,2.6281,2.6479,2.6479,2.6479,2.6479,2.6479,2.6561,2.6692,2.6898,2.753,2.7984,2.8091,2.8284,2.842,2.8517,2.8517,2.8517,2.8517,2.8565,2.8628,2.8628,2.8628,2.8605,2.8544,2.8518,2.8517,2.8517,2.8604,2.8628,2.8628,2.87,2.8708,2.8708,2.8811,2.8858,2.8858,2.8928,2.8967,2.8975,2.9006,2.9013,2.9036,2.938,2.9655,2.9881,2.9881,2.9881,2.9881,2.9881,2.9881,2.9881,2.9881,2.97,2.9544,2.9815,2.9499,2.9339,3.0346,3.0399,3.0503,3.1563,3.2105,3.2383,3.2345,3.2876,3.3555,3.4203,3.4399,3.4627,3.5079,3.5572,3.6026,3.6431,3.7364,3.8164,3.8494,3.9099,3.9508,3.9508,3.9817,4.0094,4.0334,4.0473,4.0487,4.0285,4.0782,4.0886,4.0469,4.0452,4.0537,4.0712,4.0712,4.0801,4.0994,4.0994,4.1028,4.1059,4.044,4.0182,4.0158,3.8709,3.8137,3.8115,3.6246,3.5543,3.558,3.4905,3.4189,3.3504,3.3138,3.3088,3.3183]}]]